[[{"header":{"parameterUnit":"m.s-1","parameterCategory":1,"la1":30.6,"la2":29.2853,"lo1":-89.7004,"lo2":-87.6739,"dy":0.0162,"dx":0.0183,"nx":112,"ny":82,"refTime":"2024-02-11T18:00:00:Z","depth":0,"parameterNumber":2,"parameterNumberName":"U-component_of_WINDS"},"data":[0.0,0.0,0.0,0.0,0.0,0.0,0.0,0.0,0.0,0.0,0.0,0.0,0.0,0.0,0.0,0.0,0.0,0.0,0.0,0.0,0.0,0.0,0.0,0.0,0.0,0.0,0.0,0.0,0.0,0.0,0.0,0.0,0.0,0.0,0.0,0.0,0.0,0.0,0.0,0.0,0.0,0.0,0.0,0.0,0.0,0.0,0.0,0.0,0.0,0.0,0.0,0.0,0.0,0.0,0.0,0.0,0.0,0.0,0.0,0.0,0.0,0.0,0.0,0.0,0.0,0.0,0.0,0.0,0.0,0.0,0.0,0.0,0.0,0.0,0.0,0.0,0.0,0.0,0.0,0.0,0.0,0.0,0.0,0.0,0.0,0.0,0.0,0.0,0.0,0.0,0.0,1.6566,1.6648,1.6689,1.6689,1.6689,1.6689,1.6689,0.0,0.0,0.0,0.0,0.0,0.0,0.0,0.0,0.0,0.0,0.0,0.0,0.0,0.0,0.0,0.0,0.0,0.0,0.0,0.0,0.0,0.0,0.0,0.0,0.0,0.0,0.0,0.0,0.0,0.0,0.0,0.0,0.0,0.0,0.0,0.0,0.0,0.0,0.0,0.0,0.0,0.0,0.0,0.0,0.0,0.0,0.0,0.0,0.0,0.0,0.0,0.0,0.0,0.0,0.0,0.0,0.0,0.0,0.0,0.0,0.0,0.0,0.0,0.0,0.0,0.0,0.0,0.0,0.0,0.0,0.0,0.0,0.0,0.0,0.0,0.0,0.0,0.0,0.0,0.0,0.0,0.0,0.0,0.0,0.0,0.0,0.0,0.0,0.0,0.0,0.0,0.0,0.0,0.0,0.0,0.0,0.0,0.0,0.0,0.0,0.0,0.0,0.0,0.0,1.617,1.617,1.65,1.6689,1.6689,1.6689,1.6689,1.6689,0.0,0.0,0.0,0.0,0.0,0.0,0.0,0.0,0.0,0.0,0.0,0.0,0.0,0.0,0.0,0.0,0.0,0.0,0.0,0.0,0.0,0.0,0.0,0.0,0.0,0.0,0.0,0.0,0.0,0.0,0.0,0.0,0.0,0.0,0.0,0.0,0.0,0.0,0.0,0.0,0.0,0.0,0.0,0.0,0.0,0.0,0.0,0.0,0.0,0.0,0.0,0.0,0.0,0.0,0.0,0.0,0.0,0.0,0.0,0.0,0.0,0.0,0.0,0.0,0.0,0.0,0.0,0.0,0.0,0.0,0.0,0.0,0.0,0.0,0.0,0.0,0.0,0.0,0.0,0.0,0.0,0.0,0.0,0.0,0.0,0.0,0.0,0.0,0.0,0.0,0.0,0.0,0.0,0.0,0.0,0.0,0.0,0.0,0.0,0.0,0.0,0.0,0.0,1.6237,1.6237,1.6237,1.6443,1.6566,1.6689,1.6689,1.6689,1.6689,1.6689,0.0,0.0,0.0,0.0,0.0,0.0,0.0,0.0,0.0,0.0,0.0,0.0,0.0,0.0,0.0,0.0,0.0,0.0,0.0,0.0,0.0,0.0,0.0,0.0,0.0,0.0,0.0,0.0,0.0,0.0,0.0,0.0,0.0,0.0,0.0,0.0,0.0,0.0,0.0,0.0,0.0,0.0,0.0,0.0,0.0,0.0,0.0,0.0,0.0,0.0,0.0,0.0,0.0,0.0,0.0,0.0,0.0,0.0,0.0,0.0,0.0,0.0,0.0,0.0,0.0,0.0,0.0,0.0,0.0,0.0,0.0,0.0,0.0,0.0,0.0,0.0,0.0,0.0,0.0,0.0,0.0,0.0,0.0,0.0,0.0,0.0,0.0,0.0,0.0,0.0,0.0,0.0,0.0,0.0,0.0,0.0,0.0,0.0,0.0,0.0,0.0,0.0,1.6196,1.6221,1.6221,1.6278,1.6402,1.6541,1.6607,1.6648,1.6648,1.6648,0.0,0.0,0.0,0.0,0.0,0.0,0.0,0.0,0.0,0.0,0.0,0.0,0.0,0.0,0.0,0.0,0.0,0.0,0.0,0.0,0.0,0.0,0.0,0.0,0.0,0.0,0.0,0.0,0.0,0.0,0.0,0.0,0.0,0.0,0.0,0.0,0.0,0.0,0.0,0.0,0.0,0.0,0.0,0.0,0.0,0.0,0.0,0.0,0.0,0.0,0.0,0.0,0.0,0.0,0.0,0.0,0.0,0.0,0.0,0.0,0.0,0.0,0.0,0.0,0.0,0.0,0.0,0.0,0.0,0.0,0.0,0.0,0.0,0.0,0.0,0.0,0.0,0.0,0.0,0.0,0.0,0.0,0.0,0.0,0.0,0.0,0.0,0.0,0.0,0.0,0.0,0.0,0.0,0.0,0.0,0.0,0.0,0.0,0.0,0.0,0.0,0.0,1.5906,1.5741,1.5741,1.5948,1.6128,1.6128,1.6319,1.6427,1.6427,1.6607,0.0,0.0,0.0,0.0,0.0,0.0,0.0,0.0,0.0,0.0,0.0,0.0,0.0,0.0,0.0,0.0,0.0,0.0,0.0,0.0,0.0,0.0,0.0,0.0,0.0,0.0,0.0,0.0,0.0,0.0,0.0,0.0,0.0,0.0,0.0,0.0,0.0,0.0,0.0,0.0,0.0,0.0,0.0,0.0,0.0,0.0,0.0,0.0,0.0,0.0,0.0,0.0,0.0,0.0,0.0,0.0,0.0,0.0,0.0,0.0,0.0,0.0,0.0,0.0,0.0,0.0,0.0,0.0,0.0,0.0,0.0,0.0,0.0,0.0,0.0,0.0,0.0,0.0,0.0,0.0,0.0,0.0,0.0,0.0,0.0,0.0,0.0,0.0,0.0,0.0,0.0,0.0,0.0,0.0,0.0,0.0,0.0,0.0,0.0,0.0,0.0,0.0,1.6483,1.6311,0.0,1.6397,1.6541,1.667,1.6557,1.6561,1.6713,0.0,0.0,0.0,0.0,0.0,0.0,0.0,0.0,0.0,0.0,0.0,0.0,0.0,0.0,0.0,0.0,0.0,0.0,0.0,0.0,0.0,0.0,0.0,0.0,0.0,0.0,0.0,0.0,0.0,0.0,0.0,0.0,0.0,0.0,0.0,0.0,0.0,0.0,0.0,0.0,0.0,0.0,0.0,0.0,0.0,0.0,0.0,0.0,0.0,0.0,0.0,0.0,0.0,0.0,0.0,0.0,0.0,0.0,0.0,0.0,0.0,0.0,0.0,0.0,0.0,0.0,0.0,0.0,0.0,0.0,0.0,0.0,0.0,0.0,0.0,0.0,0.0,0.0,0.0,0.0,0.0,0.0,0.0,0.0,0.0,0.0,0.0,0.0,0.0,0.0,0.0,0.0,0.0,0.0,0.0,0.0,0.0,0.0,0.0,0.0,0.0,0.0,1.7108,1.6815,1.6595,0.0,1.6595,1.6639,1.6815,1.6707,1.6743,1.6943,0.0,0.0,0.0,0.0,0.0,0.0,0.0,0.0,0.0,0.0,0.0,0.0,0.0,0.0,0.0,0.0,0.0,0.0,0.0,0.0,0.0,0.0,0.0,0.0,0.0,0.0,0.0,0.0,0.0,0.0,0.0,0.0,0.0,0.0,0.0,0.0,0.0,0.0,0.0,0.0,0.0,0.0,0.0,0.0,0.0,0.0,0.0,0.0,0.0,0.0,0.0,0.0,0.0,0.0,0.0,0.0,0.0,0.0,0.0,0.0,0.0,0.0,0.0,0.0,0.0,0.0,0.0,0.0,0.0,0.0,0.0,0.0,0.0,0.0,0.0,0.0,0.0,0.0,0.0,0.0,0.0,0.0,0.0,0.0,0.0,0.0,0.0,0.0,0.0,0.0,0.0,0.0,0.0,0.0,0.0,0.0,0.0,0.0,0.0,0.0,0.0,0.0,1.7138,1.6698,1.6433,1.6433,1.6433,1.6433,1.6433,1.661,1.6831,0.0,0.0,0.0,0.0,0.0,0.0,0.0,0.0,0.0,0.0,0.0,0.0,0.0,0.0,0.0,0.0,0.0,0.0,0.0,0.0,0.0,0.0,0.0,0.0,0.0,0.0,0.0,0.0,0.0,0.0,0.0,0.0,0.0,0.0,0.0,0.0,0.0,0.0,0.0,0.0,0.0,0.0,0.0,0.0,0.0,0.0,0.0,0.0,0.0,0.0,0.0,0.0,0.0,0.0,0.0,0.0,0.0,0.0,0.0,0.0,0.0,0.0,0.0,0.0,0.0,0.0,0.0,0.0,0.0,0.0,0.0,0.0,0.0,0.0,0.0,0.0,0.0,0.0,0.0,0.0,0.0,0.0,0.0,0.0,0.0,0.0,0.0,0.0,0.0,0.0,0.0,0.0,0.0,0.0,0.0,0.0,0.0,0.0,0.0,0.0,0.0,0.0,0.0,1.8468,1.807,1.7735,1.7735,1.7735,1.7735,1.7735,1.7578,1.7665,1.8148,0.0,0.0,0.0,0.0,0.0,0.0,0.0,0.0,0.0,0.0,0.0,0.0,0.0,0.0,0.0,0.0,0.0,0.0,0.0,0.0,0.0,0.0,0.0,0.0,0.0,0.0,0.0,0.0,0.0,0.0,0.0,0.0,0.0,0.0,0.0,0.0,0.0,0.0,0.0,0.0,0.0,0.0,0.0,0.0,0.0,0.0,0.0,0.0,0.0,0.0,0.0,0.0,0.0,0.0,0.0,0.0,0.0,0.0,0.0,0.0,0.0,0.0,0.0,0.0,0.0,0.0,0.0,0.0,0.0,0.0,0.0,0.0,0.0,0.0,0.0,0.0,0.0,0.0,0.0,0.0,0.0,0.0,0.0,0.0,0.0,0.0,0.0,0.0,0.0,0.0,0.0,0.0,0.0,0.0,0.0,0.0,0.0,0.0,0.0,0.0,0.0,0.0,1.9079,1.8651,1.8306,1.8306,1.8306,1.8306,1.8306,1.813,1.8159,1.861,0.0,0.0,0.0,0.0,0.0,0.0,0.0,0.0,0.0,0.0,0.0,0.0,0.0,0.0,0.0,0.0,0.0,0.0,0.0,0.0,0.0,0.0,0.0,0.0,0.0,0.0,0.0,0.0,0.0,0.0,0.0,0.0,0.0,0.0,0.0,0.0,0.0,0.0,0.0,0.0,0.0,0.0,0.0,0.0,0.0,0.0,0.0,0.0,0.0,0.0,0.0,0.0,0.0,0.0,0.0,0.0,0.0,0.0,0.0,0.0,0.0,0.0,0.0,0.0,0.0,0.0,0.0,0.0,0.0,0.0,0.0,0.0,0.0,0.0,0.0,0.0,0.0,0.0,0.0,0.0,0.0,0.0,0.0,0.0,0.0,0.0,0.0,0.0,0.0,0.0,0.0,0.0,0.0,0.0,0.0,0.0,0.0,0.0,0.0,0.0,0.0,0.0,1.9185,1.8741,1.8394,1.8394,1.8394,1.8394,1.8394,1.8394,1.8493,1.8756,0.0,0.0,0.0,0.0,0.0,0.0,0.0,0.0,0.0,0.0,0.0,0.0,0.0,0.0,0.0,0.0,0.0,0.0,0.0,0.0,0.0,0.0,0.0,0.0,0.0,0.0,0.0,0.0,0.0,0.0,0.0,0.0,0.0,0.0,0.0,0.0,0.0,0.0,0.0,0.0,0.0,0.0,0.0,0.0,0.0,0.0,0.0,0.0,0.0,0.0,0.0,0.0,0.0,0.0,0.0,0.0,0.0,0.0,0.0,0.0,2.0041,0.0,0.0,0.0,0.0,0.0,0.0,0.0,0.0,0.0,0.0,0.0,0.0,0.0,0.0,0.0,0.0,0.0,0.0,0.0,0.0,0.0,0.0,0.0,0.0,0.0,0.0,0.0,0.0,0.0,0.0,0.0,0.0,0.0,0.0,0.0,0.0,0.0,0.0,0.0,0.0,0.0,1.9842,1.9427,1.9067,1.9067,1.9067,1.9067,1.9067,1.9067,1.9221,1.9478,1.9274,0.0,0.0,0.0,0.0,0.0,0.0,0.0,0.0,0.0,0.0,0.0,0.0,0.0,0.0,0.0,0.0,0.0,0.0,0.0,0.0,0.0,0.0,0.0,0.0,0.0,0.0,0.0,0.0,0.0,0.0,0.0,0.0,0.0,0.0,0.0,0.0,0.0,0.0,0.0,0.0,0.0,0.0,0.0,0.0,0.0,0.0,0.0,0.0,0.0,0.0,0.0,0.0,0.0,0.0,0.0,0.0,0.0,0.0,0.0,0.0,2.0086,0.0,0.0,0.0,0.0,0.0,0.0,0.0,0.0,0.0,0.0,0.0,0.0,0.0,0.0,0.0,0.0,0.0,0.0,0.0,0.0,0.0,0.0,0.0,0.0,0.0,0.0,0.0,0.0,0.0,0.0,0.0,0.0,0.0,0.0,0.0,0.0,0.0,0.0,0.0,0.0,2.0055,1.962,1.9272,1.9272,1.9272,1.9272,1.9272,1.9272,1.9376,1.948,1.9471,0.0,0.0,0.0,0.0,0.0,0.0,0.0,0.0,0.0,0.0,0.0,0.0,0.0,0.0,0.0,0.0,0.0,0.0,0.0,0.0,0.0,0.0,0.0,0.0,0.0,0.0,0.0,0.0,0.0,0.0,0.0,0.0,0.0,0.0,0.0,0.0,0.0,0.0,0.0,0.0,0.0,0.0,0.0,0.0,0.0,0.0,0.0,0.0,0.0,0.0,0.0,0.0,0.0,2.0438,2.0522,2.0522,2.0809,2.0768,2.052,2.0234,1.9852,1.95,0.0,0.0,0.0,0.0,0.0,0.0,0.0,0.0,0.0,0.0,0.0,0.0,0.0,0.0,0.0,0.0,0.0,0.0,0.0,0.0,0.0,0.0,0.0,0.0,0.0,1.9956,1.9852,0.0,0.0,0.0,0.0,0.0,0.0,0.0,0.0,0.0,0.0,0.0,0.0,2.0034,1.9583,1.9272,1.9272,1.9272,1.9272,1.9272,1.9272,1.9272,1.9272,1.9532,1.9532,0.0,0.0,0.0,0.0,0.0,0.0,0.0,0.0,0.0,0.0,0.0,0.0,0.0,0.0,0.0,0.0,0.0,0.0,0.0,0.0,0.0,0.0,0.0,0.0,0.0,0.0,0.0,0.0,0.0,0.0,0.0,0.0,2.0118,2.0322,0.0,0.0,0.0,0.0,0.0,0.0,0.0,0.0,0.0,0.0,0.0,0.0,0.0,2.101,2.0956,2.0686,2.0524,2.0524,2.0367,2.0219,2.0219,2.0317,2.0292,2.0223,2.0204,0.0,2.0051,2.0106,0.0,0.0,0.0,0.0,0.0,0.0,0.0,0.0,0.0,0.0,0.0,0.0,0.0,0.0,0.0,0.0,0.0,0.0,0.0,0.0,0.0,0.0,2.0219,2.0175,2.016,2.016,0.0,2.0129,2.0138,2.0138,0.0,0.0,0.0,0.0,0.0,0.0,0.0,0.0,1.9776,1.948,1.9272,1.9272,1.9272,1.9272,1.9272,1.9272,1.9272,1.9272,1.9324,1.9324,1.9272,1.9324,0.0,0.0,0.0,0.0,0.0,0.0,0.0,0.0,0.0,0.0,0.0,0.0,0.0,0.0,0.0,0.0,0.0,0.0,0.0,0.0,0.0,0.0,0.0,0.0,0.0,0.0,0.0,0.0,0.0,2.0581,2.0637,2.0794,2.0965,2.118,0.0,0.0,0.0,0.0,0.0,0.0,0.0,0.0,0.0,2.0822,2.0822,2.0768,2.0604,2.0441,2.0387,2.0401,2.0468,2.0446,2.0516,2.0706,2.0779,2.0779,2.0779,2.0779,2.075,2.0384,2.0183,2.0183,0.0,0.0,0.0,0.0,0.0,2.0183,2.0183,2.0183,0.0,0.0,0.0,0.0,0.0,0.0,0.0,0.0,0.0,0.0,0.0,0.0,0.0,2.0227,2.0183,2.0183,2.0183,2.0165,2.0172,0.0,2.0385,2.0438,2.0651,0.0,0.0,0.0,0.0,0.0,2.0225,1.9864,1.9603,1.9603,1.9389,1.9272,1.9272,1.9272,1.9272,1.9272,1.9272,1.9272,1.9272,1.9272,1.9272,0.0,0.0,0.0,0.0,0.0,0.0,0.0,0.0,0.0,0.0,0.0,0.0,0.0,0.0,0.0,0.0,0.0,0.0,0.0,0.0,0.0,0.0,0.0,0.0,0.0,0.0,0.0,0.0,2.0838,2.0993,2.1137,2.1209,2.1418,0.0,0.0,0.0,0.0,0.0,0.0,2.1243,2.1258,2.1078,2.0748,2.0748,2.0637,2.0486,2.0486,2.0486,2.0431,2.0735,2.0852,2.0852,2.1101,2.1203,2.1203,2.1203,2.1203,2.1174,2.0691,2.0486,2.0486,2.0486,2.0486,2.0486,2.0486,2.0486,2.0486,2.0486,2.0486,2.0486,2.0486,0.0,2.0486,2.0486,0.0,0.0,0.0,0.0,2.0794,2.0489,0.0,2.0794,2.0545,2.0486,2.0486,2.0486,2.0486,2.0483,0.0,2.0496,2.055,2.0822,0.0,0.0,0.0,0.0,2.0604,2.0496,2.0141,1.9886,1.9886,1.9667,1.952,1.952,1.952,1.952,1.952,1.9447,1.9456,1.9456,1.9368,1.9272,1.9272,0.0,0.0,0.0,0.0,0.0,0.0,0.0,0.0,0.0,0.0,0.0,0.0,0.0,0.0,0.0,0.0,0.0,0.0,0.0,0.0,0.0,0.0,0.0,0.0,0.0,0.0,0.0,0.0,0.0,2.1511,2.1024,0.0,0.0,0.0,0.0,2.1551,2.1582,2.1607,2.1658,2.1672,2.1502,2.1159,2.1159,2.1159,2.1159,2.1159,2.1159,2.1159,2.1174,2.1189,2.1189,2.1203,2.1203,2.1203,2.1203,2.1203,2.1203,2.1174,2.1159,2.1159,2.1159,2.1159,2.1159,2.1159,2.1159,2.1159,2.1159,2.1159,2.1159,2.1159,2.1159,2.1159,2.1159,2.1159,0.0,0.0,2.1174,2.1174,2.1159,2.1174,2.1174,2.1159,2.1159,2.1159,2.1159,2.1159,2.0984,0.0,2.0237,2.0237,2.0237,0.0,2.055,2.0292,2.0441,2.0496,2.0237,2.0223,2.0154,2.0154,2.0139,2.0139,2.0139,2.0139,2.0139,2.0139,1.9901,1.9793,1.9793,1.95,1.9272,1.9272,1.9272,0.0,0.0,0.0,0.0,0.0,0.0,0.0,0.0,0.0,0.0,0.0,0.0,0.0,0.0,0.0,0.0,0.0,0.0,0.0,0.0,0.0,0.0,0.0,0.0,0.0,0.0,0.0,0.0,2.1539,2.1461,0.0,2.1861,2.1638,2.153,2.1651,2.1481,2.1371,2.1375,2.139,2.1318,2.1203,2.1203,2.1203,2.1203,2.1203,2.1203,2.1203,2.1203,2.1203,2.1203,2.1203,2.1203,2.1203,2.1203,2.1203,2.1203,2.1203,2.1203,2.1203,2.1203,2.1203,2.1203,2.1203,2.1203,2.1203,2.1203,2.1203,2.1203,2.1203,2.1203,2.1203,2.1203,2.1203,2.1203,2.1203,2.1203,2.1203,2.1203,2.1203,2.1203,2.1203,2.1203,2.1203,2.1203,2.1203,2.1145,2.0911,2.0867,2.0867,2.0867,2.0908,2.0965,2.0867,2.0908,2.0965,2.0867,2.0676,2.0489,2.0489,2.03,1.9895,1.9112,1.9057,1.8671,1.7883,1.8508,1.8905,1.8905,1.9513,1.9886,1.9886,1.9886,1.9886,0.0,0.0,0.0,0.0,0.0,0.0,0.0,0.0,0.0,0.0,0.0,0.0,0.0,0.0,0.0,0.0,0.0,0.0,0.0,0.0,0.0,0.0,0.0,0.0,0.0,0.0,2.1444,2.1724,2.1639,2.166,2.1945,2.1717,2.1561,2.1561,2.1332,2.1203,2.1203,2.1203,2.1203,2.1203,2.1203,2.1203,2.1203,2.1203,2.1262,2.1379,2.1379,2.1437,2.154,2.154,2.154,2.154,2.154,2.154,2.154,2.154,2.154,2.1511,2.1291,2.1203,2.1203,2.1203,2.1203,2.1203,2.1203,2.1203,2.1203,2.1203,2.1203,2.1203,2.1203,2.1203,2.1203,2.1203,2.1203,2.1203,2.1203,2.1203,2.1203,2.1203,2.1203,2.1203,2.1203,2.1203,2.1203,2.1203,2.1203,2.1203,2.1203,2.1203,2.1203,2.1203,2.1203,2.1203,2.1203,2.1013,2.0881,2.0881,2.0691,2.0045,1.88,1.9095,1.8632,1.6923,1.7909,1.8374,1.7914,1.9002,1.9566,1.9566,2.0019,2.0183,2.0183,0.0,0.0,0.0,0.0,0.0,0.0,0.0,0.0,0.0,0.0,0.0,0.0,0.0,0.0,0.0,0.0,0.0,0.0,0.0,0.0,0.0,0.0,0.0,2.2059,2.1831,2.1774,2.2059,2.1546,2.1332,2.1675,2.1375,2.1203,2.1203,2.1203,2.1203,2.1203,2.1203,2.1218,2.1233,2.1233,2.1233,2.1233,2.1233,2.1393,2.1715,2.1715,2.1876,2.2184,2.2184,2.2184,2.2184,2.2184,2.2184,2.2184,2.2184,2.2184,2.2125,2.1481,2.1233,2.1233,2.1233,2.1233,2.1218,2.1218,2.1203,2.1203,2.1203,2.1203,2.1203,2.1203,2.1203,2.1203,2.1203,2.1203,2.1203,2.1203,2.1203,2.1203,2.1203,2.1203,2.1203,2.1203,2.1203,2.1203,2.1203,2.1203,2.1203,2.1203,2.1203,2.1203,2.1203,2.1203,0.0,2.1203,2.1203,2.1203,2.1203,2.1203,2.0673,1.939,2.0385,2.0026,1.7501,1.818,1.821,1.7011,1.7897,1.8366,1.8366,1.9539,2.0157,2.0157,0.0,0.0,0.0,0.0,0.0,0.0,0.0,0.0,0.0,0.0,0.0,0.0,0.0,0.0,0.0,0.0,0.0,0.0,0.0,0.0,0.0,2.1831,2.1732,2.1774,2.1546,2.1375,2.1432,2.1318,2.1218,2.1332,2.1261,2.1203,2.1203,2.1203,2.1203,2.1203,2.1203,2.132,2.1554,2.1569,2.1672,2.1906,2.192,2.1964,2.2052,2.2052,2.2096,2.2184,2.2184,2.2184,2.2184,2.2184,2.2184,2.2184,2.2184,2.2184,2.2169,2.1979,2.192,2.192,2.192,2.1759,2.1525,2.1291,2.1203,2.1203,2.1203,2.1203,2.1203,2.1203,2.1203,2.1203,2.1203,2.1203,2.1203,2.1203,2.1203,2.1203,2.1203,2.1203,2.1203,2.1203,2.1203,2.1203,2.1203,2.1203,2.1203,2.1203,2.1203,2.1203,2.1203,2.1203,0.0,2.1203,2.1203,2.1203,2.1203,2.1203,2.0673,1.939,1.8797,1.7793,1.622,1.6328,1.6353,1.6001,1.7099,1.7687,1.7687,1.8907,1.9549,0.0,0.0,0.0,0.0,0.0,0.0,0.0,0.0,0.0,0.0,0.0,0.0,0.0,0.0,0.0,0.0,0.0,0.0,0.0,0.0,0.0,0.0,2.1561,2.1489,2.1489,2.1318,2.1203,2.1203,2.1203,2.1203,2.1203,2.1203,2.1203,2.1203,2.1335,2.1408,2.1408,2.154,2.1701,2.1891,2.1906,2.1993,2.2184,2.2184,2.2242,2.2374,2.2374,2.2432,2.2564,2.2564,2.2564,0.0,2.2564,2.2564,2.2564,2.2564,2.2564,0.0,0.0,0.0,0.0,0.0,2.2067,2.1876,2.1686,2.1613,2.1613,2.1613,2.1613,2.1613,2.1613,2.1525,2.1408,2.1408,2.132,2.1203,2.1203,2.1203,2.1203,2.1203,2.1203,2.1203,2.1203,2.1203,2.1203,2.1203,0.0,0.0,2.1203,2.1203,2.1203,2.1203,2.1203,2.1203,0.0,2.1203,2.0974,2.0443,2.0385,1.9679,1.791,1.7501,0.0,0.0,0.0,1.5569,1.5569,1.6279,0.0,0.0,0.0,1.8506,1.8506,0.0,0.0,0.0,1.7447,1.7974,0.0,0.0,0.0,0.0,0.0,0.0,0.0,0.0,0.0,0.0,0.0,0.0,0.0,0.0,0.0,0.0,2.1432,2.1203,2.1203,2.1203,2.1203,2.1203,2.1203,2.1203,2.1203,2.1247,2.1262,2.1262,2.1569,2.1759,2.1759,0.0,0.0,0.0,0.0,2.2257,2.2286,2.2286,2.2418,2.2681,2.2681,2.2828,2.3106,2.3106,2.3106,2.3106,2.3106,2.3106,2.3106,2.3106,2.3106,2.3047,2.2506,2.2286,2.2286,2.2242,2.2228,0.0,0.0,0.0,0.0,2.2184,2.2184,2.2184,2.2184,2.1979,2.1759,2.1759,2.154,2.132,2.132,2.132,2.132,2.132,2.132,2.132,2.132,2.132,2.132,2.132,2.132,2.132,2.132,2.1262,2.1203,2.1203,2.1203,0.0,2.1203,2.1203,2.0802,1.9622,0.0,0.0,1.622,1.6738,1.6267,1.4043,1.4867,1.5402,1.5402,1.5402,1.5865,1.6973,1.7091,1.7208,1.7208,1.7208,1.7267,1.7372,1.6732,1.754,0.0,0.0,0.0,0.0,0.0,0.0,0.0,0.0,0.0,0.0,0.0,0.0,0.0,0.0,0.0,2.1675,2.1432,2.1203,2.1203,2.1203,2.1203,2.1203,2.1203,2.1203,2.1203,2.1452,2.1598,2.1598,2.1906,2.2096,2.2096,2.2154,0.0,2.2535,2.2535,2.2667,2.293,2.293,2.2959,2.3018,0.0,0.0,2.3106,2.3106,2.3106,2.3106,2.3106,2.3106,2.3106,2.3106,2.3106,2.3091,2.2974,2.293,2.2901,2.2637,2.2535,2.2506,2.2271,2.2184,2.2184,2.2184,2.2184,2.2184,2.2184,2.214,0.0,2.2096,2.2052,2.1993,2.1993,2.1993,2.1993,2.1993,2.1993,2.1993,2.1993,2.1993,2.1993,2.1993,2.1993,2.1993,2.1993,2.1554,2.1203,2.1203,2.1203,2.1203,2.1203,2.1203,2.1089,2.0859,1.991,1.9087,1.8622,1.6985,1.5747,1.5283,1.451,1.4043,1.4043,1.4043,1.4162,1.4391,1.5391,1.5924,1.5924,1.5924,1.6455,1.7384,1.6294,1.6541,0.0,0.0,0.0,0.0,0.0,0.0,0.0,0.0,0.0,0.0,0.0,2.1261,2.1432,0.0,2.1261,2.1432,2.1465,2.1452,2.1452,2.1598,2.1642,2.1467,2.1452,2.1525,2.1686,2.1847,2.1935,2.1935,2.2228,2.2403,2.2403,2.2564,2.271,2.2857,2.2871,2.2945,2.3106,2.3106,2.3193,2.3354,2.3354,2.3442,2.3588,2.3588,2.3588,2.3588,2.3588,2.3501,2.334,2.3179,2.3106,2.3106,2.3106,2.3106,2.3091,2.293,2.2871,2.2842,2.2696,2.2652,2.2652,2.2652,2.2652,2.2652,2.2652,2.2535,2.2403,2.2403,2.2301,2.2184,2.2184,2.2184,2.2184,2.2184,2.2184,2.2184,2.2184,2.2184,2.2184,2.2184,2.2184,2.2184,2.2184,2.1906,2.1701,2.1701,2.1701,2.1701,2.1701,2.1701,2.1452,2.0791,1.9523,1.8498,1.7901,1.5997,1.4751,1.4639,1.4043,1.3693,1.3693,1.3693,1.3693,1.3693,1.4341,1.4629,1.4629,1.4629,1.4986,1.551,1.4738,1.5391,0.0,0.0,0.0,0.0,0.0,0.0,0.0,0.0,2.1203,2.1203,2.1203,2.1233,2.1291,2.1306,2.132,2.1393,2.1613,2.1789,2.1789,2.2023,2.2111,2.1906,2.1832,2.1891,2.2154,2.2242,2.2271,2.2271,2.255,2.271,2.271,2.2959,2.3106,2.3106,2.3106,2.3135,2.3208,2.3208,2.3369,2.3691,2.3691,2.3823,2.4086,2.4086,2.4086,2.4086,2.4086,2.394,2.3676,2.3413,2.3296,2.3296,2.3296,2.3296,2.3281,2.3164,2.3106,2.3106,2.3106,2.3106,2.3106,2.3106,2.3106,2.3106,2.3106,2.293,2.271,2.271,2.255,2.2359,2.2359,2.2359,2.2359,2.2359,2.2359,2.2359,2.2359,2.2359,2.2359,2.2359,2.2359,2.2359,2.2359,2.2359,2.233,2.2198,2.2184,2.2124,2.1809,2.1809,2.1314,2.0019,1.885,1.7737,1.6516,1.495,1.3996,1.3825,1.3807,1.3797,1.375,1.375,1.3731,1.3693,1.3693,1.3693,1.3693,1.3624,1.3624,1.3564,1.3264,1.4272,2.1218,2.1203,2.1261,2.1546,2.1432,2.1203,0.0,0.0,2.1203,2.1203,2.1203,2.1306,2.1584,2.1642,2.173,2.2023,2.2111,2.2125,2.2125,2.2154,2.2271,2.2491,2.2286,2.214,2.2184,2.2418,2.2579,2.2579,2.2871,2.3062,2.3062,2.3091,2.3106,2.3106,2.3106,2.3252,2.3545,2.3545,2.3706,2.4027,2.4027,2.4042,2.4086,2.4086,2.4086,2.4086,2.4086,2.4057,2.4027,2.3984,2.3969,2.3969,2.3969,2.3969,2.391,2.3325,2.3106,2.3106,2.3106,2.3106,2.3106,2.3106,2.3106,2.3106,2.3106,2.3091,2.3062,2.3062,2.3032,2.3003,2.3003,2.3003,2.3003,2.3003,2.3003,2.3003,2.3003,2.3003,2.3003,2.3003,2.3003,2.3003,2.3003,2.3003,2.2813,2.2271,2.2184,2.1749,2.0503,2.0308,1.9824,1.8484,1.8239,1.7737,1.6516,1.509,1.427,1.4241,1.4241,1.4166,1.3986,1.3977,1.3882,1.3693,1.3693,1.3693,1.3693,1.3384,1.3264,1.3264,1.2904,1.3075,2.1203,2.1203,2.1203,2.1375,2.1318,2.1203,2.1203,2.135,2.1496,2.1496,2.1642,2.1818,2.195,2.1979,2.2023,0.0,2.233,2.2432,2.2432,2.2608,2.2769,2.2886,2.2798,2.2725,2.2725,2.2828,2.2901,2.2901,2.3032,2.3106,2.3106,2.3281,2.3398,2.3398,2.3574,2.3735,2.3881,2.3881,2.4042,2.4364,2.4364,2.4466,2.4657,2.4657,2.4657,2.4642,2.4452,2.4364,2.4349,2.4159,2.4086,2.4086,2.4086,2.4086,2.4057,2.3779,2.3676,2.3647,2.3457,2.3398,2.3354,2.3164,2.3106,2.3106,2.3106,2.3106,2.3106,2.3106,2.3106,2.3106,2.3106,2.3106,2.3106,2.3106,2.3106,2.3106,2.3106,2.3106,2.3106,2.3106,2.3106,2.3106,2.3106,2.3106,2.3018,2.2769,2.2725,2.2526,2.1897,2.1142,1.9824,1.7691,1.7501,1.694,1.5436,1.4804,1.4449,1.4317,1.4307,1.427,1.4185,1.4185,1.4023,1.3745,1.3735,1.3674,1.3489,1.3304,1.3243,1.3243,1.2943,1.2819,2.1203,2.1203,2.1203,2.1203,2.1276,2.135,2.135,2.1598,2.1832,2.1832,2.2023,2.2213,2.2286,2.2301,2.233,2.2418,2.2623,2.2754,2.2754,2.2959,2.3106,2.3106,2.3106,2.3106,2.3106,2.3106,2.3106,2.3106,2.3193,2.3237,2.3237,2.3559,2.3735,2.3735,2.3954,2.413,2.4218,2.4218,2.4379,2.4767,2.4767,2.4899,2.5119,2.5119,2.5119,2.5119,2.487,2.4767,2.4686,2.4386,2.4218,2.4218,2.4218,2.4218,2.4218,2.4349,2.4232,2.4057,2.3808,2.3735,2.3691,2.3457,2.331,2.3237,2.3237,2.3179,2.3106,2.3106,2.3106,2.3106,2.3106,2.3106,2.3106,2.3106,2.3106,2.3106,2.3106,2.3106,2.3106,2.3106,2.3106,2.3106,2.3106,2.3106,2.3106,2.3106,2.3106,2.2981,2.2606,2.1069,1.9215,1.7238,1.6656,1.6087,1.5357,1.4907,1.4648,1.4496,1.4487,1.4459,1.4402,1.4276,1.4122,1.3806,1.3743,1.3555,1.3295,1.3241,1.3178,1.3178,1.2809,1.2691,2.1203,2.1203,2.1203,2.1203,2.1452,2.1686,2.1686,2.1935,2.2169,2.2169,2.2169,2.2271,2.255,2.2608,2.271,2.3032,2.3091,2.3091,2.3091,2.3106,2.3106,2.3106,2.3106,2.3106,0.0,2.3106,2.3106,2.3106,2.3398,2.3574,2.3574,2.3896,2.4071,2.4071,2.4071,2.4232,2.4554,2.4554,2.4715,2.5105,2.5105,2.5119,2.5119,2.5119,2.5119,2.5119,2.5119,2.5105,2.5037,2.4684,2.4467,2.4467,2.4467,2.4467,2.4549,2.4955,2.4627,2.4086,2.4071,2.4071,2.4071,2.4057,2.3837,2.3574,2.3574,2.3354,2.3106,2.3106,2.3106,2.3106,2.3106,2.3106,2.3106,2.3106,2.3106,2.3106,2.3106,2.3106,2.3106,2.3106,2.3106,2.3106,2.3106,2.3106,2.3106,2.3106,2.3106,2.2606,2.1335,1.8768,1.7109,1.698,1.5769,1.5508,1.684,1.5694,1.4922,1.4847,1.4847,1.4762,1.4629,1.4299,1.4007,1.3806,1.3483,1.3295,1.3295,1.2998,1.2809,1.2817,1.2493,1.2304,2.1203,2.1364,2.154,2.154,2.1774,2.2023,2.2023,2.2257,2.2476,2.2476,2.2652,2.2828,2.293,2.2945,2.2974,2.3091,2.3106,2.3106,2.3106,2.3106,2.3193,2.3413,2.3427,0.0,0.0,0.0,0.0,2.3427,2.3735,2.3925,2.3925,2.4232,2.4408,2.4408,2.4679,2.4855,2.4958,2.4958,2.5017,2.5119,2.5119,2.4984,2.4713,2.4713,2.4578,2.4374,2.4374,2.4374,2.4374,2.4224,2.4156,2.4156,2.4156,2.4156,2.417,2.4306,2.4367,2.4352,2.4415,2.4408,2.4379,2.4145,2.4013,2.3925,2.3925,2.3691,2.3427,2.3427,2.3281,2.3106,2.3106,2.3106,2.3106,2.3106,2.3106,2.3106,2.3106,2.3106,2.3106,2.3106,2.3106,2.3106,2.3106,2.3106,2.3106,2.3106,2.3106,2.2606,2.1272,1.9483,1.8011,1.7109,1.5769,1.5062,1.5574,1.4987,1.467,1.4866,1.4473,1.4306,1.4447,1.4178,1.3826,1.357,1.3431,1.3237,1.2978,1.2848,1.2791,1.2791,1.2661,1.2661,2.1379,2.1628,2.1876,2.1876,2.2111,2.2345,2.2345,2.2579,2.2798,2.2798,2.2959,2.3106,2.3106,2.3106,2.3149,2.3267,2.3281,2.3325,2.3442,2.3457,2.353,2.3749,2.3764,2.3852,0.0,0.0,0.0,2.3779,2.4071,2.4262,2.4262,2.4635,2.4811,2.4811,2.5017,2.5119,2.5119,2.5119,2.5119,2.5119,2.4916,2.4781,2.4495,2.436,2.4224,2.4034,2.4034,2.4034,2.3952,2.3816,2.3816,2.3816,2.3816,2.3816,2.3816,2.3966,2.417,2.4331,2.4549,2.4678,2.4701,2.4496,2.4349,2.4262,2.4262,2.4027,2.3764,2.3764,2.3618,2.3427,2.331,2.3281,2.3252,2.3135,2.3106,2.3106,2.3106,2.3106,2.3106,2.3106,2.3106,2.3106,2.3106,2.3106,2.3106,2.3106,2.3106,2.2606,2.1272,1.9865,1.8524,1.7173,1.5769,1.4866,1.4735,1.4539,1.4473,1.4539,1.4137,1.4006,1.4202,1.3884,1.3621,1.3367,1.3235,1.3038,1.2774,1.2774,1.2774,1.2774,1.2774,1.2774,2.1715,2.1964,2.2213,2.2213,2.2432,2.2652,2.2652,2.2886,2.3106,2.3106,2.3106,2.312,0.0,0.0,2.3223,2.3559,2.3603,2.3706,2.4042,2.4086,2.4086,0.0,0.0,0.0,0.0,0.0,0.0,2.4159,0.0,2.4665,2.4665,2.4958,2.5119,2.5119,2.5119,2.5119,2.5119,2.5119,2.5119,2.5119,2.4713,2.4495,2.4428,2.4088,2.3952,2.3952,2.3952,2.3952,2.3884,2.3543,2.3338,2.3338,2.3338,2.3338,2.3406,2.3816,2.3966,2.402,2.4374,2.4713,2.5052,2.5119,2.4914,2.4665,2.4665,2.4364,2.4101,2.4101,2.4101,2.4013,2.3706,2.3618,2.3545,2.3237,2.3149,2.3135,2.3135,2.312,2.3106,2.3106,2.3106,2.3106,2.3106,2.3106,2.3106,2.2981,2.2981,2.2543,2.1335,1.9928,1.8524,1.7238,1.5769,1.4735,1.4408,1.4342,1.4211,1.394,1.3875,1.3875,1.3875,1.3564,1.3367,1.3367,1.2972,1.2774,1.2774,1.2774,1.2774,1.2774,1.2774,1.2774,2.2052,2.2271,2.2506,2.2506,2.2754,2.2988,2.2988,2.3047,2.3106,2.3106,2.3106,2.3179,2.3427,2.3267,0.0,2.3866,2.3749,0.0,2.4042,2.4086,0.0,2.4423,0.0,2.454,2.4855,2.4943,0.0,0.0,2.4958,2.5002,2.5002,2.5075,2.5119,2.5119,2.5119,2.5119,2.5119,2.5119,2.5119,2.5119,2.4713,2.436,2.4088,2.3747,2.3406,2.3201,2.3201,2.3201,2.3133,2.3065,2.2996,2.2996,2.2996,2.2996,2.3065,2.3133,2.3338,2.3611,2.3952,2.4374,2.4713,2.4984,2.5061,2.5002,2.5002,2.4767,2.4437,2.4437,2.4276,2.4057,2.3984,2.3954,2.394,2.3852,2.3647,2.3471,2.3471,2.3281,2.3106,2.3106,2.3106,2.3106,2.3106,2.3106,2.2793,2.1776,2.1587,2.1839,2.2543,2.05,1.8844,1.8524,1.6084,1.4473,1.4408,1.3949,1.3752,1.3875,1.3358,1.3227,1.3498,1.3169,1.2972,1.2972,1.284,1.2774,1.2774,1.2774,1.2774,1.2774,1.2774,1.2774,2.2374,2.2593,2.2842,2.2842,2.2974,2.3106,2.3106,2.3106,2.3106,2.3106,2.3223,2.3384,2.3559,2.3559,2.3706,2.4218,2.4145,0.0,2.4466,2.451,2.4583,0.0,2.4855,0.0,2.5105,2.5119,2.5119,0.0,2.5119,2.5119,2.5119,2.5119,2.5119,2.5119,2.5119,2.5119,2.5119,2.5119,2.4984,2.4849,2.457,2.4299,2.3956,2.3679,2.3469,2.333,0.0,2.3073,2.306,2.2926,2.2928,2.2928,2.2928,2.2928,2.2928,2.2928,2.2996,2.3201,2.3611,2.3884,2.4088,2.4645,2.4984,2.5052,2.4916,2.4853,2.4855,2.4855,2.4657,2.4481,2.4335,2.4291,2.4262,2.4115,2.394,2.3808,2.3808,2.3662,2.353,2.353,2.353,2.353,2.353,2.3006,2.229,2.1585,2.0735,2.0476,2.125,1.9297,1.7882,1.7882,1.5694,1.4146,1.3949,1.363,1.3433,1.3424,1.303,1.2906,1.3104,1.2906,1.2774,1.2774,1.2774,1.2774,1.2774,1.2774,1.2774,1.2774,1.2774,1.2774,2.2681,2.2901,2.3106,2.3106,2.3106,2.3106,2.3106,2.3106,2.312,2.3164,2.3398,2.3618,2.3706,2.3925,2.4203,2.4569,2.4598,2.4753,2.5075,2.5119,2.5119,2.5119,2.5119,2.5119,2.5119,2.5119,2.5119,2.5119,2.5119,2.5119,2.5119,2.5119,2.5119,2.5119,2.5119,2.5119,2.5119,2.5163,2.4975,2.4567,2.4468,2.4261,2.3926,2.386,2.3768,2.3754,0.0,0.0,2.3367,2.31,2.2966,2.2926,2.2926,2.2899,2.2928,2.2928,2.2928,2.2928,2.327,2.3406,2.3543,2.4224,2.4645,2.4916,2.4578,2.4713,2.4984,2.4984,2.5052,2.4993,2.4701,2.4627,2.4569,2.4211,2.4108,2.4079,2.4014,2.405,2.4021,2.4086,2.4086,2.4086,2.4021,2.2818,2.174,2.1476,1.9941,1.8675,1.8474,1.7324,1.6501,1.6501,1.4913,1.3721,1.3467,1.3384,1.3169,1.284,1.2774,1.2774,1.2774,1.2774,1.2774,1.2774,1.2774,1.2774,1.2774,1.2774,1.2774,1.2774,1.2774,1.2774,2.3018,2.3062,2.3106,2.3106,2.3106,2.3106,2.3106,2.3106,2.3179,2.3457,2.3559,2.3764,2.4305,2.4232,2.4276,2.4943,2.4811,2.4753,2.5075,2.5119,2.5119,0.0,2.5119,2.5119,2.5119,2.5119,0.0,0.0,0.0,2.5119,2.5119,2.5119,2.5119,2.5119,2.5119,2.5119,2.5119,2.5315,2.5241,2.4813,2.4792,2.4594,2.4255,2.3954,2.3768,2.3768,0.0,0.0,2.3688,2.3634,2.346,2.3247,2.3247,2.3086,2.2928,2.2928,2.2928,2.2928,2.327,2.3406,2.3475,2.3952,2.417,2.4224,2.4442,2.4563,2.4578,2.4578,2.4849,2.5037,2.4641,2.4762,2.4882,2.4487,2.4204,2.3951,2.3686,2.3605,2.3681,2.4021,2.4086,2.4021,2.3681,2.2411,2.0948,1.9487,1.7948,1.6543,1.5341,1.5943,1.649,1.649,1.4803,1.3653,1.3587,1.3186,1.284,1.2774,1.2774,1.2774,1.2774,1.2774,1.2774,1.2774,1.2774,1.2774,1.2774,1.2774,1.2774,1.2774,1.2774,1.2774,2.2918,2.2606,2.2215,2.2918,2.3106,2.2918,2.2215,2.2153,2.2257,2.2524,2.2804,2.3323,2.4378,2.4583,2.4753,2.5075,2.4987,2.4943,2.5105,2.5119,2.5119,2.5119,2.5119,2.5119,2.5119,2.5119,2.5119,0.0,0.0,2.5119,2.5119,2.5119,2.5119,2.5119,2.5213,2.5301,2.5301,2.5415,2.5281,2.4862,2.4832,2.4627,2.4282,2.4227,2.4222,2.4209,2.4062,0.0,2.3981,2.3834,2.3688,2.3541,2.338,2.3233,2.3086,2.2926,2.2928,2.2928,2.3065,2.3133,2.3201,2.3338,2.3679,2.4034,2.4156,2.4224,2.4292,2.4428,2.4645,2.4713,2.4563,2.4645,2.4713,2.4563,2.4381,2.4266,2.4348,2.4152,2.4118,2.4251,2.3504,2.2821,2.262,2.0693,1.8925,1.8114,1.654,1.5241,1.4562,1.4823,1.515,1.5155,1.4172,1.351,1.351,1.3233,1.3116,1.3116,1.3116,1.3116,1.3116,1.3116,1.3116,1.3116,1.3116,1.3116,1.3116,1.3116,1.3116,1.3116,1.3116,1.2982,2.2466,2.209,2.1713,2.248,2.2918,2.2745,2.1479,2.1299,2.1499,2.1748,2.2137,2.2888,2.4457,2.4943,2.5119,2.5119,2.5119,2.5119,2.5119,2.5119,2.5119,2.5119,2.5119,0.0,2.5119,2.5119,0.0,0.0,0.0,0.0,2.5119,2.5125,2.5154,2.5154,2.5461,2.5568,2.5499,2.5524,2.5257,2.4846,2.4805,2.458,2.4302,2.4529,2.4636,2.4623,2.4396,0.0,0.0,2.4048,2.3915,2.3834,2.3607,2.3434,2.33,2.3046,2.2926,2.2928,2.2928,2.2928,2.2928,2.2928,2.327,2.3747,2.3816,2.3884,2.3952,2.4156,2.436,2.4428,2.4292,2.436,2.4495,2.4442,2.4292,2.4292,2.4781,2.4578,2.4156,2.3952,2.2696,2.1584,2.1158,1.8938,1.7117,1.7047,1.5523,1.4403,1.4403,1.4118,1.3869,1.393,1.3656,1.3433,1.3433,1.3392,1.3368,1.3368,1.3368,1.3368,1.3368,1.3368,1.3368,1.3368,1.3368,1.3368,1.3368,1.3368,1.3368,1.3368,1.3299,1.3093,2.1587,2.209,2.2668,2.1587,2.2215,2.2803,2.1622,2.1381,2.1553,2.2205,2.2352,2.2943,2.4747,2.5105,2.5119,2.5119,2.5119,2.5119,2.5119,2.5119,2.5119,2.5119,2.5119,0.0,2.5119,2.5119,0.0,0.0,0.0,0.0,2.5119,2.533,2.5491,2.5491,2.5798,2.5763,2.5397,2.5712,2.5439,2.4733,2.5048,2.4964,2.4596,2.4623,2.4636,2.4636,2.4609,0.0,0.0,2.4569,2.4396,2.4155,2.4128,2.3794,2.3327,2.33,2.31,2.2928,2.2928,2.2928,2.2928,2.2928,2.2928,2.3065,2.3338,2.3475,2.3475,2.3475,2.3952,2.436,2.3679,2.402,2.4428,2.4088,2.3543,2.327,2.3966,2.3816,2.3188,2.2147,2.179,2.1158,1.9484,1.7819,1.6635,1.6291,1.4884,1.3975,1.3975,1.3904,1.3888,1.3926,1.3709,1.355,1.355,1.3465,1.3368,1.3368,1.3368,1.3368,1.3368,1.3368,1.3368,1.3368,1.3368,1.3368,1.3368,1.3368,1.3368,1.3368,1.3025,1.2819,2.1019,2.0879,2.05,1.9992,2.0298,2.0451,1.9214,1.9092,1.9361,1.9764,2.0612,2.1787,2.342,2.4495,2.5119,2.5119,2.5119,2.5119,2.5119,2.5119,2.5119,2.5119,2.5119,2.5119,0.0,0.0,2.5119,0.0,0.0,0.0,2.5344,2.5461,2.5622,2.5813,2.5923,2.5869,2.5727,2.5536,2.534,2.4975,2.4877,2.4784,2.4636,2.4636,2.4636,2.4636,2.4636,0.0,0.0,2.4636,2.4569,2.4449,2.4275,2.3955,2.3567,2.3394,2.3126,2.2928,2.2928,2.2928,2.2928,2.2928,2.2928,2.2928,2.327,2.327,2.3133,2.3338,2.3611,2.3747,2.3475,2.3611,2.3816,2.3679,2.3406,2.3338,2.3884,2.2983,2.1941,2.1527,1.9704,1.81,1.7328,1.6009,1.4955,1.4813,1.4252,1.3904,1.3904,1.3904,1.3904,1.3904,1.3839,1.3798,1.3798,1.3734,1.3693,1.3693,1.3693,1.3693,1.3693,1.3693,1.3693,1.3693,1.3693,1.3693,1.3693,1.3482,1.3333,1.3333,1.2982,1.2708,1.9865,1.9737,1.9419,1.8588,1.8841,1.8989,1.7686,1.763,1.8067,1.8672,1.9784,2.1227,2.3106,2.436,2.5119,2.5119,2.5119,2.5119,2.5119,2.5119,2.5119,2.5119,2.5119,2.5119,0.0,2.5119,2.5163,0.0,0.0,0.0,2.5813,2.5673,2.5705,2.5937,2.6042,2.5912,2.5695,2.5336,2.5152,2.5005,2.471,2.4636,2.4636,2.4636,2.4636,2.4636,0.0,0.0,0.0,2.4636,2.4636,2.4609,2.4409,2.4155,2.3861,2.3567,2.326,2.2993,2.2968,2.2928,2.2928,2.2928,2.2928,2.2928,2.3201,2.3065,2.2928,2.3201,2.327,2.327,2.3338,2.3338,2.327,2.3406,2.2983,2.2709,2.3051,2.1734,2.0271,1.9785,1.776,1.5938,1.5523,1.4608,1.3904,1.3904,1.3904,1.3904,1.3904,1.3904,1.3904,1.3904,1.3904,1.3904,1.3904,1.3904,1.3904,1.3904,1.3904,1.3904,1.3904,1.3904,1.3904,1.3904,1.3761,1.3682,1.3682,1.3325,1.3182,1.3111,1.2753,1.2402,1.7806,1.9024,2.0436,1.7678,1.8193,1.9024,1.7827,1.7737,1.8386,2.02,2.0593,2.1502,2.4495,2.5119,2.5119,2.5119,2.5119,2.5119,2.5119,2.5119,2.5119,2.5119,2.5119,2.5119,2.5119,2.5119,2.5183,0.0,0.0,0.0,2.6457,2.6128,2.5913,2.5913,2.6228,2.6019,2.5226,2.5226,2.5005,2.4636,2.4636,2.4636,2.4636,2.4636,2.4636,0.0,0.0,0.0,0.0,2.4636,2.4636,2.4636,2.4636,2.4449,2.4168,2.3875,2.3581,2.3273,2.2966,2.2928,2.2928,2.2928,2.2928,2.2928,2.2928,2.2928,2.2928,2.2928,2.2928,2.2996,2.3338,2.3133,2.2996,2.3338,2.1953,2.0768,2.1113,1.9785,1.7959,1.6433,1.615,1.5664,1.4181,1.3904,1.3904,1.3904,1.3904,1.3904,1.3904,1.3904,1.3904,1.3904,1.3904,1.3904,1.3904,1.3904,1.3904,1.3904,1.3904,1.3904,1.3904,1.3904,1.3904,1.3904,1.3539,1.3325,1.3325,1.2968,1.2824,1.2824,1.2409,1.1979,1.7238,1.7613,1.7916,1.6201,1.6281,1.6716,1.6461,1.6609,1.6927,1.7479,1.9228,2.0882,2.1846,2.3734,2.5119,2.5119,2.5119,2.5119,2.5119,2.5119,2.5119,2.5119,2.5119,2.5119,0.0,0.0,0.0,0.0,0.0,0.0,2.5683,2.5751,2.5951,2.6242,2.5831,2.5446,2.5226,2.4931,2.471,2.4636,2.4636,2.4636,2.4636,2.4636,0.0,0.0,0.0,0.0,0.0,2.4636,2.4636,2.4636,2.4636,2.4462,2.4195,2.4102,2.3754,2.3313,2.3207,2.3046,2.2928,2.2928,2.2928,2.2928,2.2928,2.2928,2.2928,2.2928,2.2928,2.2928,2.2996,2.2996,2.2654,2.1747,2.1044,2.0352,1.9507,1.797,1.6705,1.6221,1.531,1.4466,1.3975,1.3904,1.3904,1.3904,1.3904,1.3904,1.3904,1.3904,1.3904,1.3904,1.3904,1.3904,1.3904,1.3904,1.3904,1.3904,1.3904,1.3904,1.3904,1.3611,1.3468,1.3468,1.3111,1.2968,1.2968,1.2545,1.2259,1.1972,1.1835,1.1181,1.6213,1.6655,1.6825,1.5528,1.5451,1.5775,1.5898,1.6027,1.6391,1.6946,1.8949,2.0743,2.1365,2.3447,2.5119,2.5119,2.5119,2.5119,2.5119,2.5119,2.5052,2.4916,2.4849,0.0,0.0,2.4991,0.0,0.0,0.0,0.0,2.5506,2.5556,2.5653,2.596,2.5446,2.5152,2.5005,2.471,2.4636,2.4636,2.4636,2.4636,2.4636,2.4636,0.0,0.0,0.0,0.0,0.0,2.4636,2.4636,2.4636,2.4636,2.4529,2.4356,2.4249,2.3901,2.3474,2.3367,2.3126,2.2928,2.2928,2.2928,2.2928,2.2928,2.2928,2.2928,2.2928,2.2928,2.2791,2.216,2.2022,2.1678,2.0132,1.9298,1.867,1.776,1.6362,1.5239,1.5239,1.4537,1.3904,1.3904,1.3904,1.3904,1.3904,1.3904,1.3904,1.3904,1.3904,1.3904,1.3904,1.3904,1.3904,1.3904,1.3904,1.3833,1.3682,1.3682,1.3611,1.3468,1.3253,1.3111,1.3111,1.276,1.2545,1.2545,1.2194,1.1835,1.1619,1.1619,1.0743,0.0,1.6004,1.6817,1.5586,1.5564,1.5936,1.5946,1.6037,0.0,1.8131,1.9576,2.102,2.2545,2.4074,2.5119,2.5119,2.5119,2.5119,2.5119,2.5119,2.4984,2.4578,2.4495,0.0,2.4455,2.4428,0.0,0.0,0.0,0.0,2.5712,2.5373,2.5152,2.5152,2.5152,2.5005,2.4636,2.4636,2.4636,2.4636,2.4636,2.4636,2.4636,2.4636,0.0,0.0,0.0,0.0,0.0,2.4636,2.4636,2.4636,2.4636,2.4636,2.4609,2.4329,2.4048,2.3754,2.346,2.3153,2.2954,2.2941,2.2928,2.2928,2.2928,2.2928,2.2859,2.2791,2.2722,2.2379,2.0837,2.0421,2.0074,1.8589,1.7127,1.6079,1.5947,1.4884,1.3904,1.3904,1.3904,1.3904,1.3904,1.3904,1.3904,1.3904,1.3904,1.3904,1.3904,1.3904,1.3904,1.3904,1.3904,1.3904,1.3833,1.3833,1.3682,1.3325,1.3253,1.3111,1.2824,1.2753,1.2753,1.2753,1.233,1.2122,1.2122,1.1691,1.1476,1.1397,1.1325,1.0462,1.512,0.0,1.5672,1.5509,1.5668,1.5974,0.0,1.615,1.6603,1.8131,1.9576,2.102,2.2545,2.4074,2.5119,2.5119,2.5119,2.5119,2.5119,2.5119,2.5052,2.4984,2.4713,2.4556,2.4732,2.4764,0.0,0.0,0.0,2.5144,2.4918,2.4784,2.471,2.471,2.471,2.471,2.4636,2.4636,2.4636,2.4636,2.4636,2.4636,2.4636,2.4636,0.0,0.0,0.0,0.0,2.4636,2.4636,2.4636,2.4636,2.4636,2.4636,2.4549,2.4556,2.4356,2.4062,2.3768,2.3474,2.318,2.2939,2.2928,2.2928,2.2928,2.2928,2.2654,2.1459,2.1113,2.0768,1.9298,1.8949,1.8519,1.6987,1.6362,1.5797,1.4679,1.411,1.3904,1.3904,1.3904,1.3904,1.3904,1.3904,1.3904,1.3904,1.3904,1.3904,1.3904,1.3904,1.3904,1.3904,1.3904,1.3761,1.3468,1.3468,1.3396,1.3325,1.3039,1.2896,1.2824,1.2474,1.2338,1.2338,1.1979,1.1763,1.1763,1.0455,0.9873,0.9801,0.8636,0.7229,1.5205,1.5768,1.6298,1.5845,1.6402,1.6867,1.6362,1.6734,1.7439,1.8272,2.0132,2.1846,2.2682,2.3379,2.4088,2.4984,2.4224,2.387,2.4713,2.4984,2.4984,2.4645,2.4374,2.4271,0.0,0.0,0.0,0.0,0.0,2.4857,2.4636,2.4636,2.4636,2.4636,2.4636,2.4636,2.4636,2.4636,2.4636,2.4636,2.4636,2.4636,2.4636,2.4636,2.4636,0.0,0.0,0.0,2.4636,2.4636,2.4636,2.4636,2.4636,2.4636,2.4636,2.4636,2.4449,2.4182,2.4022,2.3688,2.3273,2.2966,2.2928,2.2791,2.2022,2.1816,2.1678,2.0837,2.0132,1.9228,1.776,1.7338,1.6987,1.5452,1.5097,1.4884,1.4039,1.3904,1.3904,1.3904,1.3904,1.3904,1.3904,1.3904,1.3904,1.3904,1.3904,1.3904,1.3904,1.3904,1.3904,1.3904,1.3753,1.3539,1.3325,1.2968,1.2832,1.2832,1.2617,1.2474,1.2259,1.2051,1.1907,1.1907,1.1691,1.1214,1.0547,0.9736,0.8962,0.8274,0.746,0.6234,1.5577,1.6732,1.7527,1.6225,1.6987,1.778,1.6744,1.751,1.8552,1.896,2.1032,2.2819,2.3024,2.2901,2.3243,2.4781,2.3393,2.2696,2.4224,2.4713,2.4713,2.4088,2.3966,0.0,2.3856,0.0,0.0,0.0,0.0,2.4636,2.4636,2.4636,2.4636,2.4636,2.4636,2.4636,2.4636,2.4636,2.4636,2.4636,2.4636,2.4636,2.4636,2.4636,2.4636,0.0,0.0,0.0,2.4636,2.4636,2.4636,2.4636,2.4636,2.4636,2.4636,2.4636,2.4476,2.4262,2.4222,2.3821,2.3217,2.2799,2.2625,2.2229,2.0698,2.0074,1.9935,1.9935,1.9019,1.7689,1.615,1.5726,1.5452,1.4181,1.3904,1.3904,1.3904,1.3904,1.3904,1.3904,1.3904,1.3904,1.3904,1.3904,1.3904,1.3904,1.3904,1.3904,1.3904,1.3833,1.3833,1.3833,1.3468,1.3182,1.3111,1.2545,1.2058,1.1791,1.1993,1.1979,1.1619,1.1352,1.1214,1.1214,1.1017,1.028,0.8976,0.8681,0.7983,0.6717,0.6488,0.5669,1.7219,1.7823,1.7728,1.6263,1.6228,1.6815,1.7851,1.8272,1.91,2.1584,2.2477,2.3092,2.4074,2.4495,2.4631,2.4578,2.4292,2.4088,2.4102,2.417,2.417,2.4034,0.0,2.3653,0.0,0.0,0.0,0.0,0.0,2.4636,2.4636,2.4636,2.4636,2.4636,2.4636,2.4636,2.4636,2.4636,2.4636,2.4636,2.4636,2.4636,2.4636,2.4636,2.4636,0.0,0.0,2.4636,2.4636,2.4636,2.4636,2.4636,2.4636,2.4636,2.4636,2.4636,2.4609,2.4529,2.4289,2.3821,2.3104,2.1765,2.1172,2.0698,1.9228,1.783,1.6785,1.6785,1.6644,1.6079,1.4608,1.4252,1.4181,1.3975,1.3904,1.3904,1.3904,1.3904,1.3904,1.3904,1.3904,1.3904,1.3904,1.3904,1.3904,1.3904,1.3904,1.3904,1.3904,1.3611,1.3396,1.3396,1.3111,1.2753,1.2409,1.2266,1.1523,0.9877,1.0957,1.1691,1.1619,1.0341,0.9663,0.9663,0.8424,0.7655,0.7444,0.6098,0.528,0.5063,0.3706,0.3045,1.7607,1.759,1.7276,1.8229,1.7907,1.7369,1.7228,1.7851,1.903,2.1158,2.2271,2.3174,2.4292,2.3802,2.3038,2.249,2.3393,2.4088,2.3747,2.3884,2.3898,0.0,0.0,2.3761,0.0,0.0,0.0,0.0,0.0,0.0,2.4636,2.4636,2.4636,2.4636,2.4636,2.4636,2.4636,2.4636,2.4636,2.4636,2.4636,2.4636,2.4636,2.4636,2.4636,2.4636,0.0,2.4636,2.4636,2.4636,2.4636,2.4636,2.4636,2.4636,2.4636,2.4636,2.4636,2.4449,2.334,2.2696,2.2169,2.0494,1.9776,1.929,1.7795,1.6732,1.5947,1.5168,1.4884,1.475,1.411,1.3904,1.3904,1.3904,1.3904,1.3904,1.3904,1.3904,1.3904,1.3904,1.3904,1.3904,1.3904,1.3904,1.3904,1.3904,1.3682,1.3611,1.3611,1.3253,1.3039,1.3039,1.2763,1.2525,1.2315,1.1364,1.0737,1.0651,0.9702,0.956,1.0455,0.8943,0.8146,0.8146,0.7444,0.6661,0.5869,0.5111,0.429,0.3473,0.278,0.248,1.8125,1.7715,1.7429,2.0397,1.9785,1.8201,1.7429,1.8401,1.9715,2.0882,2.2203,2.3447,2.436,2.3256,2.2078,2.1459,2.2777,2.3747,2.3338,2.3543,2.3611,0.0,0.0,0.0,0.0,0.0,0.0,0.0,0.0,0.0,2.4636,2.4636,2.4636,2.4636,2.4636,2.4636,2.4636,2.4636,2.4636,2.4636,2.4636,2.4636,2.4636,2.4636,2.4636,2.4636,2.4636,2.4636,2.4636,2.4636,2.4636,2.4636,2.4636,2.4636,2.4636,2.4636,2.4341,2.3844,2.2362,2.1591,2.0908,1.9084,1.8363,1.797,1.6383,1.5849,1.5444,1.4305,1.3993,1.3953,1.3912,1.3904,1.3904,1.3904,1.3904,1.3904,1.3904,1.3904,1.3904,1.3904,1.3904,1.3904,1.3904,1.3904,1.3904,1.3753,1.3468,1.3269,1.3236,1.2956,1.2755,1.272,1.2474,1.2178,1.1804,0.9772,0.9125,1.0675,0.8487,0.769,0.8975,0.741,0.6592,0.6592,0.6232,0.5434,0.4251,0.4251,0.3576,0.2357,0.2357,0.2278,1.9611,1.9356,1.896,2.1915,2.0479,1.8751,1.9982,2.1433,2.2545,2.2614,2.3597,2.4428,2.4495,2.4156,2.3816,2.3747,2.3611,2.3338,2.2996,0.0,2.2996,0.0,0.0,0.0,0.0,0.0,0.0,0.0,0.0,0.0,2.4636,2.4636,2.4636,2.4636,2.4636,2.4636,2.4636,2.4636,2.4636,2.4636,2.4636,2.4636,2.4636,2.4636,2.4636,2.4636,2.4636,2.4636,2.4636,2.4636,2.4636,2.4636,2.4636,2.4636,2.4636,2.4636,2.3661,2.2372,2.2198,2.1066,1.9308,1.7728,1.7064,1.6535,1.4999,1.4547,1.4465,1.4391,1.4278,1.4115,1.3945,1.3904,1.3904,1.3904,1.3904,1.3904,1.3904,1.3904,1.3904,1.3904,1.3904,1.3904,1.3904,1.3904,1.3753,1.3396,1.3325,1.3236,1.3042,1.2692,1.2457,1.2607,1.2338,1.1518,0.9938,0.6933,0.5832,0.7511,0.7284,0.7164,0.7239,0.58,0.4992,0.4992,0.358,0.2743,0.2667,0.2667,0.2433,0.1964,0.1964,0.1728,1.998,1.9507,1.9309,2.3243,2.1996,1.9912,2.0467,2.102,2.1709,2.2614,2.2969,2.3324,2.4088,2.3679,2.3406,2.3611,2.3338,2.3065,2.2928,2.2928,2.2928,0.0,0.0,0.0,0.0,0.0,0.0,0.0,0.0,0.0,0.0,2.4636,2.4636,2.4636,2.4636,2.4636,2.4636,2.4636,2.4636,2.4636,2.4636,2.4636,2.4636,2.4636,2.4636,2.4636,2.4636,2.4636,2.4636,2.4636,2.4636,2.4636,2.4636,2.3957,2.3129,2.3129,2.2073,2.0564,1.9585,1.8779,1.7888,1.6299,1.5647,1.5342,1.4752,1.4521,1.4432,1.4432,1.4383,1.4294,1.4115,1.3985,1.3904,1.3904,1.3904,1.3904,1.3904,1.3904,1.3904,1.3904,1.3993,1.4002,1.3778,1.38,1.3725,1.3286,1.2993,1.2868,1.2779,1.2416,1.2222,1.2277,1.1302,0.9634,0.6945,0.5661,0.4748,0.4362,0.4265,0.4717,0.5717,0.4195,0.3352,0.3352,0.282,0.2357,0.2121,0.2121,0.1886,0.1493,0.1493,0.1414,2.0073,1.9843,1.9924,2.3529,2.3174,2.1996,2.1996,2.1996,2.2203,2.2682,2.2969,2.3324,2.3747,2.3475,2.327,0.0,2.3133,2.2928,2.2928,2.2928,2.2928,0.0,0.0,0.0,0.0,0.0,0.0,0.0,0.0,0.0,0.0,2.4636,2.4636,0.0,2.4636,2.4636,2.4636,2.4636,2.4636,2.4636,2.4636,2.4636,2.4636,2.4636,2.4636,2.4636,2.4636,2.4636,2.4636,2.4636,2.4636,2.4562,2.4031,2.3203,2.2148,2.1625,2.0414,1.8905,1.7778,1.7102,1.6492,1.5344,1.4887,1.4789,1.4789,1.47,1.4603,1.4603,1.4562,1.4489,1.4375,1.4205,1.4066,1.4066,1.4066,1.3994,1.393,1.4002,1.3994,1.3713,1.3881,1.3969,1.3529,1.3547,1.3475,1.3103,1.2806,1.2604,1.2503,1.1828,1.1158,1.0672,0.9218,0.7362,0.5167,0.4547,0.3687,0.2592,0.2514,0.2983,0.4155,0.314,0.2435,0.2278,0.2278,0.2121,0.1728,0.1728,0.1493,0.1099,0.1099,0.1021,1.9843,2.0593,2.0951,2.2477,2.3938,2.5052,2.5119,2.5119,2.4631,2.3092,2.4006,2.4713,2.3611,2.3747,0.0,2.3475,2.3133,2.2928,2.2928,2.2928,2.2928,0.0,0.0,0.0,0.0,0.0,0.0,0.0,0.0,0.0,0.0,2.4636,2.4636,0.0,2.4636,2.4636,2.4636,2.4636,2.4636,2.4636,2.4636,2.4636,2.4636,2.4636,2.4636,2.4636,2.4636,2.4562,2.4562,2.4562,2.4562,2.4414,2.2831,2.2148,2.1999,2.0338,1.8754,1.7407,1.7407,1.6339,1.4968,1.4968,1.4968,1.4968,1.4968,1.4968,1.4968,1.4968,1.4846,1.4708,1.4708,1.457,1.4432,1.4432,1.4358,1.4284,1.3847,1.4144,1.4136,1.3327,1.3557,1.3706,1.326,1.3185,1.3036,1.2664,1.2582,1.2496,1.2347,1.0826,0.9177,0.7661,0.603,0.5014,0.5014,0.3454,0.2514,0.2514,0.2514,0.2514,0.2514,0.2514,0.2278,0.1886,0.1886,0.1728,0.1256,0.1256,0.1021,0.0628,0.0628,0.0393,2.1915,2.2121,2.2545,2.4074,2.3938,2.3802,2.4849,2.5119,2.4849,2.3884,2.3816,2.3816,2.3475,2.327,0.0,2.3406,2.3133,2.2928,2.2928,2.3046,2.3193,2.3193,0.0,0.0,0.0,0.0,0.0,0.0,0.0,0.0,0.0,2.4636,2.4636,0.0,2.4636,2.4636,2.4636,2.4636,2.4636,2.4636,2.4636,2.4636,2.4636,2.4636,2.4636,2.4636,2.4636,2.3957,2.2905,2.2905,2.2223,2.1325,2.1924,2.0789,1.8754,1.8309,1.7093,1.5727,1.5727,1.542,1.4968,1.4968,1.4968,1.4968,1.4968,1.4968,1.4968,1.4968,1.4927,1.4818,1.4589,1.4473,1.4302,1.4058,1.3995,1.3847,1.3475,1.3475,1.3475,1.3252,1.3417,1.3424,1.3054,1.3065,1.2984,1.2602,1.2525,1.2079,1.0803,0.9258,0.7558,0.5949,0.5327,0.4547,0.3376,0.2749,0.2357,0.2121,0.2043,0.2043,0.2043,0.2043,0.1886,0.1493,0.1493,0.1256,0.0785,0.0785,0.0628,0.0157,0.0157,0.0079,2.1915,2.2327,2.3024,2.3938,2.3938,2.3938,2.4713,2.4849,2.4645,2.3884,2.3679,2.3543,2.327,2.3133,0.0,2.3201,2.2996,0.0,2.2928,2.3126,2.3327,2.3327,0.0,0.0,0.0,0.0,0.0,0.0,0.0,0.0,0.0,2.4636,2.4636,0.0,2.4636,2.4636,2.4636,2.4636,2.4636,2.4636,2.4636,2.4636,2.4636,2.4636,2.4636,2.4562,2.3957,2.2744,2.1239,2.1239,2.0714,1.9811,2.0188,1.9132,1.7331,1.6721,1.5803,1.4968,1.4968,1.4968,1.4968,1.4968,1.4968,1.4968,1.4968,1.4891,1.4737,1.4737,1.4661,1.443,1.4207,1.413,1.4084,1.3801,1.3748,1.3672,1.322,1.3295,1.3295,1.2993,1.3141,1.3206,1.2831,1.2832,1.2579,1.1643,1.094,0.9925,0.821,0.7119,0.5874,0.4155,0.3999,0.3531,0.2357,0.2278,0.2121,0.165,0.165,0.1571,0.1414,0.1571,0.1493,0.1021,0.1021,0.0785,0.0393,0.0393,0.0236,0.0,0.0,0.0,2.102,2.1984,2.3024,2.3024,2.4074,2.4984,2.4563,2.4428,2.4224,2.3543,2.3679,2.3679,2.2996,2.3133,2.327,2.2928,2.2928,0.0,0.0,0.0,2.338,0.0,0.0,0.0,0.0,0.0,0.0,0.0,0.0,0.0,0.0,2.4636,2.4636,2.4636,2.4636,2.4636,2.4636,2.4636,2.4636,0.0,2.4636,2.4636,2.4636,2.4636,2.4488,2.4253,2.2521,2.0939,1.9585,1.9585,1.951,1.9208,1.793,1.7331,1.7026,1.5573,1.4968,1.4968,1.4968,1.4968,1.4968,1.4891,1.4891,1.4891,1.4891,1.4669,1.4368,1.4368,1.4053,1.3667,1.3667,1.3667,1.3667,1.359,1.3583,1.3513,1.312,1.3351,1.3351,1.2656,1.2811,1.2888,1.2347,1.2269,1.1721,1.0008,0.837,0.6733,0.517,0.4857,0.4155,0.2671,0.2435,0.2278,0.1964,0.1886,0.165,0.1256,0.1256,0.1021,0.055,0.1021,0.1021,0.055,0.055,0.0393,0.0,0.0,0.0,0.0,0.0,0.0,2.4142,2.436,2.4631,2.4631,2.4849,2.4916,2.4238,2.4102,2.3952,2.3475,2.327,2.3065,2.2928,2.2928,2.2996,2.2928,2.2928,2.2953,0.0,0.0,0.0,0.0,0.0,0.0,0.0,0.0,0.0,0.0,0.0,0.0,2.4636,2.4636,0.0,2.4636,2.4636,2.4636,2.4636,2.4636,2.4636,0.0,2.4636,2.4636,2.4636,2.4636,2.3883,2.2521,1.9661,1.8234,1.793,1.793,1.7169,1.6101,1.7017,1.6644,1.5497,1.5122,1.4968,1.4968,1.4669,1.4515,1.4438,1.413,1.3968,1.3968,1.3968,1.3898,1.3821,1.3821,1.3744,1.366,1.3274,1.3197,1.312,1.2811,1.2965,1.312,1.2733,1.2733,1.2733,1.2501,1.2579,1.2185,1.0785,1.0552,1.0003,0.8292,0.6577,0.5405,0.5014,0.3844,0.2905,0.2514,0.22,0.1964,0.1886,0.165,0.1256,0.0785,0.0785,0.055,0.0157,0.055,0.055,0.0157,0.0157,0.0079,0.0,0.0,0.0,0.0,0.0,0.0,2.421,2.4563,2.5052,2.4849,2.4781,2.4645,2.4088,2.3816,2.3679,2.3406,2.3133,2.2928,2.2928,2.2928,2.2928,2.2928,2.2993,2.314,2.33,0.0,0.0,0.0,0.0,0.0,0.0,0.0,0.0,0.0,0.0,2.4636,2.4636,2.4636,2.4636,2.4636,2.4636,2.4636,2.4636,2.4636,2.4636,2.4636,2.4636,2.4179,2.3426,2.3426,2.2148,1.9811,1.8158,1.695,1.6262,1.6262,1.5727,1.5045,1.5956,1.565,1.4745,1.4745,1.4584,1.4353,1.413,1.4053,1.4053,1.3744,1.3667,1.3667,1.3667,1.3583,1.3428,1.3428,1.3274,1.3042,1.2888,1.2811,1.2733,1.2579,1.2656,1.2733,1.2579,1.2501,1.2269,1.1488,1.1327,1.0785,0.9071,0.8136,0.7275,0.642,0.486,0.3766,0.3766,0.2905,0.22,0.22,0.1886,0.1493,0.1335,0.1099,0.0785,0.0314,0.0314,0.0236,0.0,0.0236,0.0236,0.0,0.0,0.0,0.0,0.0,0.0,0.0,0.0,0.0,2.3515,2.4142,2.4984,2.4713,2.4563,2.4442,2.4102,2.3679,2.3406,2.3338,2.3065,2.2928,2.2928,2.2928,2.2954,2.2939,2.3153,2.3367,2.346,0.0,0.0,0.0,0.0,0.0,0.0,0.0,0.0,0.0,0.0,2.4636,2.4636,2.4636,2.4636,2.4636,2.4636,2.4636,2.4636,2.4636,2.4636,2.4636,2.4327,2.3203,2.1389,2.1314,1.9811,1.7245,1.695,1.6033,1.4814,1.4814,1.4814,1.4814,1.4814,1.4584,1.4284,1.4284,1.4053,1.3667,1.3583,1.359,1.359,1.3505,1.3505,1.3505,1.3505,1.3274,1.2965,1.2965,1.2733,1.2501,1.2501,1.2269,1.203,1.203,1.1876,1.1721,1.203,1.203,1.1566,0.9925,0.9304,0.8682,0.7279,0.5639,0.4544,0.4466,0.3295,0.2357,0.2278,0.1964,0.1807,0.1807,0.1414,0.1021,0.0628,0.055,0.0393,0.0,0.0,0.0,0.0,0.0,0.0,0.0,0.0,0.0,0.0,0.0,0.0,0.0,0.0,0.0,2.4849,2.4916,2.5119,2.5052,2.4781,2.4442,2.4102,2.3679,2.3338,2.2996,2.2928,2.2928,2.2928,2.2928,2.2953,2.322,2.33,2.35,2.4008,2.4155,0.0,0.0,0.0,0.0,0.0,0.0,0.0,0.0,2.4636,2.4636,2.4636,2.4636,2.4636,2.4636,2.4636,2.4636,2.4636,2.4636,2.4636,2.4562,2.3203,2.0939,1.8006,1.7692,1.7312,1.6788,1.496,1.4045,1.3891,1.3891,1.3891,1.3891,1.3891,1.3821,1.3821,1.3821,1.3744,1.3667,1.3274,1.3197,1.312,1.2733,1.2656,1.2656,1.2656,1.2656,1.2579,1.2579,1.2579,1.2501,1.2501,1.1411,1.0319,1.0319,0.9226,0.8604,1.0008,1.0319,0.9853,0.8136,0.6655,0.5561,0.5405,0.3922,0.2748,0.2356,0.212,0.1886,0.1493,0.1414,0.1414,0.1414,0.0942,0.0707,0.0628,0.0314,0.0079,0.0,0.0,0.0,0.0,0.0,0.0,0.0,0.0,0.0,0.0,0.0,0.0,0.0,0.0,0.0,2.5119,2.4916,2.4713,2.451,2.4156,2.3816,2.3679,2.3406,2.3133,2.3201,2.2996,2.2928,2.2928,2.3006,2.3166,2.33,2.3607,2.3915,2.4168,2.4342,0.0,0.0,0.0,0.0,0.0,0.0,0.0,0.0,2.4636,2.4636,2.4636,2.4636,2.4636,2.4636,2.4636,2.4636,2.4636,2.4636,2.4031,2.2893,2.0402,1.829,1.6703,1.5335,1.496,1.5429,1.4199,1.3667,1.3667,1.3667,1.3667,1.3667,1.3667,1.3583,1.3351,1.3351,1.3197,1.2965,1.2811,1.2733,1.2733,1.2579,1.2501,1.2501,1.2501,1.2501,1.2501,1.2501,1.2501,1.2269,1.1333,1.0552,0.9775,0.8837,0.8059,0.7435,0.7275,0.7903,0.8136,0.642,0.4547,0.3295,0.3295,0.2434,0.1807,0.1571,0.1571,0.1493,0.1336,0.1099,0.0942,0.0942,0.055,0.0236,0.0236,0.0079,0.0,0.0,0.0,0.0,0.0,0.0,0.0,0.0,0.0,0.0,0.0,0.0,0.0,0.0,0.0,0.0,2.5119,2.4849,2.4578,2.4238,2.3816,2.3543,2.3406,2.3133,2.3023,2.331,2.3186,2.3006,2.3086,2.322,2.338,2.3527,2.3915,2.4222,2.4302,2.4502,0.0,0.0,0.0,0.0,0.0,0.0,0.0,0.0,2.4636,2.4636,2.4636,2.4636,2.4636,2.4636,2.4179,2.3957,2.3957,2.35,2.2211,2.0166,1.7759,1.6245,1.548,1.3883,1.3436,1.4053,1.359,1.3428,1.3428,1.3428,1.3428,1.3428,1.3428,1.3197,1.2965,1.2965,1.2733,1.2501,1.2501,1.2501,1.2501,1.2501,1.2501,1.2501,1.2501,1.2501,1.2501,1.2501,1.2192,1.1566,1.0319,0.9382,0.8443,0.7123,0.6577,0.603,0.517,0.5561,0.5717,0.4469,0.2903,0.1728,0.1728,0.1493,0.1256,0.1178,0.1099,0.1099,0.1021,0.0628,0.0471,0.0471,0.0157,0.0,0.0,0.0,0.0,0.0,0.0,0.0,0.0,0.0,0.0,0.0,0.0,0.0,0.0,0.0,0.0,0.0,0.0,0.0,2.5119,2.5052,2.4984,2.4578,2.4224,2.3884,2.3475,2.3133,2.3008,2.3247,2.33,2.3394,2.3674,2.35,2.3514,2.4062,2.4182,2.4302,2.4569,2.4623,2.4636,0.0,0.0,0.0,0.0,0.0,0.0,0.0,2.4636,2.4636,2.4636,2.4636,2.4636,2.4636,2.3129,2.2297,2.2297,2.0402,1.8431,1.6465,1.6312,1.5412,1.3814,1.3351,1.312,1.312,1.2733,1.2579,1.2579,1.2579,1.2579,1.2579,1.2579,1.2579,1.2501,1.2501,1.2501,1.2501,1.2501,1.2501,1.2501,1.2501,1.2501,1.2501,1.2501,1.2501,1.2501,1.2501,1.1333,1.0086,1.0008,0.7665,0.5248,0.517,0.3922,0.314,0.4701,0.3529,0.22,0.2042,0.1649,0.1336,0.1336,0.1336,0.1178,0.0707,0.0628,0.0471,0.0079,0.0079,0.0,0.0,0.0,0.0,0.0,0.0,0.0,0.0,0.0,0.0,0.0,0.0,0.0,0.0,0.0,0.0,0.0,0.0,0.0,0.0,0.0,0.0,2.5119,2.4916,2.4713,2.4578,2.402,2.3598,2.3722,2.343,2.3247,2.3554,2.3607,2.3701,2.3995,2.3955,2.3955,2.4168,2.4356,2.4516,2.4623,2.4636,2.4636,0.0,0.0,0.0,0.0,0.0,0.0,0.0,0.0,2.3054,2.3054,2.1837,2.1153,2.1153,2.0316,1.9865,1.9865,1.8128,1.6761,1.5769,1.4713,1.3729,1.2888,1.2811,1.2733,1.2733,1.2579,1.2501,1.2501,1.2501,1.2501,1.2501,1.2501,1.2501,1.2501,1.2501,1.2501,1.2501,1.2501,1.2501,1.2501,1.2501,1.2501,1.2501,1.2501,1.2501,1.2269,1.1178,1.0474,0.9537,0.7353,0.587,0.4701,0.3295,0.2591,0.22,0.259,0.2277,0.1807,0.1571,0.1178,0.0864,0.0864,0.0628,0.0393,0.0236,0.0236,0.0157,0.0,0.0,0.0,0.0,0.0,0.0,0.0,0.0,0.0,0.0,0.0,0.0,0.0,0.0,0.0,0.0,0.0,0.0,0.0,0.0,0.0,0.0,0.0,0.0,2.5119,2.4916,2.4645,2.436,2.3952,2.3625,2.3664,2.3453,2.3434,2.3834,2.3915,2.4008,2.4289,2.4342,2.4342,2.4342,2.4516,2.4636,2.4636,2.4636,2.4636,0.0,0.0,0.0,0.0,0.0,0.0,0.0,0.0,0.0,2.1837,2.0553,1.9338,1.8204,1.7901,1.7436,1.6761,1.5701,1.4944,1.4475,1.3421,1.2733,1.2501,1.2501,1.2501,1.2501,1.2501,1.2501,1.2501,1.2501,1.2501,1.2501,1.2501,1.2501,1.2501,1.2501,1.2501,1.2501,1.2501,1.2501,1.2501,1.2501,1.2501,1.2424,1.1798,1.1643,1.1333,0.9615,0.8759,0.7821,0.5561,0.4466,0.3607,0.2199,0.1807,0.1571,0.1178,0.1256,0.1414,0.1099,0.0707,0.0393,0.0393,0.0157,0.0,0.0,0.0,0.0,0.0,0.0,0.0,0.0,0.0,0.0,0.0,0.0,0.0,0.0,0.0,0.0,0.0,0.0,0.0,0.0,0.0,0.0,0.0,0.0,0.0,0.0,0.0,0.0,0.0,0.0,0.0,2.4198,2.3994,2.3872,2.3426,2.3354,2.3514,2.4102,2.4222,2.4302,2.4583,2.4636,2.4636,2.4636,2.4636,2.4636,2.4636,2.4636,2.4636,2.4636,0.0,0.0,0.0,0.0,0.0,0.0,2.3883,2.298,2.1003,2.0778,1.9338,1.616,1.6083,1.5097,1.312,1.3042,1.2888,1.2501,1.2501,1.2501,1.2501,1.2501,1.2501,1.2501,1.2501,1.2501,1.2501,1.2501,1.2501,1.2501,1.2501,1.2501,1.2501,1.2501,1.2501,1.2501,1.2501,1.2501,1.2501,1.2501,1.2501,1.2114,1.0474,0.9925,0.9537,0.7903,0.6264,0.5014,0.4936,0.3372,0.1886,0.1886,0.1571,0.1178,0.0707,0.055,0.055,0.055,0.0236,0.0,0.0,0.0,0.0,0.0,0.0,0.0,0.0,0.0,0.0,0.0,0.0,0.0,0.0,0.0,0.0,0.0,0.0,0.0,0.0,0.0,0.0,0.0,0.0,0.0,0.0,0.0,0.0,0.0,0.0,0.0,2.5322,0.0,0.0,0.0,0.0,0.0,2.4317,2.4098,2.4062,2.4436,2.4516,2.4543,2.4623,2.4636,2.4636,2.4636,2.4636,2.4636,2.4636,2.4636,2.4636,2.4636,0.0,0.0,0.0,0.0,0.0,0.0,2.1153,1.9639,1.7673,1.6083,1.4713,1.3568,1.3491,1.3267,1.2656,1.2656,1.2579,1.2501,1.2501,1.2501,1.2501,1.2501,1.2501,1.2501,1.2501,1.2501,1.2501,1.2501,1.2501,1.2501,1.2501,1.2501,1.2501,1.2501,1.2501,1.2501,1.2501,1.2501,1.2501,1.2501,1.1643,1.063,1.0164,0.9148,0.7825,0.6186,0.5327,0.4623,0.3139,0.212,0.1414,0.1021,0.0864,0.0707,0.0236,0.0157,0.0157,0.0157,0.0079,0.0,0.0,0.0,0.0,0.0,0.0,0.0,0.0,0.0,0.0,0.0,0.0,0.0,0.0,0.0,0.0,0.0,0.0,0.0,0.0,0.0,0.0,0.0,0.0,0.0,0.0,0.0,0.0,0.0,-0.0326,-0.0488,0.0,0.0,0.0,0.0,0.0,0.0,2.449,2.434,2.4289,2.4569,2.4636,2.4636,2.4636,2.4636,2.4636,2.4636,2.4636,2.4636,2.4636,2.4636,2.4636,2.4636,0.0,0.0,0.0,2.3339,2.2434,2.0241,1.9262,1.7825,1.5778,1.3876,1.2733,1.2501,1.2501,1.2501,1.2501,1.2501,1.2501,1.2501,1.2501,1.2501,1.2501,1.2501,1.2501,1.2501,1.2501,1.2501,1.2501,1.2501,1.2501,1.2501,1.2501,1.2501,1.2501,1.2501,1.2501,1.2501,1.2501,1.2501,1.2347,1.1643,1.0785,0.977,0.8366,0.7197,0.6108,0.4234,0.3607,0.3215,0.1963,0.1336,0.0942,0.0628,0.0471,0.0314,0.0079,0.0,0.0,0.0,0.0,0.0,0.0,0.0,0.0,0.0,0.0,0.0,0.0,0.0,0.0,0.0,0.0,0.0,0.0,0.0,0.0,0.0,0.0,0.0,0.0,0.0,0.0,0.0,-0.0168,-0.0337,-0.0505,-0.0415,-0.0413,-0.0577,-0.0825,-0.132,0.0,0.0,0.0,0.0,0.0,0.0,2.4268,2.4249,2.4329,2.4583,2.4636,2.4636,2.4636,2.4636,2.4562,2.4341,2.4341,2.4414,2.4562,2.4636,2.4488,2.4253,2.4253,0.0,2.1452,2.1291,2.0316,1.7901,1.7521,1.6608,1.4713,1.3267,1.2501,1.2501,1.2501,1.2501,1.2501,1.2501,1.2501,1.2501,1.2501,1.2501,1.2501,1.2501,1.2501,1.2501,1.2501,1.2501,1.2501,1.2501,1.2501,1.2501,1.2501,1.2501,1.2501,1.2501,1.2501,1.2501,1.2501,1.2347,1.1953,1.0474,0.977,0.8915,0.587,0.4779,0.4234,0.2356,0.1571,0.1256,0.1256,0.0864,0.055,0.0551,0.0236,0.0,0.0,0.0,0.0,0.0,0.0,0.0,0.0,0.0,0.0,0.0,0.0,0.0,0.0,0.0,0.0,0.0,0.0,0.0,0.0,0.0,0.0,0.0,0.0,0.0,-0.0084,-0.0084,-0.0084,-0.0168,-0.0589,-0.101,-0.1346,-0.0926,-0.1094,-0.1598,-0.1682,-0.2688,0.0,0.0,0.0,0.0,0.0,0.0,2.4543,2.4556,2.4569,2.4623,2.4636,2.4636,2.4636,2.4636,2.4179,2.2905,2.267,2.3129,2.4414,2.4636,2.4031,2.236,2.2198,0.0,1.9403,1.9176,1.827,1.6151,1.4483,1.3414,1.2958,1.2656,1.2501,1.2501,1.2501,1.2501,1.2501,1.2501,1.2501,1.2501,1.2501,1.2501,1.2501,1.2501,1.2501,1.2501,1.2501,1.2501,1.2501,1.2501,1.2501,1.2501,1.2501,1.2501,1.2501,1.2501,1.2501,1.2501,1.2501,1.1643,1.0397,1.0086,0.821,0.5792,0.4776,0.3607,0.2356,0.1649,0.1099,0.0707,0.0707,0.0393,0.0079,0.008,0.008,0.0,0.0,0.0,0.0,0.0,0.0,0.0,0.0,0.0,0.0,0.0,0.0,0.0,0.0,0.0,0.0,0.0,0.0,0.0,0.0,0.0,0.0,0.0,0.0,-0.0168,-0.0589,-0.0589,-0.0758,-0.1009,-0.1178,-0.143,-0.185,-0.143,-0.1933,-0.3444,-0.3864,-0.5036,0.0,0.0,0.0,2.3574,0.0,0.0,0.0,2.2223,2.2223,2.2223,2.2223,2.2223,2.2223,2.2223,2.1849,2.0864,2.0703,2.0928,2.1527,2.1751,2.1527,2.0542,2.0241,0.0,1.7284,1.7056,1.6218,1.4176,1.3035,1.2501,1.2501,1.2501,1.2501,1.2501,1.2501,1.2501,1.2501,1.2501,1.2501,1.2501,1.2501,1.2501,1.2501,1.2501,1.2501,1.2501,1.2501,1.2501,1.2501,1.2501,1.2501,1.2501,1.2501,1.2501,1.2501,1.2501,1.2501,1.2347,1.1566,1.0707,0.9692,0.8054,0.6261,0.4544,0.345,0.2276,0.118,0.1029,0.0634,0.0317,0.0319,0.016,0.0,0.0,0.0,0.0,0.0,0.0,0.0,0.0,0.0,0.0,0.0,0.0,0.0,0.0,0.0,0.0,0.0,0.0,0.0,0.0,0.0,0.0,0.0,0.0,-0.0084,-0.0337,-0.0337,-0.0505,-0.101,-0.101,-0.1178,-0.1682,-0.1682,-0.2354,-0.3696,-0.3444,-0.378,-0.47,-0.4952,-0.6459,0.0,0.0,0.0,0.0,0.0,2.1389,0.0,0.0,0.0,1.9811,1.9736,1.9661,1.9661,1.9661,1.9338,1.8683,0.0,0.0,0.0,1.7871,0.0,1.8431,1.8194,0.0,1.5081,1.4935,1.4253,1.2656,1.2501,1.2501,1.2501,1.2501,1.2501,1.2501,1.2501,1.2501,1.2501,1.2501,1.2501,1.2501,1.2501,1.2501,1.2501,1.2501,1.2501,1.2501,1.2535,1.2549,1.2549,1.2576,1.2589,1.2583,1.2522,1.2522,1.2549,1.2549,1.2329,1.1875,1.0543,0.9604,0.8581,0.5912,0.4498,0.3552,0.2055,0.1107,0.0476,0.048,0.0241,0.0,0.0,0.0,0.0,0.0,0.0,0.0,0.0,0.0,0.0,0.0,0.0,0.0,0.0,0.0,0.0,0.0,0.0,0.0,0.0,0.0,0.0,0.0,0.0,0.0,0.0,0.0,-0.0168,-0.0674,-0.0674,-0.0926,-0.143,-0.1849,-0.227,-0.2606,-0.2942,-0.4031,-0.5873,-0.5873,-0.6041,-0.6456,-0.6456,-0.8127,0.0,0.0,0.0,0.0,2.1164,0.0,0.0,0.0,1.9811,1.9811,0.0,0.0,0.0,0.0,0.0,0.0,0.0,0.0,1.4286,1.3946,1.4337,1.5769,1.5922,0.0,0.0,1.2804,1.2726,1.2501,1.2501,1.2501,1.2501,1.2501,1.2501,1.2501,1.2501,1.2501,1.2501,1.2501,1.2501,1.2501,1.2501,1.2501,1.2501,1.2501,1.2501,1.2508,1.2644,1.2705,1.2712,1.2854,1.2908,1.2881,1.261,1.2583,1.2705,1.2705,1.1744,1.0559,1.0318,0.8228,0.5578,0.5175,0.3561,0.154,0.0891,0.0405,0.0081,0.0081,0.0,0.0,0.0,0.0,0.0,0.0,0.0,0.0,0.0,0.0,0.0,0.0,0.0,0.0,0.0,0.0,0.0,0.0,0.0,0.0,0.0,0.0,0.0,0.0,0.0,0.0,0.0,0.0,-0.0168,-0.0674,-0.0674,-0.1095,-0.185,-0.3864,-0.4952,-0.5036,-0.6543,-0.7463,-0.7714,-0.7714,-0.8549,-1.0138,-1.0138,-1.1142,0.0,0.0,0.0,0.0,0.0,0.0,0.0,0.0,1.694,0.0,0.0,0.0,0.0,0.0,0.0,0.0,1.4367,0.0,0.0,0.0,1.3112,0.0,0.0,0.0,0.0,0.0,0.0,0.0,1.2501,1.2501,1.2501,1.2501,1.2501,1.2501,1.2501,1.2501,1.2501,1.2501,1.2501,1.2501,1.2501,1.2549,1.263,1.263,1.2684,1.2773,1.2834,1.2861,1.2868,1.2935,1.2963,1.3029,1.282,1.2807,1.2781,1.1653,1.0879,1.0035,0.8021,0.6324,0.4872,0.3413,0.1952,0.0814,0.0407,0.0163,0.0,0.0,0.0,0.0,0.0,0.0,0.0,0.0,0.0,0.0,0.0,0.0,0.0,0.0,0.0,0.0,0.0,0.0,0.0,0.0,0.0,0.0,0.0,0.0,0.0,0.0,0.0,-0.0084,-0.0421,-0.0421,-0.0674,-0.1431,-0.269,-0.4031,-0.5454,-0.6376,-0.6878,-0.6878,-0.763,-0.8553,-0.9555,-0.9555,-1.0471,-1.2229,-1.1225,-1.1641,1.9359,0.0,0.0,0.0,0.0,0.0,0.0,0.0,0.0,0.0,0.0,0.0,0.0,0.0,0.0,0.0,0.0,1.2797,0.0,1.2474,0.0,0.0,0.0,0.0,0.0,0.0,0.0,0.0,0.0,1.2501,1.2501,1.2501,1.2501,1.2501,1.2501,1.2501,1.2501,1.2542,1.2562,1.2562,1.261,1.2684,1.2793,1.2793,1.2854,1.2963,1.3003,1.3017,1.3024,1.3064,1.2835,1.2349,1.2349,1.21,1.1526,1.0664,0.9779,0.858,0.6057,0.4752,0.3935,0.1806,0.0904,0.0575,0.0164,0.0,0.0,0.0,0.0,0.0,0.0,0.0,0.0,0.0,0.0,0.0,0.0,0.0,0.0,0.0,0.0,0.0,0.0,0.0,0.0,0.0,0.0,0.0,0.0,0.0,-0.0084,-0.0168,-0.0168,-0.0337,-0.0842,-0.0842,-0.1431,-0.2691,-0.487,-0.671,-0.7964,-0.847,-0.872,-0.872,-0.9221,-1.0138,-1.1475,-1.1475,-1.2146,-1.3397,-1.2063,-1.2146,0.0,0.0,0.0,1.7321,0.0,0.0,0.0,0.0,1.4284,0.0,0.0,0.0,0.0,0.0,0.0,0.0,0.0,0.0,0.0,0.0,0.0,0.0,0.0,0.0,0.0,0.0,0.0,0.0,0.0,0.0,1.2501,1.2501,1.2501,1.2501,1.2501,1.2501,1.2501,1.2651,1.2725,1.2725,1.2874,1.3029,1.2956,1.2956,1.2956,1.305,1.3105,1.3166,1.318,1.3322,1.2382,1.0793,1.0793,0.9711,0.8365,0.9917,0.8375,0.5533,0.5449,0.3944,0.1932,0.1009,0.0673,0.0589,0.0168,0.0,0.0,0.0,0.0,0.0,0.0,0.0,0.0,0.0,0.0,0.0,0.0,0.0,0.0,0.0,0.0,0.0,0.0,0.0,0.0,0.0,0.0,0.0,0.0,0.0,-0.0168,-0.0589,-0.0674,-0.0842,-0.1262,-0.1262,-0.227,-0.4451,-0.671,-0.7964,-0.7968,-0.9721,-1.0637,-1.0637,-1.2312,-1.3231,-1.3314,-1.3314,-1.3321,-1.3403,-1.3321,-1.3321,0.0,0.0,1.4883,1.5275,0.0,0.0,0.0,0.0,0.0,0.0,0.0,0.0,0.0,0.0,0.0,0.0,0.0,0.0,0.0,0.0,0.0,0.0,0.0,0.0,0.0,0.0,0.0,0.0,1.2501,0.0,0.0,1.2501,1.2501,1.2501,1.2603,1.2651,1.2651,1.2807,1.2881,1.2881,1.2935,1.301,1.3098,1.3098,1.3159,1.3254,1.3302,1.3322,1.3246,1.2127,1.1225,1.0554,0.9388,0.7797,0.6372,0.6929,0.6353,0.5203,0.3696,0.2438,0.143,0.0842,0.0505,0.0168,0.0084,0.0,0.0,0.0,0.0,0.0,0.0,0.0,0.0,0.0,0.0,0.0,0.0,0.0,0.0,0.0,0.0,0.0,0.0,0.0,0.0,0.0,0.0,-0.0084,-0.0421,-0.0505,-0.0589,-0.1094,-0.2186,-0.3026,-0.3528,-0.4868,-0.654,-0.8549,-0.9388,-1.0304,-1.1558,-1.2146,-1.2478,-1.2478,-1.3065,-1.3403,-1.3403,-1.3403,-1.3403,-1.3403,-1.3403,-1.3403,1.3744,1.359,0.0,1.4053,1.413,0.0,1.3975,0.0,0.0,0.0,0.0,0.0,0.0,0.0,0.0,0.0,0.0,0.0,0.0,1.2501,0.0,0.0,0.0,0.0,0.0,0.0,0.0,1.2501,1.2501,0.0,0.0,0.0,1.2528,1.2583,1.2678,1.2759,1.2813,1.2963,1.3037,1.3037,1.3091,1.3166,1.3254,1.3254,1.3308,1.3403,1.3403,1.3403,1.3231,1.1475,1.0304,0.9555,0.7797,0.5957,0.4535,0.5203,0.4868,0.3948,0.2355,0.1431,0.101,0.0589,0.0253,0.0,0.0,0.0,0.0,0.0,0.0,0.0,0.0,0.0,0.0,0.0,0.0,0.0,0.0,0.0,0.0,0.0,0.0,-0.0084,-0.0253,-0.0253,-0.0253,-0.0253,-0.0253,-0.0421,-0.0842,-0.0926,-0.1346,-0.2436,-0.3528,-0.4703,-0.5792,-0.7797,-0.9471,-1.0637,-1.1309,-1.2146,-1.3321,-1.3403,-1.3403,-1.3403,-1.3403,-1.3403,-1.3403,-1.3403,-1.3403,-1.3403,-1.3403,-1.3403]},{"header":{"parameterUnit":"m.s-1","parameterCategory":1,"la1":30.6,"la2":29.2853,"lo1":-89.7004,"lo2":-87.6739,"dy":0.0162,"dx":0.0183,"nx":112,"ny":82,"refTime":"2024-02-11T18:00:00:Z","depth":0,"parameterNumber":3,"parameterNumberName":"V-component_of_WINDS"},"data":[0.0,0.0,0.0,0.0,0.0,0.0,0.0,0.0,0.0,0.0,0.0,0.0,0.0,0.0,0.0,0.0,0.0,0.0,0.0,0.0,0.0,0.0,0.0,0.0,0.0,0.0,0.0,0.0,0.0,0.0,0.0,0.0,0.0,0.0,0.0,0.0,0.0,0.0,0.0,0.0,0.0,0.0,0.0,0.0,0.0,0.0,0.0,0.0,0.0,0.0,0.0,0.0,0.0,0.0,0.0,0.0,0.0,0.0,0.0,0.0,0.0,0.0,0.0,0.0,0.0,0.0,0.0,0.0,0.0,0.0,0.0,0.0,0.0,0.0,0.0,0.0,0.0,0.0,0.0,0.0,0.0,0.0,0.0,0.0,0.0,0.0,0.0,0.0,0.0,0.0,0.0,3.7649,3.7613,3.7595,3.7595,3.7595,3.7595,3.7595,0.0,0.0,0.0,0.0,0.0,0.0,0.0,0.0,0.0,0.0,0.0,0.0,0.0,0.0,0.0,0.0,0.0,0.0,0.0,0.0,0.0,0.0,0.0,0.0,0.0,0.0,0.0,0.0,0.0,0.0,0.0,0.0,0.0,0.0,0.0,0.0,0.0,0.0,0.0,0.0,0.0,0.0,0.0,0.0,0.0,0.0,0.0,0.0,0.0,0.0,0.0,0.0,0.0,0.0,0.0,0.0,0.0,0.0,0.0,0.0,0.0,0.0,0.0,0.0,0.0,0.0,0.0,0.0,0.0,0.0,0.0,0.0,0.0,0.0,0.0,0.0,0.0,0.0,0.0,0.0,0.0,0.0,0.0,0.0,0.0,0.0,0.0,0.0,0.0,0.0,0.0,0.0,0.0,0.0,0.0,0.0,0.0,0.0,0.0,0.0,0.0,0.0,0.0,0.0,3.7864,3.7864,3.7721,3.7595,3.7595,3.7595,3.7595,3.7595,0.0,0.0,0.0,0.0,0.0,0.0,0.0,0.0,0.0,0.0,0.0,0.0,0.0,0.0,0.0,0.0,0.0,0.0,0.0,0.0,0.0,0.0,0.0,0.0,0.0,0.0,0.0,0.0,0.0,0.0,0.0,0.0,0.0,0.0,0.0,0.0,0.0,0.0,0.0,0.0,0.0,0.0,0.0,0.0,0.0,0.0,0.0,0.0,0.0,0.0,0.0,0.0,0.0,0.0,0.0,0.0,0.0,0.0,0.0,0.0,0.0,0.0,0.0,0.0,0.0,0.0,0.0,0.0,0.0,0.0,0.0,0.0,0.0,0.0,0.0,0.0,0.0,0.0,0.0,0.0,0.0,0.0,0.0,0.0,0.0,0.0,0.0,0.0,0.0,0.0,0.0,0.0,0.0,0.0,0.0,0.0,0.0,0.0,0.0,0.0,0.0,0.0,0.0,3.7792,3.7792,3.7792,3.7703,3.7649,3.7595,3.7595,3.7595,3.7595,3.7595,0.0,0.0,0.0,0.0,0.0,0.0,0.0,0.0,0.0,0.0,0.0,0.0,0.0,0.0,0.0,0.0,0.0,0.0,0.0,0.0,0.0,0.0,0.0,0.0,0.0,0.0,0.0,0.0,0.0,0.0,0.0,0.0,0.0,0.0,0.0,0.0,0.0,0.0,0.0,0.0,0.0,0.0,0.0,0.0,0.0,0.0,0.0,0.0,0.0,0.0,0.0,0.0,0.0,0.0,0.0,0.0,0.0,0.0,0.0,0.0,0.0,0.0,0.0,0.0,0.0,0.0,0.0,0.0,0.0,0.0,0.0,0.0,0.0,0.0,0.0,0.0,0.0,0.0,0.0,0.0,0.0,0.0,0.0,0.0,0.0,0.0,0.0,0.0,0.0,0.0,0.0,0.0,0.0,0.0,0.0,0.0,0.0,0.0,0.0,0.0,0.0,0.0,3.781,3.7756,3.7756,3.7775,3.7721,3.7703,3.7631,3.7613,3.7613,3.7613,0.0,0.0,0.0,0.0,0.0,0.0,0.0,0.0,0.0,0.0,0.0,0.0,0.0,0.0,0.0,0.0,0.0,0.0,0.0,0.0,0.0,0.0,0.0,0.0,0.0,0.0,0.0,0.0,0.0,0.0,0.0,0.0,0.0,0.0,0.0,0.0,0.0,0.0,0.0,0.0,0.0,0.0,0.0,0.0,0.0,0.0,0.0,0.0,0.0,0.0,0.0,0.0,0.0,0.0,0.0,0.0,0.0,0.0,0.0,0.0,0.0,0.0,0.0,0.0,0.0,0.0,0.0,0.0,0.0,0.0,0.0,0.0,0.0,0.0,0.0,0.0,0.0,0.0,0.0,0.0,0.0,0.0,0.0,0.0,0.0,0.0,0.0,0.0,0.0,0.0,0.0,0.0,0.0,0.0,0.0,0.0,0.0,0.0,0.0,0.0,0.0,0.0,3.7933,3.8002,3.8002,3.7915,3.7881,3.7881,3.7757,3.7667,3.7667,3.7631,0.0,0.0,0.0,0.0,0.0,0.0,0.0,0.0,0.0,0.0,0.0,0.0,0.0,0.0,0.0,0.0,0.0,0.0,0.0,0.0,0.0,0.0,0.0,0.0,0.0,0.0,0.0,0.0,0.0,0.0,0.0,0.0,0.0,0.0,0.0,0.0,0.0,0.0,0.0,0.0,0.0,0.0,0.0,0.0,0.0,0.0,0.0,0.0,0.0,0.0,0.0,0.0,0.0,0.0,0.0,0.0,0.0,0.0,0.0,0.0,0.0,0.0,0.0,0.0,0.0,0.0,0.0,0.0,0.0,0.0,0.0,0.0,0.0,0.0,0.0,0.0,0.0,0.0,0.0,0.0,0.0,0.0,0.0,0.0,0.0,0.0,0.0,0.0,0.0,0.0,0.0,0.0,0.0,0.0,0.0,0.0,0.0,0.0,0.0,0.0,0.0,0.0,3.9428,3.9499,0.0,3.9463,3.9446,3.9391,3.8888,3.8546,3.8438,0.0,0.0,0.0,0.0,0.0,0.0,0.0,0.0,0.0,0.0,0.0,0.0,0.0,0.0,0.0,0.0,0.0,0.0,0.0,0.0,0.0,0.0,0.0,0.0,0.0,0.0,0.0,0.0,0.0,0.0,0.0,0.0,0.0,0.0,0.0,0.0,0.0,0.0,0.0,0.0,0.0,0.0,0.0,0.0,0.0,0.0,0.0,0.0,0.0,0.0,0.0,0.0,0.0,0.0,0.0,0.0,0.0,0.0,0.0,0.0,0.0,0.0,0.0,0.0,0.0,0.0,0.0,0.0,0.0,0.0,0.0,0.0,0.0,0.0,0.0,0.0,0.0,0.0,0.0,0.0,0.0,0.0,0.0,0.0,0.0,0.0,0.0,0.0,0.0,0.0,0.0,0.0,0.0,0.0,0.0,0.0,0.0,0.0,0.0,0.0,0.0,0.0,4.0181,4.0347,4.0438,0.0,4.0438,4.042,4.0347,3.9842,3.9445,3.9317,0.0,0.0,0.0,0.0,0.0,0.0,0.0,0.0,0.0,0.0,0.0,0.0,0.0,0.0,0.0,0.0,0.0,0.0,0.0,0.0,0.0,0.0,0.0,0.0,0.0,0.0,0.0,0.0,0.0,0.0,0.0,0.0,0.0,0.0,0.0,0.0,0.0,0.0,0.0,0.0,0.0,0.0,0.0,0.0,0.0,0.0,0.0,0.0,0.0,0.0,0.0,0.0,0.0,0.0,0.0,0.0,0.0,0.0,0.0,0.0,0.0,0.0,0.0,0.0,0.0,0.0,0.0,0.0,0.0,0.0,0.0,0.0,0.0,0.0,0.0,0.0,0.0,0.0,0.0,0.0,0.0,0.0,0.0,0.0,0.0,0.0,0.0,0.0,0.0,0.0,0.0,0.0,0.0,0.0,0.0,0.0,0.0,0.0,0.0,0.0,0.0,0.0,4.0253,4.0438,4.0546,4.0546,4.0546,4.0546,4.0546,4.0474,4.0383,0.0,0.0,0.0,0.0,0.0,0.0,0.0,0.0,0.0,0.0,0.0,0.0,0.0,0.0,0.0,0.0,0.0,0.0,0.0,0.0,0.0,0.0,0.0,0.0,0.0,0.0,0.0,0.0,0.0,0.0,0.0,0.0,0.0,0.0,0.0,0.0,0.0,0.0,0.0,0.0,0.0,0.0,0.0,0.0,0.0,0.0,0.0,0.0,0.0,0.0,0.0,0.0,0.0,0.0,0.0,0.0,0.0,0.0,0.0,0.0,0.0,0.0,0.0,0.0,0.0,0.0,0.0,0.0,0.0,0.0,0.0,0.0,0.0,0.0,0.0,0.0,0.0,0.0,0.0,0.0,0.0,0.0,0.0,0.0,0.0,0.0,0.0,0.0,0.0,0.0,0.0,0.0,0.0,0.0,0.0,0.0,0.0,0.0,0.0,0.0,0.0,0.0,0.0,4.3508,4.376,4.3896,4.3896,4.3896,4.3896,4.3896,4.337,4.2912,4.2753,0.0,0.0,0.0,0.0,0.0,0.0,0.0,0.0,0.0,0.0,0.0,0.0,0.0,0.0,0.0,0.0,0.0,0.0,0.0,0.0,0.0,0.0,0.0,0.0,0.0,0.0,0.0,0.0,0.0,0.0,0.0,0.0,0.0,0.0,0.0,0.0,0.0,0.0,0.0,0.0,0.0,0.0,0.0,0.0,0.0,0.0,0.0,0.0,0.0,0.0,0.0,0.0,0.0,0.0,0.0,0.0,0.0,0.0,0.0,0.0,0.0,0.0,0.0,0.0,0.0,0.0,0.0,0.0,0.0,0.0,0.0,0.0,0.0,0.0,0.0,0.0,0.0,0.0,0.0,0.0,0.0,0.0,0.0,0.0,0.0,0.0,0.0,0.0,0.0,0.0,0.0,0.0,0.0,0.0,0.0,0.0,0.0,0.0,0.0,0.0,0.0,0.0,4.4946,4.5168,4.5309,4.5309,4.5309,4.5309,4.5309,4.4874,4.4525,4.4381,0.0,0.0,0.0,0.0,0.0,0.0,0.0,0.0,0.0,0.0,0.0,0.0,0.0,0.0,0.0,0.0,0.0,0.0,0.0,0.0,0.0,0.0,0.0,0.0,0.0,0.0,0.0,0.0,0.0,0.0,0.0,0.0,0.0,0.0,0.0,0.0,0.0,0.0,0.0,0.0,0.0,0.0,0.0,0.0,0.0,0.0,0.0,0.0,0.0,0.0,0.0,0.0,0.0,0.0,0.0,0.0,0.0,0.0,0.0,0.0,0.0,0.0,0.0,0.0,0.0,0.0,0.0,0.0,0.0,0.0,0.0,0.0,0.0,0.0,0.0,0.0,0.0,0.0,0.0,0.0,0.0,0.0,0.0,0.0,0.0,0.0,0.0,0.0,0.0,0.0,0.0,0.0,0.0,0.0,0.0,0.0,0.0,0.0,0.0,0.0,0.0,0.0,4.5198,4.5384,4.5526,4.5526,4.5526,4.5526,4.5526,4.5526,4.5486,4.542,0.0,0.0,0.0,0.0,0.0,0.0,0.0,0.0,0.0,0.0,0.0,0.0,0.0,0.0,0.0,0.0,0.0,0.0,0.0,0.0,0.0,0.0,0.0,0.0,0.0,0.0,0.0,0.0,0.0,0.0,0.0,0.0,0.0,0.0,0.0,0.0,0.0,0.0,0.0,0.0,0.0,0.0,0.0,0.0,0.0,0.0,0.0,0.0,0.0,0.0,0.0,0.0,0.0,0.0,0.0,0.0,0.0,0.0,0.0,0.0,4.6787,0.0,0.0,0.0,0.0,0.0,0.0,0.0,0.0,0.0,0.0,0.0,0.0,0.0,0.0,0.0,0.0,0.0,0.0,0.0,0.0,0.0,0.0,0.0,0.0,0.0,0.0,0.0,0.0,0.0,0.0,0.0,0.0,0.0,0.0,0.0,0.0,0.0,0.0,0.0,0.0,0.0,4.6744,4.7045,4.7192,4.7192,4.7192,4.7192,4.7192,4.7192,4.7129,4.7024,4.6389,0.0,0.0,0.0,0.0,0.0,0.0,0.0,0.0,0.0,0.0,0.0,0.0,0.0,0.0,0.0,0.0,0.0,0.0,0.0,0.0,0.0,0.0,0.0,0.0,0.0,0.0,0.0,0.0,0.0,0.0,0.0,0.0,0.0,0.0,0.0,0.0,0.0,0.0,0.0,0.0,0.0,0.0,0.0,0.0,0.0,0.0,0.0,0.0,0.0,0.0,0.0,0.0,0.0,0.0,0.0,0.0,0.0,0.0,0.0,0.0,4.732,0.0,0.0,0.0,0.0,0.0,0.0,0.0,0.0,0.0,0.0,0.0,0.0,0.0,0.0,0.0,0.0,0.0,0.0,0.0,0.0,0.0,0.0,0.0,0.0,0.0,0.0,0.0,0.0,0.0,0.0,0.0,0.0,0.0,0.0,0.0,0.0,0.0,0.0,0.0,0.0,4.7248,4.7515,4.7699,4.7699,4.7699,4.7699,4.7699,4.7699,4.7657,4.7615,4.7153,0.0,0.0,0.0,0.0,0.0,0.0,0.0,0.0,0.0,0.0,0.0,0.0,0.0,0.0,0.0,0.0,0.0,0.0,0.0,0.0,0.0,0.0,0.0,0.0,0.0,0.0,0.0,0.0,0.0,0.0,0.0,0.0,0.0,0.0,0.0,0.0,0.0,0.0,0.0,0.0,0.0,0.0,0.0,0.0,0.0,0.0,0.0,0.0,0.0,0.0,0.0,0.0,0.0,4.8443,4.8789,4.8789,4.9473,4.983,4.9848,4.8402,4.7926,4.8113,0.0,0.0,0.0,0.0,0.0,0.0,0.0,0.0,0.0,0.0,0.0,0.0,0.0,0.0,0.0,0.0,0.0,0.0,0.0,0.0,0.0,0.0,0.0,0.0,0.0,4.7883,4.7926,0.0,0.0,0.0,0.0,0.0,0.0,0.0,0.0,0.0,0.0,0.0,0.0,4.7341,4.7572,4.7699,4.7699,4.7699,4.7699,4.7699,4.7699,4.7699,4.7699,4.7593,4.7593,0.0,0.0,0.0,0.0,0.0,0.0,0.0,0.0,0.0,0.0,0.0,0.0,0.0,0.0,0.0,0.0,0.0,0.0,0.0,0.0,0.0,0.0,0.0,0.0,0.0,0.0,0.0,0.0,0.0,0.0,0.0,0.0,4.6966,4.6878,0.0,0.0,0.0,0.0,0.0,0.0,0.0,0.0,0.0,0.0,0.0,0.0,0.0,4.9346,4.9369,4.9483,4.955,4.955,4.9784,4.9886,4.9886,4.9973,5.0067,5.0053,4.985,0.0,4.9785,4.9764,0.0,0.0,0.0,0.0,0.0,0.0,0.0,0.0,0.0,0.0,0.0,0.0,0.0,0.0,0.0,0.0,0.0,0.0,0.0,0.0,0.0,0.0,4.9886,4.9778,4.9742,4.9742,0.0,4.8446,4.7298,4.7298,0.0,0.0,0.0,0.0,0.0,0.0,0.0,0.0,4.745,4.7615,4.7699,4.7699,4.7699,4.7699,4.7699,4.7699,4.7699,4.7699,4.7678,4.7678,4.7699,4.7678,0.0,0.0,0.0,0.0,0.0,0.0,0.0,0.0,0.0,0.0,0.0,0.0,0.0,0.0,0.0,0.0,0.0,0.0,0.0,0.0,0.0,0.0,0.0,0.0,0.0,0.0,0.0,0.0,0.0,4.7617,4.7891,4.7823,4.8217,4.8422,0.0,0.0,0.0,0.0,0.0,0.0,0.0,0.0,0.0,4.9807,4.9807,4.983,4.9897,4.9965,4.9987,5.0023,5.0502,5.0764,5.0778,5.1249,5.143,5.143,5.143,5.143,5.1357,5.0452,5.0112,5.0112,0.0,0.0,0.0,0.0,0.0,5.0112,5.0112,5.0112,0.0,0.0,0.0,0.0,0.0,0.0,0.0,0.0,0.0,0.0,0.0,0.0,0.0,5.022,5.0112,5.0112,5.0112,4.9444,4.885,0.0,4.8762,4.874,4.865,0.0,0.0,0.0,0.0,0.0,4.8828,4.8555,4.8366,4.8366,4.7989,4.7699,4.7699,4.7699,4.7699,4.7699,4.7699,4.7699,4.7699,4.7699,4.7699,0.0,0.0,0.0,0.0,0.0,0.0,0.0,0.0,0.0,0.0,0.0,0.0,0.0,0.0,0.0,0.0,0.0,0.0,0.0,0.0,0.0,0.0,0.0,0.0,0.0,0.0,0.0,0.0,4.8357,4.8716,4.8611,4.9218,4.9554,0.0,0.0,0.0,0.0,0.0,0.0,5.0351,5.0386,5.042,5.0557,5.0557,5.0602,5.0705,5.0705,5.0705,5.0728,5.1321,5.1611,5.1611,5.2226,5.248,5.248,5.248,5.248,5.2408,5.1212,5.0705,5.0705,5.0705,5.0705,5.0705,5.0705,5.0705,5.0705,5.0705,5.0705,5.0705,5.0705,0.0,5.0705,5.0705,0.0,0.0,0.0,0.0,5.1466,5.0873,0.0,5.1466,5.085,5.0705,5.0705,5.0705,5.0705,5.0538,0.0,4.9942,4.992,4.9807,0.0,0.0,0.0,0.0,4.9897,4.9942,4.9539,4.922,4.922,4.8677,4.8315,4.8315,4.8315,4.8315,4.8315,4.8134,4.8004,4.8004,4.7787,4.7699,4.7699,0.0,0.0,0.0,0.0,0.0,0.0,0.0,0.0,0.0,0.0,0.0,0.0,0.0,0.0,0.0,0.0,0.0,0.0,0.0,0.0,0.0,0.0,0.0,0.0,0.0,0.0,0.0,0.0,0.0,4.9471,4.968,0.0,0.0,0.0,0.0,5.0771,5.0843,5.1214,5.2125,5.2161,5.2232,5.2371,5.2371,5.2371,5.2371,5.2371,5.2371,5.2371,5.2408,5.2444,5.2444,5.248,5.248,5.248,5.248,5.248,5.248,5.2408,5.2371,5.2371,5.2371,5.2371,5.2371,5.2371,5.2371,5.2371,5.2371,5.2371,5.2371,5.2371,5.2371,5.2371,5.2371,5.2371,0.0,0.0,5.2408,5.2408,5.2371,5.2408,5.2408,5.2371,5.2371,5.2371,5.2371,5.2371,5.1937,0.0,5.009,5.009,5.009,0.0,4.992,5.0067,4.9965,4.9942,5.009,5.0053,5.0039,5.0039,5.0003,5.0003,5.0003,5.0003,5.0003,5.0003,4.9257,4.8837,4.8837,4.8113,4.7699,4.7699,4.7699,0.0,0.0,0.0,0.0,0.0,0.0,0.0,0.0,0.0,0.0,0.0,0.0,0.0,0.0,0.0,0.0,0.0,0.0,0.0,0.0,0.0,0.0,0.0,0.0,0.0,0.0,0.0,0.0,5.0437,5.1022,0.0,5.1191,5.1286,5.1501,5.1789,5.186,5.2074,5.241,5.2446,5.2434,5.248,5.248,5.248,5.248,5.248,5.248,5.248,5.248,5.248,5.248,5.248,5.248,5.248,5.248,5.248,5.248,5.248,5.248,5.248,5.248,5.248,5.248,5.248,5.248,5.248,5.248,5.248,5.248,5.248,5.248,5.248,5.248,5.248,5.248,5.248,5.248,5.248,5.248,5.248,5.248,5.248,5.248,5.248,5.248,5.248,5.2335,5.1756,5.1647,5.1647,5.1647,5.1588,5.1565,5.1647,5.1588,5.1565,5.1647,5.1176,5.0873,5.0873,5.0401,5.0185,5.0446,5.0467,5.0611,5.0853,5.0338,5.0065,5.0065,4.9537,4.922,4.922,4.922,4.922,0.0,0.0,0.0,0.0,0.0,0.0,0.0,0.0,0.0,0.0,0.0,0.0,0.0,0.0,0.0,0.0,0.0,0.0,0.0,0.0,0.0,0.0,0.0,0.0,0.0,0.0,5.1452,5.1335,5.1921,5.2293,5.2174,5.2269,5.2376,5.2376,5.247,5.248,5.248,5.248,5.248,5.248,5.248,5.248,5.248,5.248,5.2625,5.2915,5.2915,5.3059,5.3313,5.3313,5.3313,5.3313,5.3313,5.3313,5.3313,5.3313,5.3313,5.3241,5.2697,5.248,5.248,5.248,5.248,5.248,5.248,5.248,5.248,5.248,5.248,5.248,5.248,5.248,5.248,5.248,5.248,5.248,5.248,5.248,5.248,5.248,5.248,5.248,5.248,5.248,5.248,5.248,5.248,5.248,5.248,5.248,5.248,5.248,5.248,5.248,5.248,5.2009,5.1683,5.1683,5.1212,5.1049,5.1479,5.1412,5.154,5.2085,5.1465,5.1176,5.1298,5.0655,5.0314,5.0314,5.0177,5.0112,5.0112,0.0,0.0,0.0,0.0,0.0,0.0,0.0,0.0,0.0,0.0,0.0,0.0,0.0,0.0,0.0,0.0,0.0,0.0,0.0,0.0,0.0,0.0,0.0,5.2126,5.2222,5.2246,5.2126,5.234,5.247,5.2329,5.241,5.248,5.248,5.248,5.248,5.248,5.248,5.2516,5.2552,5.2552,5.2552,5.2552,5.2552,5.2951,5.3748,5.3748,5.4146,5.4907,5.4907,5.4907,5.4907,5.4907,5.4907,5.4907,5.4907,5.4907,5.4762,5.3168,5.2552,5.2552,5.2552,5.2552,5.2516,5.2516,5.248,5.248,5.248,5.248,5.248,5.248,5.248,5.248,5.248,5.248,5.248,5.248,5.248,5.248,5.248,5.248,5.248,5.248,5.248,5.248,5.248,5.248,5.248,5.248,5.248,5.248,5.248,5.248,0.0,5.248,5.248,5.248,5.248,5.248,5.2649,5.3093,5.2761,5.2857,5.3663,5.2611,5.2146,5.2549,5.1428,5.0805,5.0805,5.0408,5.0206,5.0206,0.0,0.0,0.0,0.0,0.0,0.0,0.0,0.0,0.0,0.0,0.0,0.0,0.0,0.0,0.0,0.0,0.0,0.0,0.0,0.0,0.0,5.2222,5.2305,5.2246,5.234,5.241,5.2387,5.2434,5.2516,5.247,5.2457,5.248,5.248,5.248,5.248,5.248,5.248,5.277,5.3349,5.3385,5.3639,5.4218,5.4255,5.4363,5.4581,5.4581,5.4689,5.4907,5.4907,5.4907,5.4907,5.4907,5.4907,5.4907,5.4907,5.4907,5.487,5.4399,5.4255,5.4255,5.4255,5.3856,5.3277,5.2697,5.248,5.248,5.248,5.248,5.248,5.248,5.248,5.248,5.248,5.248,5.248,5.248,5.248,5.248,5.248,5.248,5.248,5.248,5.248,5.248,5.248,5.248,5.248,5.248,5.248,5.248,5.248,5.248,0.0,5.248,5.248,5.248,5.248,5.248,5.2649,5.3093,5.3265,5.3567,5.4105,5.3828,5.3698,5.3804,5.3219,5.2862,5.2862,5.2479,5.2285,0.0,0.0,0.0,0.0,0.0,0.0,0.0,0.0,0.0,0.0,0.0,0.0,0.0,0.0,0.0,0.0,0.0,0.0,0.0,0.0,0.0,0.0,5.2376,5.2364,5.2364,5.2434,5.248,5.248,5.248,5.248,5.248,5.248,5.248,5.248,5.2806,5.2987,5.2987,5.3313,5.3711,5.4182,5.4218,5.4436,5.4907,5.4907,5.5051,5.5377,5.5377,5.5522,5.5848,5.5848,5.5848,0.0,5.5848,5.5848,5.5848,5.5848,5.5848,0.0,0.0,0.0,0.0,0.0,5.4617,5.4146,5.3675,5.3494,5.3494,5.3494,5.3494,5.3494,5.3494,5.3277,5.2987,5.2987,5.277,5.248,5.248,5.248,5.248,5.248,5.248,5.248,5.248,5.248,5.248,5.248,0.0,0.0,5.248,5.248,5.248,5.248,5.248,5.248,0.0,5.248,5.2572,5.2739,5.2761,5.2987,5.3528,5.3663,0.0,0.0,0.0,5.4296,5.4296,5.4088,0.0,0.0,0.0,5.3367,5.3367,0.0,0.0,0.0,5.1582,5.1111,0.0,0.0,0.0,0.0,0.0,0.0,0.0,0.0,0.0,0.0,0.0,0.0,0.0,0.0,0.0,0.0,5.2387,5.248,5.248,5.248,5.248,5.248,5.248,5.248,5.248,5.2589,5.2625,5.2625,5.3385,5.3856,5.3856,0.0,0.0,0.0,0.0,5.5088,5.516,5.516,5.5486,5.6138,5.6138,5.65,5.7188,5.7188,5.7188,5.7188,5.7188,5.7188,5.7188,5.7188,5.7188,5.7043,5.5703,5.516,5.516,5.5051,5.5015,0.0,0.0,0.0,0.0,5.4907,5.4907,5.4907,5.4907,5.4399,5.3856,5.3856,5.3313,5.277,5.277,5.277,5.277,5.277,5.277,5.277,5.277,5.277,5.277,5.277,5.277,5.277,5.277,5.2625,5.248,5.248,5.248,0.0,5.248,5.248,5.264,5.3008,0.0,0.0,5.4105,5.3906,5.405,5.4791,5.4533,5.4384,5.4384,5.4384,5.421,5.3833,5.3796,5.3758,5.3758,5.3758,5.3739,5.3664,5.227,5.1303,0.0,0.0,0.0,0.0,0.0,0.0,0.0,0.0,0.0,0.0,0.0,0.0,0.0,0.0,0.0,5.2329,5.2387,5.248,5.248,5.248,5.248,5.248,5.248,5.248,5.248,5.3096,5.3458,5.3458,5.4218,5.4689,5.4689,5.4834,0.0,5.5776,5.5776,5.6102,5.6754,5.6754,5.6826,5.6971,0.0,0.0,5.7188,5.7188,5.7188,5.7188,5.7188,5.7188,5.7188,5.7188,5.7188,5.7152,5.6862,5.6754,5.6681,5.6029,5.5776,5.5703,5.5124,5.4907,5.4907,5.4907,5.4907,5.4907,5.4907,5.4798,0.0,5.4689,5.4581,5.4436,5.4436,5.4436,5.4436,5.4436,5.4436,5.4436,5.4436,5.4436,5.4436,5.4436,5.4436,5.4436,5.4436,5.3349,5.248,5.248,5.248,5.248,5.248,5.248,5.2526,5.2618,5.29,5.3162,5.3326,5.387,5.4245,5.4418,5.4629,5.4791,5.4791,5.4791,5.4761,5.4661,5.4347,5.4193,5.4193,5.4193,5.4034,5.3702,5.3716,5.3477,0.0,0.0,0.0,0.0,0.0,0.0,0.0,0.0,0.0,0.0,0.0,5.2457,5.2387,0.0,5.2457,5.2387,5.2795,5.3096,5.3096,5.3458,5.3566,5.3132,5.3096,5.3277,5.3675,5.4074,5.4291,5.4291,5.5015,5.545,5.545,5.5848,5.621,5.6573,5.6609,5.679,5.7188,5.7188,5.7406,5.7804,5.7804,5.8021,5.8383,5.8383,5.8383,5.8383,5.8383,5.8166,5.7768,5.7369,5.7188,5.7188,5.7188,5.7188,5.7152,5.6754,5.6609,5.6536,5.6174,5.6066,5.6066,5.6066,5.6066,5.6066,5.6066,5.5776,5.545,5.545,5.5196,5.4907,5.4907,5.4907,5.4907,5.4907,5.4907,5.4907,5.4907,5.4907,5.4907,5.4907,5.4907,5.4907,5.4907,5.4218,5.3711,5.3711,5.3711,5.3711,5.3711,5.3711,5.3769,5.3986,5.4375,5.4691,5.4889,5.5108,5.505,5.4635,5.4791,5.492,5.492,5.492,5.492,5.492,5.4714,5.4597,5.4597,5.4597,5.45,5.4313,5.4528,5.4347,0.0,0.0,0.0,0.0,0.0,0.0,0.0,0.0,5.248,5.248,5.248,5.2552,5.2697,5.2733,5.277,5.2951,5.3494,5.3929,5.3929,5.4508,5.4725,5.4218,5.4037,5.4182,5.4834,5.5051,5.5124,5.5124,5.5812,5.621,5.621,5.6826,5.7188,5.7188,5.7188,5.7261,5.7442,5.7442,5.784,5.8637,5.8637,5.8963,5.9615,5.9615,5.9615,5.9615,5.9615,5.9253,5.8601,5.7949,5.7659,5.7659,5.7659,5.7659,5.7623,5.7333,5.7188,5.7188,5.7188,5.7188,5.7188,5.7188,5.7188,5.7188,5.7188,5.6754,5.621,5.621,5.5812,5.5341,5.5341,5.5341,5.5341,5.5341,5.5341,5.5341,5.5341,5.5341,5.5341,5.5341,5.5341,5.5341,5.5341,5.5341,5.5269,5.4943,5.4907,5.4931,5.5014,5.5014,5.5166,5.5566,5.5932,5.6254,5.6665,5.6533,5.6133,5.5451,5.5375,5.5337,5.5148,5.5148,5.5072,5.492,5.492,5.492,5.492,5.4897,5.4897,5.4912,5.4985,5.4692,5.2516,5.248,5.2457,5.234,5.2387,5.248,0.0,0.0,5.248,5.248,5.248,5.2733,5.3422,5.3566,5.3784,5.4508,5.4725,5.4762,5.4762,5.4834,5.5124,5.5667,5.516,5.4798,5.4907,5.5486,5.5884,5.5884,5.6609,5.708,5.708,5.7152,5.7188,5.7188,5.7188,5.755,5.8275,5.8275,5.8673,5.947,5.947,5.9506,5.9615,5.9615,5.9615,5.9615,5.9615,5.9542,5.947,5.9361,5.9325,5.9325,5.9325,5.9325,5.918,5.7732,5.7188,5.7188,5.7188,5.7188,5.7188,5.7188,5.7188,5.7188,5.7188,5.7152,5.708,5.708,5.7007,5.6935,5.6935,5.6935,5.6935,5.6935,5.6935,5.6935,5.6935,5.6935,5.6935,5.6935,5.6935,5.6935,5.6935,5.6935,5.6464,5.5124,5.4907,5.5038,5.5389,5.542,5.5595,5.6054,5.6134,5.6254,5.6665,5.7062,5.7232,5.7118,5.7118,5.6815,5.6095,5.6057,5.5678,5.492,5.492,5.492,5.492,5.4956,5.4985,5.4985,5.5071,5.499,5.248,5.248,5.248,5.241,5.2434,5.248,5.248,5.2842,5.3204,5.3204,5.3566,5.4001,5.4327,5.4399,5.4508,0.0,5.5269,5.5522,5.5522,5.5957,5.6355,5.6645,5.6428,5.6247,5.6247,5.65,5.6681,5.6681,5.7007,5.7188,5.7188,5.7623,5.7913,5.7913,5.8347,5.8746,5.9108,5.9108,5.9506,6.0303,6.0303,6.0557,6.1027,6.1027,6.1027,6.0991,6.052,6.0303,6.0267,5.9796,5.9615,5.9615,5.9615,5.9615,5.9542,5.8854,5.8601,5.8528,5.8058,5.7913,5.7804,5.7333,5.7188,5.7188,5.7188,5.7188,5.7188,5.7188,5.7188,5.7188,5.7188,5.7188,5.7188,5.7188,5.7188,5.7188,5.7188,5.7188,5.7188,5.7188,5.7188,5.7188,5.7188,5.7188,5.6971,5.6355,5.6247,5.6284,5.649,5.6736,5.7168,5.7864,5.7921,5.7884,5.7859,5.8024,5.7952,5.7422,5.7384,5.7232,5.6891,5.6891,5.677,5.6436,5.6398,5.6413,5.6458,5.6501,5.6516,5.6516,5.6625,5.6654,5.248,5.248,5.248,5.248,5.2661,5.2842,5.2842,5.3458,5.4037,5.4037,5.4508,5.4979,5.516,5.5196,5.5269,5.5486,5.5993,5.6319,5.6319,5.6826,5.7188,5.7188,5.7188,5.7188,5.7188,5.7188,5.7188,5.7188,5.7406,5.7514,5.7514,5.8311,5.8746,5.8746,5.9289,5.9724,5.9941,5.9941,6.0339,6.1109,6.1109,6.1435,6.1978,6.1978,6.1978,6.1978,6.1362,6.1109,6.11,6.0547,6.032,6.032,6.032,6.032,6.032,6.0267,5.9977,5.9542,5.8927,5.8746,5.8637,5.8058,5.7695,5.7514,5.7514,5.7369,5.7188,5.7188,5.7188,5.7188,5.7188,5.7188,5.7188,5.7188,5.7188,5.7188,5.7188,5.7188,5.7188,5.7188,5.7188,5.7188,5.7188,5.7188,5.7188,5.7188,5.7188,5.7239,5.7388,5.7886,5.8487,5.914,5.9307,5.9261,5.885,5.8965,5.8748,5.8142,5.8104,5.799,5.7763,5.7794,5.7711,5.7506,5.7521,5.7566,5.7587,5.7639,5.7654,5.7654,5.7777,5.7843,5.248,5.248,5.248,5.248,5.3096,5.3675,5.3675,5.4291,5.487,5.487,5.487,5.5124,5.5812,5.5957,5.621,5.7007,5.7152,5.7152,5.7152,5.7188,5.7188,5.7188,5.7188,5.7188,0.0,5.7188,5.7188,5.7188,5.7913,5.8347,5.8347,5.9144,5.9579,5.9579,5.9579,5.9977,6.0774,6.0774,6.1172,6.1942,6.1942,6.1978,6.1978,6.1978,6.1978,6.1978,6.1978,6.1942,6.1969,6.2068,6.2112,6.2112,6.2112,6.2112,6.2122,6.196,6.0955,5.9615,5.9579,5.9579,5.9579,5.9542,5.8999,5.8347,5.8347,5.7804,5.7188,5.7188,5.7188,5.7188,5.7188,5.7188,5.7188,5.7188,5.7188,5.7188,5.7188,5.7188,5.7188,5.7188,5.7188,5.7188,5.7188,5.7188,5.7188,5.7188,5.7188,5.7388,5.7831,5.8632,5.9178,5.9215,5.963,5.9698,5.9214,5.9609,5.9847,5.9826,5.9826,5.9485,5.8672,5.8713,5.8342,5.7506,5.7543,5.7587,5.7587,5.7735,5.7777,5.7815,5.7846,5.7886,5.248,5.2878,5.3313,5.3313,5.3892,5.4508,5.4508,5.5088,5.5631,5.5631,5.6066,5.65,5.6754,5.679,5.6862,5.7152,5.7188,5.7188,5.7188,5.7188,5.7406,5.7949,5.7985,0.0,0.0,0.0,0.0,5.7985,5.8746,5.9216,5.9216,5.9977,6.0412,6.0412,6.0892,6.1326,6.158,6.158,6.1725,6.1978,6.1978,6.2033,6.2141,6.2141,6.2195,6.2275,6.2275,6.2275,6.2275,6.2291,6.2318,6.2318,6.2318,6.2318,6.2354,6.2301,6.1858,6.1234,6.0619,6.0412,6.0339,5.976,5.9434,5.9216,5.9216,5.8637,5.7985,5.7985,5.7623,5.7188,5.7188,5.7188,5.7188,5.7188,5.7188,5.7188,5.7188,5.7188,5.7188,5.7188,5.7188,5.7188,5.7188,5.7188,5.7188,5.7188,5.7188,5.7388,5.7854,5.8439,5.891,5.9178,5.963,5.9853,5.9681,5.9831,5.995,5.9902,5.9998,5.9877,5.9602,5.9627,5.9589,5.9367,5.9359,5.9402,5.9459,5.9488,5.954,5.954,5.9568,5.9568,5.2915,5.353,5.4146,5.4146,5.4725,5.5305,5.5305,5.5884,5.6428,5.6428,5.6826,5.7188,5.7188,5.7188,5.7297,5.7587,5.7623,5.7732,5.8021,5.8058,5.8239,5.8782,5.8818,5.9035,0.0,0.0,0.0,5.8854,5.9579,6.005,6.005,6.0783,6.1218,6.1218,6.1725,6.1978,6.1978,6.1978,6.1978,6.1978,6.206,6.2114,6.2185,6.2238,6.2291,6.2407,6.2407,6.2407,6.2397,6.2449,6.2449,6.2449,6.2449,6.2449,6.2449,6.2433,6.2354,6.2166,6.1533,6.1272,6.1136,6.0629,6.0267,6.005,6.005,5.947,5.8818,5.8818,5.8456,5.7985,5.7695,5.7623,5.755,5.7261,5.7188,5.7188,5.7188,5.7188,5.7188,5.7188,5.7188,5.7188,5.7188,5.7188,5.7188,5.7188,5.7188,5.7388,5.7854,5.8311,5.875,5.9159,5.963,5.9902,5.9934,5.9982,5.9998,5.9982,6.0038,6.0068,6.0022,6.0137,6.0197,6.0294,6.0323,6.0366,6.0422,6.0422,6.0422,6.0422,6.0422,6.0422,5.3748,5.4363,5.4979,5.4979,5.5522,5.6066,5.6066,5.6645,5.7188,5.7188,5.7188,5.7224,0.0,0.0,5.7478,5.8311,5.842,5.8673,5.9506,5.9615,5.9615,0.0,0.0,0.0,0.0,0.0,0.0,5.9796,0.0,6.0856,6.0856,6.158,6.1978,6.1978,6.1978,6.1978,6.1978,6.1978,6.1978,6.1978,6.2141,6.2185,6.2212,6.2344,6.2397,6.2397,6.2397,6.2397,6.2423,6.2552,6.2629,6.2629,6.2629,6.2629,6.2603,6.2449,6.2433,6.237,6.2275,6.2141,6.2005,6.1978,6.1471,6.0856,6.0856,6.0303,5.9651,5.9651,5.9651,5.9434,5.8673,5.8456,5.8275,5.7514,5.7297,5.7261,5.7261,5.7224,5.7188,5.7188,5.7188,5.7188,5.7188,5.7188,5.7188,5.7239,5.7239,5.7412,5.7831,5.8289,5.875,5.914,5.963,5.9934,6.0013,6.0029,6.006,6.0084,6.0099,6.0099,6.0099,6.025,6.0294,6.0294,6.038,6.0422,6.0422,6.0422,6.0422,6.0422,6.0422,6.0422,5.4581,5.5124,5.5703,5.5703,5.6319,5.6899,5.6899,5.7043,5.7188,5.7188,5.7188,5.7369,5.7985,5.7587,0.0,5.9072,5.8782,0.0,5.9506,5.9615,0.0,6.0448,0.0,6.0738,6.1326,6.1543,0.0,0.0,6.158,6.1688,6.1688,6.1869,6.1978,6.1978,6.1978,6.1978,6.1978,6.1978,6.1978,6.1978,6.2141,6.2238,6.2344,6.2475,6.2603,6.2679,6.2679,6.2679,6.2705,6.273,6.2755,6.2755,6.2755,6.2755,6.273,6.2705,6.2629,6.2526,6.2397,6.2275,6.2141,6.2033,6.1833,6.1688,6.1688,6.1109,6.0484,6.0484,6.0086,5.9542,5.9361,5.9289,5.9253,5.9035,5.8528,5.8094,5.8094,5.7623,5.7188,5.7188,5.7188,5.7188,5.7188,5.7188,5.7313,5.7666,5.7737,5.7642,5.7412,5.809,5.8648,5.875,5.9505,5.9998,6.0013,6.0122,6.0167,6.0099,6.0256,6.0285,6.0264,6.0337,6.038,6.038,6.0408,6.0422,6.0422,6.0422,6.0422,6.0422,6.0422,6.0422,5.5377,5.5921,5.6536,5.6536,5.6862,5.7188,5.7188,5.7188,5.7188,5.7188,5.7478,5.7876,5.8311,5.8311,5.8673,5.9941,5.976,0.0,6.0557,6.0665,6.0846,0.0,6.1326,0.0,6.1942,6.1978,6.1978,0.0,6.1978,6.1978,6.1978,6.1978,6.1978,6.1978,6.1978,6.1978,6.1978,6.1978,6.2033,6.2087,6.2575,6.2891,6.3022,6.3544,6.383,6.3881,0.0,6.3392,6.3356,6.2989,6.278,6.278,6.278,6.278,6.278,6.278,6.2755,6.2679,6.2526,6.2423,6.2344,6.2168,6.2033,6.2005,6.206,6.1706,6.1326,6.1326,6.1027,6.0593,6.0231,6.0122,6.005,5.9687,5.9253,5.8927,5.8927,5.8565,5.8239,5.8239,5.8239,5.8239,5.8239,5.8405,5.8641,5.8904,5.9167,5.9257,5.8984,5.8953,5.8949,5.8949,5.9609,6.0076,6.0122,6.0235,6.0279,6.0241,6.0328,6.0394,6.0352,6.0394,6.0422,6.0422,6.0422,6.0422,6.0422,6.0422,6.0422,6.0422,6.0422,6.0422,5.6138,5.6681,5.7188,5.7188,5.7188,5.7188,5.7188,5.7188,5.7224,5.7333,5.7913,5.8456,5.8673,5.9216,5.9905,6.081,6.0883,6.1073,6.1869,6.1978,6.1978,6.1978,6.1978,6.1978,6.1978,6.1978,6.1978,6.1978,6.1978,6.1978,6.1978,6.1978,6.1978,6.1978,6.1978,6.1978,6.1978,6.2087,6.2205,6.2367,6.3328,6.3826,6.3994,6.4893,6.5301,6.5264,0.0,0.0,6.42,6.3466,6.3099,6.2989,6.2989,6.2915,6.278,6.278,6.278,6.278,6.2654,6.2603,6.2552,6.2291,6.2168,6.206,6.2195,6.2141,6.2033,6.2033,6.2005,6.186,6.1136,6.0955,6.081,6.0112,5.9859,5.9786,5.9812,5.9714,5.9641,5.9615,5.9615,5.9615,5.9641,6.0028,6.0344,6.0438,6.0921,6.1321,6.1382,6.0417,5.9755,5.9755,6.0091,6.0334,6.0432,6.037,6.0337,6.0408,6.0422,6.0422,6.0422,6.0422,6.0422,6.0422,6.0422,6.0422,6.0422,6.0422,6.0422,6.0422,6.0422,6.0422,5.6971,5.708,5.7188,5.7188,5.7188,5.7188,5.7188,5.7188,5.7369,5.8058,5.8311,5.8818,6.0158,5.9977,6.0086,6.1543,6.1218,6.1073,6.1869,6.1978,6.1978,0.0,6.1978,6.1978,6.1978,6.1978,0.0,0.0,0.0,6.1978,6.1978,6.1978,6.1978,6.1978,6.1978,6.1978,6.1978,6.2657,6.3066,6.3194,6.4166,6.4702,6.4872,6.515,6.5301,6.5301,0.0,0.0,6.5081,6.4934,6.4457,6.387,6.387,6.3429,6.278,6.278,6.278,6.278,6.2654,6.2603,6.2578,6.2397,6.2354,6.2291,6.2248,6.2158,6.2195,6.2195,6.2087,6.1969,6.196,6.1869,6.1779,6.1768,6.125,6.0804,6.0908,6.0311,5.9735,5.9641,5.9615,5.9641,5.9735,6.014,6.0623,6.1108,6.1578,6.2011,6.2399,6.1926,6.154,6.154,6.1365,6.127,6.1285,6.0733,6.0408,6.0422,6.0422,6.0422,6.0422,6.0422,6.0422,6.0422,6.0422,6.0422,6.0422,6.0422,6.0422,6.0422,6.0422,6.0422,5.7264,5.7388,5.7498,5.7264,5.7188,5.7264,5.7498,5.7899,5.8361,5.8677,5.9406,6.0169,6.0719,6.0846,6.1073,6.1869,6.1652,6.1543,6.1942,6.1978,6.1978,6.1978,6.1978,6.1978,6.1978,6.1978,6.1978,0.0,0.0,6.1978,6.1978,6.1978,6.1978,6.1978,6.2404,6.2621,6.2621,6.3501,6.3975,6.4139,6.5113,6.565,6.582,6.6339,6.6549,6.6512,6.6109,0.0,6.5888,6.5485,6.5081,6.4677,6.4237,6.3833,6.3429,6.2989,6.278,6.278,6.273,6.2705,6.2679,6.2629,6.25,6.2407,6.2318,6.2291,6.2265,6.2212,6.2168,6.2141,6.2158,6.2168,6.2141,6.2158,6.1894,6.1604,6.1614,6.1313,6.1032,6.0979,6.123,6.1446,6.152,6.2071,6.2633,6.2913,6.3385,6.379,6.4029,6.3889,6.341,6.2525,6.2315,6.2222,6.2222,6.1922,6.1707,6.1707,6.1707,6.1707,6.1707,6.1707,6.1707,6.1707,6.1707,6.1707,6.1707,6.1707,6.1707,6.1707,6.1707,6.1736,5.7401,5.7546,5.769,5.7437,5.7264,5.7375,5.8027,5.8717,5.9268,5.9551,6.0615,6.1421,6.1108,6.1543,6.1978,6.1978,6.1978,6.1978,6.1978,6.1978,6.1978,6.1978,6.1978,0.0,6.1978,6.1978,0.0,0.0,0.0,0.0,6.1978,6.2186,6.2259,6.2259,6.3019,6.3482,6.351,6.4383,6.4949,6.515,6.6125,6.6626,6.6769,6.7393,6.7687,6.765,6.7026,0.0,0.0,6.6072,6.5705,6.5485,6.4861,6.4383,6.4016,6.3319,6.2989,6.278,6.278,6.278,6.278,6.278,6.2654,6.2475,6.2449,6.2423,6.2397,6.2318,6.2238,6.2212,6.2265,6.2238,6.2185,6.2248,6.2265,6.2265,6.2114,6.2195,6.2318,6.2397,6.2781,6.3131,6.3234,6.3934,6.4445,6.4464,6.4968,6.5305,6.5305,6.5368,6.4902,6.349,6.3229,6.3197,6.3197,6.3006,6.2892,6.2892,6.2892,6.2892,6.2892,6.2892,6.2892,6.2892,6.2892,6.2892,6.2892,6.2892,6.2892,6.2892,6.2906,6.2949,5.7737,5.7546,5.7363,5.7737,5.7498,5.752,5.8807,5.9145,5.9622,6.1006,6.141,6.1567,6.1833,6.1942,6.1978,6.1978,6.1978,6.1978,6.1978,6.1978,6.1978,6.1978,6.1978,0.0,6.1978,6.1978,0.0,0.0,0.0,0.0,6.1978,6.2693,6.3092,6.3092,6.3852,6.4372,6.4475,6.5274,6.5842,6.6152,6.6994,6.7442,6.7577,6.765,6.7687,6.7687,6.7614,0.0,0.0,6.7504,6.7026,6.6366,6.6292,6.5375,6.409,6.4016,6.3466,6.278,6.278,6.278,6.278,6.278,6.278,6.273,6.2629,6.2578,6.2578,6.2578,6.2397,6.2238,6.25,6.237,6.2212,6.2344,6.2552,6.2654,6.2433,6.2449,6.2643,6.2977,6.306,6.3234,6.3729,6.4254,6.4612,6.4739,6.5117,6.5398,6.5398,6.5413,6.5337,6.5169,6.4496,6.4091,6.4091,6.335,6.2892,6.2892,6.2892,6.2892,6.2892,6.2892,6.2892,6.2892,6.2892,6.2892,6.2892,6.2892,6.2892,6.2892,6.2964,6.3006,5.7946,5.7955,5.809,5.8267,5.8534,5.8976,5.9801,6.0783,6.164,6.2209,6.2509,6.2606,6.2431,6.2185,6.1978,6.1978,6.1978,6.1978,6.1978,6.1978,6.1978,6.1978,6.1978,6.1978,0.0,0.0,6.1978,0.0,0.0,0.0,6.273,6.3019,6.3418,6.3889,6.4771,6.5255,6.5311,6.6307,6.6884,6.7021,6.7432,6.7633,6.7687,6.7687,6.7687,6.7687,6.7687,0.0,0.0,6.7687,6.7504,6.7173,6.6696,6.5815,6.4751,6.4273,6.3539,6.278,6.278,6.278,6.278,6.278,6.278,6.278,6.2654,6.2654,6.2705,6.2629,6.2526,6.2475,6.2578,6.2526,6.2449,6.25,6.2603,6.2629,6.2423,6.2718,6.3049,6.3191,6.3702,6.4176,6.4389,6.481,6.5101,6.5134,6.5298,6.5413,6.5413,6.5413,6.5413,6.5413,6.5108,6.4917,6.4917,6.4611,6.442,6.442,6.442,6.442,6.442,6.442,6.442,6.442,6.442,6.442,6.442,6.4465,6.4456,6.4456,6.4527,6.4622,5.8311,5.8354,5.8461,5.873,5.9305,5.9996,6.0678,6.1995,6.3008,6.3035,6.3227,6.3211,6.2631,6.2238,6.1978,6.1978,6.1978,6.1978,6.1978,6.1978,6.1978,6.1978,6.1978,6.1978,0.0,6.1978,6.2087,0.0,0.0,0.0,6.3889,6.3945,6.4227,6.4807,6.569,6.6203,6.6288,6.7094,6.7497,6.7552,6.766,6.7687,6.7687,6.7687,6.7687,6.7687,0.0,0.0,0.0,6.7687,6.7687,6.7614,6.7063,6.6366,6.5558,6.4751,6.3906,6.3172,6.289,6.278,6.278,6.278,6.278,6.278,6.2679,6.273,6.278,6.2679,6.2654,6.2654,6.2629,6.2629,6.2654,6.2603,6.2718,6.2818,6.2693,6.3121,6.3565,6.3718,6.4311,6.4827,6.4968,6.522,6.5413,6.5413,6.5413,6.5413,6.5413,6.5413,6.5413,6.5413,6.5413,6.5413,6.5413,6.5413,6.5413,6.5413,6.5413,6.5413,6.5413,6.5413,6.5413,6.5413,6.5444,6.542,6.542,6.5494,6.5523,6.5537,6.5608,6.5715,5.8931,5.8549,5.8113,5.897,5.9507,6.0108,6.141,6.2371,6.3078,6.3341,6.3379,6.3117,6.2185,6.1978,6.1978,6.1978,6.1978,6.1978,6.1978,6.1978,6.1978,6.1978,6.1978,6.1978,6.1978,6.1978,6.2331,0.0,0.0,0.0,6.5482,6.5698,6.5783,6.5783,6.6583,6.7126,6.747,6.747,6.7552,6.7687,6.7687,6.7687,6.7687,6.7687,6.7687,0.0,0.0,0.0,0.0,6.7687,6.7687,6.7687,6.7687,6.7173,6.6402,6.5595,6.4787,6.3943,6.3099,6.278,6.278,6.278,6.278,6.278,6.278,6.278,6.278,6.278,6.278,6.2755,6.2629,6.2705,6.2755,6.2629,6.3086,6.3445,6.3331,6.3718,6.4215,6.4704,6.4775,6.4934,6.5314,6.5413,6.5413,6.5413,6.5413,6.5413,6.5413,6.5413,6.5413,6.5413,6.5413,6.5413,6.5413,6.5413,6.5413,6.5413,6.5413,6.5413,6.5413,6.5413,6.5413,6.5413,6.545,6.5494,6.5494,6.5566,6.5594,6.5594,6.5753,6.5833,5.914,5.8989,5.9061,6.0202,6.1029,6.1843,6.28,6.365,6.4293,6.4388,6.3888,6.3325,6.2999,6.2438,6.1978,6.1978,6.1978,6.1978,6.1978,6.1978,6.1978,6.1978,6.1978,6.1978,0.0,0.0,0.0,0.0,0.0,0.0,6.5831,6.6434,6.6733,6.6619,6.7073,6.7387,6.747,6.7579,6.766,6.7687,6.7687,6.7687,6.7687,6.7687,0.0,0.0,0.0,0.0,0.0,6.7687,6.7687,6.7687,6.7687,6.721,6.6476,6.6219,6.5264,6.4053,6.3759,6.3319,6.278,6.278,6.278,6.278,6.278,6.278,6.278,6.278,6.278,6.278,6.2755,6.2755,6.288,6.3158,6.3354,6.358,6.3803,6.4253,6.4593,6.4757,6.5019,6.5252,6.5398,6.5413,6.5413,6.5413,6.5413,6.5413,6.5413,6.5413,6.5413,6.5413,6.5413,6.5413,6.5413,6.5413,6.5413,6.5413,6.5413,6.5413,6.5413,6.5435,6.5465,6.5465,6.5537,6.5566,6.5566,6.5688,6.5742,6.5795,6.5859,6.5933,5.947,5.9551,5.9909,6.0863,6.197,6.2976,6.3469,6.4282,6.4835,6.4652,6.3971,6.3371,6.3164,6.2504,6.1978,6.1978,6.1978,6.1978,6.1978,6.1978,6.2005,6.206,6.2087,0.0,0.0,6.3039,0.0,0.0,0.0,0.0,6.6445,6.7011,6.7266,6.719,6.7387,6.7497,6.7552,6.766,6.7687,6.7687,6.7687,6.7687,6.7687,6.7687,0.0,0.0,0.0,0.0,0.0,6.7687,6.7687,6.7687,6.7687,6.7393,6.6916,6.6623,6.5668,6.4494,6.42,6.3539,6.278,6.278,6.278,6.278,6.278,6.278,6.278,6.278,6.278,6.283,6.3014,6.3062,6.3181,6.3609,6.3867,6.4053,6.4311,6.4721,6.5035,6.5035,6.5236,6.5413,6.5413,6.5413,6.5413,6.5413,6.5413,6.5413,6.5413,6.5413,6.5413,6.5413,6.5413,6.5413,6.5413,6.5413,6.5429,6.542,6.542,6.5435,6.5465,6.5509,6.5537,6.5537,6.5646,6.5688,6.5688,6.5793,6.5859,6.5897,6.5897,6.5967,0.0,6.0254,6.0641,6.109,6.2425,6.362,6.3658,6.432,0.0,6.4289,6.3782,6.328,6.2794,6.2308,6.1978,6.1978,6.1978,6.1978,6.1978,6.1978,6.2033,6.2195,6.2185,0.0,6.35,6.3636,0.0,0.0,0.0,0.0,6.7202,6.7414,6.7497,6.7497,6.7497,6.7552,6.7687,6.7687,6.7687,6.7687,6.7687,6.7687,6.7687,6.7687,0.0,0.0,0.0,0.0,0.0,6.7687,6.7687,6.7687,6.7687,6.7687,6.7614,6.6843,6.6072,6.5264,6.4457,6.3613,6.2853,6.2817,6.278,6.278,6.278,6.278,6.2805,6.283,6.2855,6.2978,6.3422,6.3557,6.3668,6.4036,6.4483,6.4792,6.4865,6.5117,6.5413,6.5413,6.5413,6.5413,6.5413,6.5413,6.5413,6.5413,6.5413,6.5413,6.5413,6.5413,6.5413,6.5413,6.5413,6.5413,6.5429,6.5429,6.542,6.5494,6.5509,6.5537,6.5594,6.5608,6.5608,6.5608,6.5728,6.5807,6.5807,6.5885,6.5923,6.5897,6.5909,6.6052,6.0643,0.0,6.1149,6.1915,6.2842,6.3772,0.0,6.4775,6.4781,6.4289,6.3782,6.328,6.2794,6.2308,6.1978,6.1978,6.1978,6.1978,6.1978,6.1978,6.2005,6.2033,6.2141,6.2539,6.3393,6.4093,0.0,0.0,0.0,6.725,6.7542,6.7633,6.766,6.766,6.766,6.766,6.7687,6.7687,6.7687,6.7687,6.7687,6.7687,6.7687,6.7687,0.0,0.0,0.0,0.0,6.7687,6.7687,6.7687,6.7687,6.7687,6.7687,6.7677,6.7467,6.6916,6.6109,6.5301,6.4494,6.3686,6.3025,6.278,6.278,6.278,6.278,6.288,6.3215,6.3331,6.3445,6.3867,6.3971,6.4056,6.452,6.4721,6.4862,6.5204,6.5329,6.5413,6.5413,6.5413,6.5413,6.5413,6.5413,6.5413,6.5413,6.5413,6.5413,6.5413,6.5413,6.5413,6.5413,6.5413,6.5444,6.5465,6.5465,6.5479,6.5494,6.5552,6.558,6.5594,6.5701,6.5767,6.5767,6.5833,6.5872,6.5872,6.6013,6.6063,6.6074,6.6157,6.6679,6.0984,6.1245,6.1631,6.2676,6.3421,6.4067,6.4721,6.4707,6.4521,6.4249,6.3609,6.2999,6.2745,6.253,6.2344,6.2033,6.2291,6.2386,6.2141,6.2033,6.2033,6.2168,6.2275,6.2818,0.0,0.0,0.0,0.0,0.0,6.7606,6.7687,6.7687,6.7687,6.7687,6.7687,6.7687,6.7687,6.7687,6.7687,6.7687,6.7687,6.7687,6.7687,6.7687,6.7687,0.0,0.0,0.0,6.7687,6.7687,6.7687,6.7687,6.7687,6.7687,6.7687,6.7687,6.7173,6.6439,6.5999,6.5081,6.3943,6.3099,6.278,6.283,6.3062,6.3134,6.3181,6.3422,6.3609,6.3888,6.4311,6.4426,6.452,6.4985,6.5068,6.5117,6.5345,6.5413,6.5413,6.5413,6.5413,6.5413,6.5413,6.5413,6.5413,6.5413,6.5413,6.5413,6.5413,6.5413,6.5413,6.5413,6.5405,6.545,6.5494,6.5566,6.5632,6.5632,6.5674,6.5701,6.5742,6.582,6.5846,6.5846,6.5885,6.6126,6.6592,6.6636,6.6942,6.7384,6.744,6.7839,6.1334,6.1636,6.2146,6.3305,6.3954,6.4387,6.4745,6.4501,6.4169,6.4009,6.3317,6.2695,6.262,6.2707,6.2581,6.2114,6.2567,6.2781,6.2291,6.2141,6.2141,6.2344,6.2433,0.0,6.5102,0.0,0.0,0.0,0.0,6.7687,6.7687,6.7687,6.7687,6.7687,6.7687,6.7687,6.7687,6.7687,6.7687,6.7687,6.7687,6.7687,6.7687,6.7687,6.7687,0.0,0.0,0.0,6.7687,6.7687,6.7687,6.7687,6.7687,6.7687,6.7687,6.7687,6.7247,6.6659,6.6549,6.5448,6.4005,6.3284,6.3015,6.299,6.3468,6.3668,6.3712,6.3712,6.395,6.4331,6.4775,6.4879,6.4985,6.5314,6.5413,6.5413,6.5413,6.5413,6.5413,6.5413,6.5413,6.5413,6.5413,6.5413,6.5413,6.5413,6.5413,6.5413,6.5413,6.5429,6.5429,6.5429,6.5465,6.5523,6.5537,6.5688,6.5858,6.6026,6.591,6.5833,6.5897,6.6063,6.6126,6.6126,6.6278,6.6791,6.761,6.7648,6.8088,6.897,6.8953,6.9143,6.2354,6.2671,6.286,6.3457,6.4191,6.4726,6.4367,6.4249,6.3967,6.3131,6.2818,6.2595,6.2308,6.2185,6.2132,6.2195,6.2265,6.2344,6.2381,6.2354,6.2354,6.2407,0.0,6.3262,0.0,0.0,0.0,0.0,0.0,6.7687,6.7687,6.7687,6.7687,6.7687,6.7687,6.7687,6.7687,6.7687,6.7687,6.7687,6.7687,6.7687,6.7687,6.7687,6.7687,0.0,0.0,6.7687,6.7687,6.7687,6.7687,6.7687,6.7687,6.7687,6.7687,6.7687,6.7614,6.7393,6.6733,6.5448,6.4129,6.4348,6.397,6.3468,6.3888,6.4292,6.4613,6.4613,6.4649,6.4792,6.522,6.5298,6.5314,6.5398,6.5413,6.5413,6.5413,6.5413,6.5413,6.5413,6.5413,6.5413,6.5413,6.5413,6.5413,6.5413,6.5413,6.5413,6.5413,6.5435,6.5479,6.5479,6.5537,6.5608,6.5753,6.578,6.6192,6.7089,6.6367,6.5885,6.5897,6.6703,6.716,6.716,6.7996,6.8519,6.866,6.8832,6.9017,6.9151,6.9276,6.9738,6.2691,6.3426,6.3917,6.3571,6.4027,6.4539,6.4577,6.4367,6.3988,6.3234,6.2892,6.2606,6.2265,6.2412,6.2657,6.2855,6.2567,6.2344,6.2475,6.2423,6.2459,0.0,0.0,6.3763,0.0,0.0,0.0,0.0,0.0,0.0,6.7687,6.7687,6.7687,6.7687,6.7687,6.7687,6.7687,6.7687,6.7687,6.7687,6.7687,6.7687,6.7687,6.7687,6.7687,6.7687,0.0,6.7687,6.7687,6.7687,6.7687,6.7687,6.7687,6.7687,6.7687,6.7687,6.7687,6.763,6.707,6.6384,6.5779,6.5747,6.5191,6.4603,6.4991,6.499,6.4865,6.5052,6.5117,6.5188,6.5329,6.5413,6.5413,6.5413,6.5413,6.5413,6.5413,6.5413,6.5413,6.5413,6.5413,6.5413,6.5413,6.5413,6.5413,6.5413,6.542,6.5435,6.5435,6.5509,6.5552,6.5552,6.6044,6.6367,6.6446,6.7012,6.7313,6.7248,6.743,6.749,6.7436,6.7929,6.8187,6.8187,6.866,6.9172,6.9714,6.9813,7.0142,7.0696,7.0766,7.1011,6.295,6.3878,6.4483,6.3483,6.3718,6.4269,6.4483,6.4172,6.3739,6.3325,6.2916,6.2504,6.2238,6.2618,6.3001,6.3215,6.2793,6.2475,6.2629,6.2552,6.2526,0.0,0.0,0.0,0.0,0.0,0.0,0.0,0.0,0.0,6.7687,6.7687,6.7687,6.7687,6.7687,6.7687,6.7687,6.7687,6.7687,6.7687,6.7687,6.7687,6.7687,6.7687,6.7687,6.7687,6.7687,6.7687,6.7687,6.7687,6.7687,6.7687,6.7687,6.7687,6.7687,6.7687,6.7794,6.7804,6.7567,6.7449,6.7336,6.7105,6.6495,6.5914,6.6327,6.6015,6.5589,6.5887,6.5834,6.5643,6.5452,6.5413,6.5413,6.5413,6.5413,6.5413,6.5413,6.5413,6.5413,6.5413,6.5413,6.5413,6.5413,6.5413,6.5413,6.5405,6.5465,6.5585,6.5791,6.5886,6.6005,6.6211,6.6894,6.7345,6.7372,6.8446,6.8733,6.7877,6.85,6.8829,6.8752,6.9056,6.9257,6.9257,6.9487,7.0024,7.0771,7.0771,7.1199,7.1993,7.1993,7.1995,6.3403,6.3808,6.4009,6.2975,6.3498,6.407,6.3615,6.3141,6.2794,6.2769,6.249,6.2212,6.2185,6.2318,6.2449,6.2475,6.2526,6.2629,6.2755,0.0,6.2755,0.0,0.0,0.0,0.0,0.0,0.0,0.0,0.0,0.0,6.7687,6.7687,6.7687,6.7687,6.7687,6.7687,6.7687,6.7687,6.7687,6.7687,6.7687,6.7687,6.7687,6.7687,6.7687,6.7687,6.7687,6.7687,6.7687,6.7687,6.7687,6.7687,6.7687,6.7687,6.7687,6.7687,6.7993,6.8346,6.832,6.8105,6.7894,6.8243,6.7808,6.7255,6.7654,6.7713,6.769,6.7706,6.7171,6.6407,6.5605,6.5413,6.5413,6.5413,6.5413,6.5413,6.5413,6.5413,6.5413,6.5413,6.5413,6.5413,6.5413,6.5413,6.5405,6.5479,6.5494,6.5791,6.6706,6.6853,6.7215,6.8021,6.8229,6.8372,6.8541,6.9616,7.0188,6.9989,6.9306,6.8886,6.8878,6.9798,7.0292,7.0292,7.1277,7.1822,7.1864,7.1864,7.1912,7.2004,7.2004,7.201,6.337,6.3803,6.3904,6.2581,6.2988,6.3637,6.3461,6.328,6.3047,6.2769,6.2682,6.2592,6.2344,6.25,6.2603,6.2526,6.2629,6.273,6.278,6.278,6.278,0.0,0.0,0.0,0.0,0.0,0.0,0.0,0.0,0.0,0.0,6.7687,6.7687,6.7687,6.7687,6.7687,6.7687,6.7687,6.7687,6.7687,6.7687,6.7687,6.7687,6.7687,6.7687,6.7687,6.7687,6.7687,6.7687,6.7687,6.7687,6.7687,6.7687,6.7889,6.8134,6.8134,6.8442,6.887,6.9155,6.9176,6.9169,6.9561,6.915,6.8498,6.8667,6.8317,6.7897,6.7897,6.7668,6.7247,6.6407,6.5796,6.5413,6.5413,6.5413,6.5413,6.5413,6.5413,6.5413,6.5413,6.5834,6.6231,6.6238,6.6712,6.7087,6.7175,6.7233,6.7376,6.7711,6.7818,6.8012,6.832,6.8923,6.9649,7.0518,7.0946,7.1248,7.1312,7.1005,7.078,7.0667,7.1126,7.1406,7.1406,7.178,7.1993,7.2,7.2,7.2006,7.2016,7.2016,7.2017,6.3423,6.3659,6.3674,6.2515,6.2606,6.2988,6.2988,6.2988,6.2916,6.2745,6.2682,6.2592,6.2475,6.2578,6.2654,0.0,6.2705,6.278,6.278,6.278,6.278,0.0,0.0,0.0,0.0,0.0,0.0,0.0,0.0,0.0,0.0,6.7687,6.7687,0.0,6.7687,6.7687,6.7687,6.7687,6.7687,6.7687,6.7687,6.7687,6.7687,6.7687,6.7687,6.7687,6.7687,6.7687,6.7687,6.7687,6.7687,6.7714,6.7863,6.8109,6.8418,6.8586,6.8915,6.9344,6.9682,6.9891,7.0038,7.0298,7.0037,6.9578,6.9578,6.9158,6.8699,6.8699,6.8508,6.8165,6.763,6.6827,6.6178,6.6178,6.6178,6.6193,6.6246,6.6231,6.6193,6.6292,6.6736,6.7156,6.7246,6.7721,6.8133,6.8206,6.8262,6.8419,6.8715,6.8835,6.8986,6.934,7.0021,7.079,7.165,7.177,7.1858,7.1984,7.1987,7.193,7.1794,7.1924,7.199,7.1995,7.1995,7.2,7.201,7.201,7.2016,7.1984,7.1984,7.1985,6.3659,6.3379,6.3303,6.2818,6.236,6.2005,6.1978,6.1978,6.2132,6.2595,6.2334,6.2141,6.2526,6.2475,0.0,6.2578,6.2705,6.278,6.278,6.278,6.278,0.0,0.0,0.0,0.0,0.0,0.0,0.0,0.0,0.0,0.0,6.7687,6.7687,0.0,6.7687,6.7687,6.7687,6.7687,6.7687,6.7687,6.7687,6.7687,6.7687,6.7687,6.7687,6.7687,6.7687,6.7714,6.7714,6.7714,6.7714,6.7767,6.8235,6.8418,6.8467,6.8937,6.9385,6.9816,6.9816,7.0073,7.0419,7.0419,7.0419,7.0419,7.0419,7.0419,7.0419,7.0419,6.9846,6.9196,6.9196,6.8547,6.7897,6.7897,6.7913,6.7928,6.8059,6.7998,6.7959,6.8162,6.8157,6.8127,6.8215,6.823,6.8258,6.8328,6.8304,6.8677,6.9577,6.983,7.0302,7.1387,7.1621,7.17,7.17,7.1909,7.1987,7.1987,7.1987,7.1987,7.1987,7.1987,7.1995,7.2006,7.2006,7.201,7.1981,7.1981,7.1985,7.1989,7.1989,7.1991,6.2975,6.2903,6.2794,6.2308,6.236,6.2412,6.2087,6.1978,6.2087,6.2423,6.2449,6.2449,6.2578,6.2654,0.0,6.2603,6.2705,6.278,6.278,6.3319,6.3723,6.3723,0.0,0.0,0.0,0.0,0.0,0.0,0.0,0.0,0.0,6.7687,6.7687,0.0,6.7687,6.7687,6.7687,6.7687,6.7687,6.7687,6.7687,6.7687,6.7687,6.7687,6.7687,6.7687,6.7687,6.7889,6.821,6.821,6.8394,6.8679,6.849,6.8803,6.9385,6.9544,6.9853,7.0213,7.0213,7.0281,7.0419,7.0419,7.0419,7.0419,7.0419,7.0419,7.0419,7.0419,7.0228,7.0091,7.0139,6.9964,6.952,6.8334,6.8028,6.8059,6.8133,6.8133,6.8133,6.8177,6.8622,6.9059,6.9169,6.9644,7.0057,7.0127,7.014,7.0298,7.0703,7.0922,7.1162,7.1589,7.1677,7.177,7.1913,7.1979,7.1993,7.2,7.2002,7.2002,7.2002,7.2002,7.2006,7.2016,7.2016,7.1981,7.1988,7.1988,7.1989,7.1992,7.1992,7.1992,6.2975,6.2831,6.262,6.236,6.236,6.236,6.2141,6.2087,6.2168,6.2423,6.25,6.2552,6.2654,6.2705,0.0,6.2679,6.2755,0.0,6.278,6.3539,6.409,6.409,0.0,0.0,0.0,0.0,0.0,0.0,0.0,0.0,0.0,6.7687,6.7687,0.0,6.7687,6.7687,6.7687,6.7687,6.7687,6.7687,6.7687,6.7687,6.7687,6.7687,6.7687,6.7714,6.7889,6.8222,6.8665,6.8665,6.8825,6.9091,6.8981,6.9282,6.9835,6.9983,7.0196,7.0419,7.0419,7.0419,7.0419,7.0419,7.0419,7.0419,7.0419,7.0435,7.0467,7.0467,7.0483,7.0531,7.0616,7.0632,7.0402,6.9383,6.9115,6.913,6.9218,6.9203,6.9203,6.926,6.963,6.9975,7.0085,7.0522,7.0885,7.1005,7.1077,7.1186,7.1365,7.1482,7.1634,7.1794,7.1803,7.1866,7.1993,7.1995,7.2,7.2012,7.2012,7.2014,7.2017,7.2014,7.2016,7.1985,7.1985,7.1988,7.1991,7.1991,7.1992,7.1992,7.1992,7.1992,6.328,6.2951,6.262,6.262,6.2308,6.2033,6.2158,6.2212,6.2291,6.2552,6.25,6.25,6.2755,6.2705,6.2654,6.278,6.278,0.0,0.0,0.0,6.4237,0.0,0.0,0.0,0.0,0.0,0.0,0.0,0.0,0.0,0.0,6.7687,6.7687,6.7687,6.7687,6.7687,6.7687,6.7687,6.7687,0.0,6.7687,6.7687,6.7687,6.7687,6.7741,6.7784,6.8297,6.8757,6.9155,6.9155,6.9176,6.9261,6.9643,6.9835,6.991,7.0247,7.0419,7.0419,7.0419,7.0419,7.0419,7.0435,7.0435,7.0435,7.0435,7.0522,7.0623,7.0623,7.0647,7.0723,7.0723,7.0723,7.0723,7.0737,7.0699,7.0752,7.0787,7.0743,7.0743,7.0871,7.0843,7.0829,7.0925,7.0939,7.0992,7.1214,7.1386,7.1559,7.1689,7.1711,7.1794,7.1982,7.199,7.1995,7.2004,7.2006,7.2012,7.1981,7.1981,7.1985,7.199,7.1985,7.1985,7.199,7.199,7.1991,7.1992,7.1992,7.1992,7.1992,7.1992,7.1992,6.2281,6.2238,6.2132,6.2132,6.2087,6.206,6.2328,6.2381,6.2397,6.2578,6.2654,6.273,6.278,6.278,6.2755,6.278,6.278,6.3062,0.0,0.0,0.0,0.0,0.0,0.0,0.0,0.0,0.0,0.0,0.0,0.0,6.7687,6.7687,0.0,6.7687,6.7687,6.7687,6.7687,6.7687,6.7687,0.0,6.7687,6.7687,6.7687,6.7687,6.7915,6.8297,6.9134,6.9564,6.9643,6.9643,6.9834,7.0088,6.9872,7.0001,7.0264,7.0386,7.0419,7.0419,7.0522,7.0554,7.0569,7.0632,7.0624,7.0624,7.0624,7.0678,7.0693,7.0693,7.0708,7.0684,7.0758,7.0772,7.0787,7.0843,7.0815,7.0787,7.0857,7.0857,7.0857,7.0898,7.0885,7.0914,7.1101,7.1136,7.1175,7.1395,7.1573,7.1671,7.17,7.185,7.1933,7.1987,7.1997,7.2004,7.2006,7.2012,7.1981,7.1988,7.1988,7.199,7.1992,7.199,7.199,7.1992,7.1992,7.1992,7.1992,7.1992,7.1992,7.1992,7.1992,7.1992,6.2255,6.2158,6.2005,6.2087,6.2114,6.2168,6.2344,6.2449,6.25,6.2603,6.2705,6.278,6.278,6.278,6.278,6.278,6.3172,6.3576,6.4016,0.0,0.0,0.0,0.0,0.0,0.0,0.0,0.0,0.0,0.0,6.7687,6.7687,6.7687,6.7687,6.7687,6.7687,6.7687,6.7687,6.7687,6.7687,6.7687,6.7687,6.781,6.8033,6.8033,6.8418,6.9091,6.9584,6.9928,7.0091,7.0091,7.0213,7.0402,7.0161,7.023,7.0506,7.0506,7.0499,7.0547,7.0632,7.0647,7.0647,7.0708,7.0723,7.0723,7.0723,7.0699,7.0729,7.0729,7.0758,7.0801,7.0829,7.0843,7.0857,7.0885,7.0871,7.0857,7.0885,7.0898,7.0939,7.103,7.1016,7.1101,7.13,7.1413,7.1466,7.1587,7.1749,7.1854,7.1854,7.1933,7.1997,7.1997,7.2006,7.2016,7.198,7.1984,7.1988,7.1991,7.1991,7.1992,7.1992,7.1992,7.1992,7.1992,7.1992,7.1992,7.1992,7.1992,7.1992,7.1992,7.1992,7.1992,6.2479,6.2281,6.2033,6.2141,6.2158,6.2248,6.2381,6.25,6.2603,6.2629,6.273,6.278,6.278,6.278,6.2853,6.3025,6.3613,6.42,6.4457,0.0,0.0,0.0,0.0,0.0,0.0,0.0,0.0,0.0,0.0,6.7687,6.7687,6.7687,6.7687,6.7687,6.7687,6.7687,6.7687,6.7687,6.7687,6.7687,6.7757,6.8109,6.8619,6.8642,6.9091,6.9816,6.9928,7.0144,7.0451,7.0451,7.0451,7.0451,7.0451,7.0499,7.0601,7.0601,7.0647,7.0723,7.0699,7.0737,7.0737,7.0714,7.0714,7.0714,7.0714,7.0758,7.0815,7.0815,7.0857,7.0898,7.0898,7.0939,7.094,7.094,7.0966,7.0992,7.094,7.094,7.1017,7.1186,7.127,7.1349,7.1505,7.1653,7.1731,7.1736,7.1877,7.1993,7.1995,7.2004,7.2008,7.2008,7.2017,7.1985,7.1989,7.199,7.1991,7.1992,7.1992,7.1992,7.1992,7.1992,7.1992,7.1992,7.1992,7.1992,7.1992,7.1992,7.1992,7.1992,7.1992,7.1992,6.2087,6.206,6.1978,6.2005,6.2114,6.2248,6.2381,6.25,6.2629,6.2755,6.278,6.278,6.278,6.278,6.3062,6.3796,6.4016,6.4567,6.5962,6.6366,0.0,0.0,0.0,0.0,0.0,0.0,0.0,0.0,6.7687,6.7687,6.7687,6.7687,6.7687,6.7687,6.7687,6.7687,6.7687,6.7687,6.7687,6.7714,6.8109,6.8757,6.9623,6.9663,6.9759,6.9927,7.0381,7.0609,7.0639,7.0639,7.0639,7.0639,7.0639,7.0693,7.0693,7.0693,7.0708,7.0723,7.0758,7.0772,7.0787,7.0857,7.0871,7.0871,7.0871,7.0871,7.0885,7.0885,7.0885,7.0898,7.0898,7.1042,7.117,7.117,7.128,7.1358,7.1214,7.117,7.1236,7.1413,7.1566,7.1659,7.1671,7.1846,7.194,7.1953,7.1961,7.2006,7.2016,7.2017,7.2017,7.2017,7.1986,7.1989,7.1989,7.1991,7.1992,7.1992,7.1992,7.1992,7.1992,7.1992,7.1992,7.1992,7.1992,7.1992,7.1992,7.1992,7.1992,7.1992,7.1992,7.1992,6.1978,6.206,6.2141,6.2222,6.2318,6.2449,6.25,6.2603,6.2705,6.2679,6.2755,6.278,6.278,6.3209,6.3649,6.4016,6.4861,6.5705,6.6402,6.688,0.0,0.0,0.0,0.0,0.0,0.0,0.0,0.0,6.7687,6.7687,6.7687,6.7687,6.7687,6.7687,6.7687,6.7687,6.7687,6.7687,6.7863,6.8173,6.8878,6.9468,6.9907,7.026,7.0381,7.0319,7.0578,7.0723,7.0723,7.0723,7.0723,7.0723,7.0723,7.0699,7.0743,7.0743,7.0772,7.0815,7.0843,7.0857,7.0857,7.0885,7.0898,7.0898,7.0898,7.0898,7.0898,7.0898,7.0898,7.0939,7.1055,7.1136,7.1246,7.1329,7.1422,7.1489,7.1466,7.1439,7.1413,7.1587,7.177,7.1877,7.1877,7.1951,7.2008,7.2014,7.2014,7.2016,7.2019,7.1984,7.1986,7.1986,7.199,7.1992,7.1992,7.1992,7.1992,7.1992,7.1992,7.1992,7.1992,7.1992,7.1992,7.1992,7.1992,7.1992,7.1992,7.1992,7.1992,7.1992,7.1992,7.1992,6.1978,6.2087,6.2195,6.2328,6.2449,6.2552,6.2603,6.2705,6.2828,6.2973,6.306,6.3209,6.3429,6.3796,6.4237,6.464,6.5705,6.6549,6.6769,6.732,0.0,0.0,0.0,0.0,0.0,0.0,0.0,0.0,6.7687,6.7687,6.7687,6.7687,6.7687,6.7687,6.781,6.7889,6.7889,6.8007,6.8357,6.8906,6.9606,7.0015,7.0188,7.0601,7.0767,7.0647,7.0737,7.0729,7.0729,7.0729,7.0729,7.0729,7.0729,7.0772,7.0815,7.0815,7.0857,7.0898,7.0898,7.0898,7.0898,7.0898,7.0898,7.0898,7.0898,7.0898,7.0898,7.0898,7.0952,7.1017,7.117,7.126,7.1338,7.1521,7.1573,7.1621,7.1689,7.1659,7.1647,7.1775,7.1894,7.201,7.201,7.2016,7.1981,7.1982,7.1984,7.1984,7.1985,7.1989,7.199,7.199,7.1992,7.1992,7.1992,7.1992,7.1992,7.1992,7.1992,7.1992,7.1992,7.1992,7.1992,7.1992,7.1992,7.1992,7.1992,7.1992,7.1992,7.1992,7.1992,7.1992,6.1978,6.2005,6.2033,6.2195,6.2291,6.2423,6.2578,6.2705,6.3,6.387,6.4016,6.4273,6.5044,6.4567,6.4604,6.6109,6.6439,6.6769,6.7504,6.765,6.7687,0.0,0.0,0.0,0.0,0.0,0.0,0.0,6.7687,6.7687,6.7687,6.7687,6.7687,6.7687,6.8134,6.837,6.837,6.8878,6.9391,6.9923,6.9959,7.0243,7.0654,7.0743,7.0787,7.0787,7.0857,7.0885,7.0885,7.0885,7.0885,7.0885,7.0885,7.0885,7.0898,7.0898,7.0898,7.0898,7.0898,7.0898,7.0898,7.0898,7.0898,7.0898,7.0898,7.0898,7.0898,7.0898,7.1055,7.1203,7.1214,7.1426,7.1683,7.1689,7.1846,7.1924,7.1721,7.1827,7.1997,7.1963,7.1973,7.2019,7.2019,7.2019,7.1982,7.1989,7.1989,7.199,7.1992,7.1992,7.1992,7.1992,7.1992,7.1992,7.1992,7.1992,7.1992,7.1992,7.1992,7.1992,7.1992,7.1992,7.1992,7.1992,7.1992,7.1992,7.1992,7.1992,7.1992,7.1992,7.1992,7.1992,6.1978,6.206,6.2141,6.2195,6.237,6.2698,6.3236,6.3511,6.387,6.4714,6.4861,6.5118,6.5925,6.5815,6.5815,6.6402,6.6916,6.7357,6.765,6.7687,6.7687,0.0,0.0,0.0,0.0,0.0,0.0,0.0,0.0,6.816,6.816,6.8477,6.8651,6.8651,6.8862,6.8994,6.8994,6.947,6.9813,7.0044,7.0353,7.0631,7.0829,7.0843,7.0857,7.0857,7.0885,7.0898,7.0898,7.0898,7.0898,7.0898,7.0898,7.0898,7.0898,7.0898,7.0898,7.0898,7.0898,7.0898,7.0898,7.0898,7.0898,7.0898,7.0898,7.0898,7.0939,7.1079,7.1147,7.1239,7.1458,7.1595,7.1721,7.1877,7.1945,7.1997,7.1906,7.1956,7.2008,7.2014,7.1982,7.1987,7.1987,7.1989,7.1991,7.1992,7.1992,7.1992,7.1992,7.1992,7.1992,7.1992,7.1992,7.1992,7.1992,7.1992,7.1992,7.1992,7.1992,7.2265,7.2812,7.2812,7.3086,7.3672,7.3672,7.3125,7.1992,7.1992,7.1992,7.1992,7.1992,7.1992,6.1978,6.206,6.2168,6.2238,6.2397,6.2771,6.3716,6.4002,6.4383,6.5485,6.5705,6.5962,6.6733,6.688,6.688,6.688,6.7357,6.7687,6.7687,6.7687,6.7687,0.0,0.0,0.0,0.0,0.0,0.0,0.0,0.0,0.0,6.8477,6.8833,6.9143,6.9451,6.9529,6.9607,6.9813,7.0099,7.0304,7.0362,7.069,7.0857,7.0898,7.0898,7.0898,7.0898,7.0898,7.0898,7.0898,7.0898,7.0898,7.0898,7.0898,7.0898,7.0898,7.0898,7.0898,7.0898,7.0898,7.0898,7.0898,7.0898,7.0898,7.0912,7.0979,7.1005,7.1055,7.1229,7.1339,7.1409,7.1659,7.1736,7.1823,7.1958,7.2008,7.2014,7.1982,7.1981,7.2017,7.1984,7.1989,7.1991,7.1991,7.1992,7.1992,7.1992,7.1992,7.1992,7.1992,7.2265,7.2422,7.2422,7.2695,7.2851,7.2851,7.2851,7.2851,7.2851,7.2851,7.3125,7.3711,7.375,7.4023,7.4609,7.4609,7.4023,7.2851,7.2851,7.2851,7.2851,7.2851,7.2851,0.0,0.0,0.0,6.2427,6.2506,6.2803,6.3929,6.4163,6.4604,6.6219,6.6549,6.6769,6.754,6.7687,6.7687,6.7687,6.7687,6.7687,6.7687,6.7687,6.7687,6.7687,0.0,0.0,0.0,0.0,0.0,0.0,6.7915,6.8185,6.8697,6.8765,6.9143,6.9995,7.0012,7.0271,7.0787,7.0801,7.0829,7.0898,7.0898,7.0898,7.0898,7.0898,7.0898,7.0898,7.0898,7.0898,7.0898,7.0898,7.0898,7.0898,7.0898,7.0898,7.0898,7.0898,7.0898,7.0898,7.0898,7.0898,7.0898,7.0898,7.0898,7.0965,7.1147,7.1186,7.1239,7.1439,7.1601,7.17,7.1705,7.1835,7.2006,7.2006,7.2014,7.1982,7.1989,7.199,7.199,7.199,7.1992,7.1992,7.1992,7.1992,7.1992,7.2031,7.2031,7.2031,7.207,7.2812,7.3359,7.3359,7.4101,7.4609,7.4609,7.4609,7.4609,7.4609,7.4609,7.4609,7.4648,7.4648,7.4648,7.4687,7.4687,7.4687,7.4687,7.4648,7.4609,7.4609,7.4609,7.4609,6.3875,0.0,0.0,0.0,0.0,0.0,6.5474,6.5763,6.6109,6.7136,6.7357,6.743,6.765,6.7687,6.7687,6.7687,6.7687,6.7687,6.7687,6.7687,6.7687,6.7687,0.0,0.0,0.0,0.0,0.0,0.0,6.8651,6.9058,6.9588,7.0012,7.0353,7.0622,7.0637,7.0719,7.0871,7.0871,7.0885,7.0898,7.0898,7.0898,7.0898,7.0898,7.0898,7.0898,7.0898,7.0898,7.0898,7.0898,7.0898,7.0898,7.0898,7.0898,7.0898,7.0898,7.0898,7.0898,7.0898,7.0898,7.0898,7.0898,7.1005,7.1124,7.1192,7.129,7.1448,7.1608,7.1677,7.1726,7.1884,7.1961,7.2017,7.1985,7.1987,7.1989,7.1992,7.1992,7.1992,7.1992,7.1992,7.1992,7.1992,7.1992,7.2226,7.2851,7.293,7.3164,7.3789,7.4101,7.4258,7.4258,7.4453,7.4609,7.4609,7.4609,7.4609,7.4609,7.4609,7.4883,7.5508,7.5547,7.5859,7.6484,7.6484,7.6484,7.6484,7.5195,7.4609,7.4609,7.4608,7.4608,0.0,0.0,0.0,0.0,0.0,0.0,6.616,6.6423,6.6733,6.7504,6.7687,6.7687,6.7687,6.7687,6.7687,6.7687,6.7687,6.7687,6.7687,6.7687,6.7687,6.7687,0.0,0.0,0.0,6.8021,6.8284,6.8884,6.9165,6.9549,7.0082,7.0563,7.0857,7.0898,7.0898,7.0898,7.0898,7.0898,7.0898,7.0898,7.0898,7.0898,7.0898,7.0898,7.0898,7.0898,7.0898,7.0898,7.0898,7.0898,7.0898,7.0898,7.0898,7.0898,7.0898,7.0898,7.0898,7.0898,7.0898,7.0898,7.0925,7.1005,7.1101,7.1208,7.1347,7.1474,7.1615,7.1789,7.1823,7.1842,7.1965,7.2019,7.1986,7.1989,7.199,7.1991,7.1992,7.2305,7.2422,7.207,7.2305,7.2539,7.2539,7.2851,7.3242,7.3789,7.3828,7.4023,7.4531,7.4922,7.5156,7.5156,7.5469,7.5664,7.5664,7.5664,7.5664,7.5664,7.5664,7.5898,7.6406,7.6445,7.668,7.7187,7.7187,7.7187,7.7147,7.6171,7.5663,7.5623,7.562,7.5613,0.0,0.0,0.0,0.0,0.0,0.0,6.6449,6.6623,6.6843,6.754,6.7687,6.7687,6.7687,6.7687,6.7714,6.7794,6.7794,6.7767,6.7714,6.7687,6.7741,6.7784,6.7784,0.0,6.8558,6.8567,6.8862,6.9529,6.9626,6.9849,7.0353,7.0719,7.0898,7.0898,7.0898,7.0898,7.0898,7.0898,7.0898,7.0898,7.0898,7.0898,7.0898,7.0898,7.0898,7.0898,7.0898,7.0898,7.0898,7.0898,7.0898,7.0898,7.0898,7.0898,7.0898,7.0898,7.0898,7.0898,7.0898,7.0925,7.0953,7.1147,7.1208,7.132,7.1595,7.1716,7.1789,7.1953,7.2014,7.1981,7.1981,7.1987,7.2029,7.2107,7.2148,7.2187,7.2265,7.289,7.3203,7.2422,7.289,7.3437,7.3437,7.4101,7.4648,7.4726,7.4726,7.4765,7.4883,7.5586,7.6055,7.6055,7.6758,7.7187,7.7187,7.7187,7.7187,7.7187,7.7187,7.7187,7.7187,7.7187,7.7187,7.7187,7.7185,7.7142,7.7097,7.7143,7.7141,7.7093,7.7091,7.6984,0.0,0.0,0.0,0.0,0.0,0.0,6.743,6.7467,6.7504,6.765,6.7687,6.7687,6.7687,6.7687,6.781,6.821,6.8247,6.8134,6.7767,6.7687,6.7863,6.8308,6.832,0.0,6.9085,6.9148,6.9393,6.9957,7.04,7.0652,7.0777,7.0871,7.0898,7.0898,7.0898,7.0898,7.0898,7.0898,7.0898,7.0898,7.0898,7.0898,7.0898,7.0898,7.0898,7.0898,7.0898,7.0898,7.0898,7.0898,7.0898,7.0898,7.0898,7.0898,7.0898,7.0898,7.0898,7.0898,7.0898,7.1005,7.1158,7.1203,7.1365,7.1602,7.1677,7.1823,7.1953,7.1973,7.1984,7.1989,7.1989,7.1991,7.2187,7.289,7.3047,7.3242,7.3945,7.4219,7.4297,7.414,7.4219,7.4336,7.4336,7.4492,7.4844,7.5547,7.5664,7.5898,7.6601,7.6836,7.6953,7.6953,7.7109,7.7187,7.7187,7.7187,7.7187,7.7187,7.7187,7.7187,7.7185,7.7185,7.7184,7.7103,7.71,7.7096,7.7087,7.7096,7.7046,7.6954,7.6934,7.6827,0.0,0.0,0.0,6.7982,0.0,0.0,0.0,6.8394,6.8394,6.8394,6.8394,6.8394,6.8394,6.8394,6.8514,6.878,6.8788,6.872,6.8535,6.8464,6.8535,6.8795,6.8884,0.0,6.9645,6.9701,6.9901,7.0463,7.0762,7.0898,7.0898,7.0898,7.0898,7.0898,7.0898,7.0898,7.0898,7.0898,7.0898,7.0898,7.0898,7.0898,7.0898,7.0898,7.0898,7.0898,7.0898,7.0898,7.0898,7.0898,7.0898,7.0898,7.0898,7.0898,7.0898,7.0898,7.0898,7.0925,7.1017,7.1112,7.1218,7.1383,7.1562,7.1731,7.1831,7.1917,7.21,7.2532,7.2653,7.2734,7.3163,7.3281,7.3398,7.3828,7.3945,7.4062,7.4492,7.4922,7.5234,7.5234,7.5586,7.5742,7.5312,7.5625,7.6055,7.6484,7.6562,7.6719,7.7148,7.7187,7.7187,7.7187,7.7187,7.7187,7.7187,7.7187,7.7187,7.7187,7.7187,7.7186,7.7142,7.7142,7.7139,7.7091,7.7091,7.7034,7.6942,7.6954,7.6938,7.6848,7.6833,7.6721,0.0,0.0,0.0,0.0,0.0,6.8619,0.0,0.0,0.0,6.9091,6.9112,6.9134,6.9134,6.9134,6.9143,6.9121,0.0,0.0,0.0,6.9416,0.0,6.9391,6.9413,0.0,7.0195,7.0266,7.0448,7.0871,7.0898,7.0898,7.0898,7.0898,7.0898,7.0898,7.0898,7.0898,7.0898,7.0898,7.0898,7.0898,7.0898,7.0898,7.0898,7.0898,7.0898,7.0898,7.1091,7.1168,7.1168,7.1321,7.1398,7.136,7.1014,7.1014,7.1168,7.1168,7.1285,7.1441,7.1611,7.1743,7.1833,7.2102,7.2243,7.2295,7.2432,7.2491,7.2655,7.3358,7.3554,7.3711,7.4414,7.4609,7.4648,7.4805,7.4844,7.4883,7.5078,7.5664,7.6133,7.6133,7.6719,7.6992,7.6289,7.6719,7.7187,7.7187,7.7187,7.7187,7.7187,7.7187,7.7187,7.7187,7.7187,7.7187,7.7187,7.7187,7.7187,7.7184,7.7184,7.7182,7.7096,7.7048,7.7037,7.7026,7.7014,7.6926,7.6768,7.6768,7.6755,7.6682,7.6682,7.6523,0.0,0.0,0.0,0.0,6.8688,0.0,0.0,0.0,6.9091,6.9091,0.0,0.0,0.0,0.0,0.0,0.0,0.0,0.0,6.9444,7.0111,7.047,7.0044,7.0009,0.0,0.0,7.0805,7.0819,7.0898,7.0898,7.0898,7.0898,7.0898,7.0898,7.0898,7.0898,7.0898,7.0898,7.0898,7.0898,7.0898,7.0898,7.0898,7.0898,7.0898,7.0898,7.0937,7.1706,7.2052,7.2091,7.2899,7.3206,7.3053,7.1514,7.136,7.2052,7.2052,7.2611,7.3385,7.3419,7.3643,7.3969,7.3999,7.4133,7.4281,7.4291,7.4296,7.4336,7.4414,7.4453,7.4492,7.457,7.4609,7.4805,7.5586,7.5742,7.5976,7.6758,7.6992,7.7031,7.7031,7.7148,7.7187,7.707,7.7148,7.7187,7.7187,7.7187,7.7187,7.7187,7.7187,7.7187,7.7187,7.7187,7.7187,7.7187,7.7187,7.7187,7.7184,7.7184,7.718,7.7087,7.6934,7.6833,7.6827,7.6713,7.6629,7.6605,7.6605,7.6516,7.6361,7.6361,7.626,0.0,0.0,0.0,0.0,0.0,0.0,0.0,0.0,6.989,0.0,0.0,0.0,0.0,0.0,0.0,0.0,7.0225,0.0,0.0,0.0,7.0748,0.0,0.0,0.0,0.0,0.0,0.0,0.0,7.0898,7.0898,7.0898,7.0898,7.0898,7.0898,7.0898,7.0898,7.0898,7.0898,7.0898,7.0898,7.0898,7.1168,7.1629,7.1629,7.1937,7.2437,7.2783,7.2937,7.2976,7.336,7.3514,7.3423,7.2706,7.2629,7.2951,7.3061,7.3338,7.3734,7.398,7.4145,7.4333,7.4453,7.4545,7.4605,7.4608,7.4609,7.4726,7.5195,7.5351,7.5469,7.5976,7.6094,7.6211,7.6562,7.664,7.6758,7.7109,7.7187,7.7187,7.7187,7.7187,7.7187,7.7187,7.7187,7.7187,7.7187,7.7187,7.7187,7.7187,7.7187,7.7187,7.7187,7.7187,7.7187,7.7186,7.7186,7.7184,7.7135,7.7023,7.6926,7.6799,7.6728,7.6684,7.6684,7.6613,7.6555,7.6436,7.6436,7.6316,7.6133,7.6248,7.6186,6.9219,0.0,0.0,0.0,0.0,0.0,0.0,0.0,0.0,0.0,0.0,0.0,0.0,0.0,0.0,0.0,0.0,7.0766,0.0,7.0744,0.0,0.0,0.0,0.0,0.0,0.0,0.0,0.0,0.0,7.0898,7.0898,7.0898,7.0898,7.0898,7.0898,7.0898,7.0898,7.1129,7.1245,7.1245,7.1514,7.1937,7.2552,7.2552,7.2899,7.3514,7.3745,7.3822,7.386,7.4091,7.4211,7.4293,7.4293,7.4294,7.4346,7.4119,7.4281,7.4586,7.4872,7.5006,7.5092,7.5252,7.5307,7.531,7.5312,7.5312,7.543,7.6094,7.625,7.6406,7.7031,7.7187,7.7187,7.7187,7.7187,7.7187,7.7187,7.7187,7.7187,7.7187,7.7187,7.7187,7.7187,7.7187,7.7187,7.7187,7.7187,7.7187,7.7187,7.7187,7.7187,7.7187,7.7187,7.7187,7.7183,7.7183,7.7135,7.7062,7.6877,7.6699,7.6579,7.6564,7.6536,7.6536,7.6477,7.6361,7.6211,7.6211,7.6147,7.5976,7.616,7.6147,0.0,0.0,0.0,6.9797,0.0,0.0,0.0,0.0,7.0601,0.0,0.0,0.0,0.0,0.0,0.0,0.0,0.0,0.0,0.0,0.0,0.0,0.0,0.0,0.0,0.0,0.0,0.0,0.0,0.0,0.0,7.0898,7.0898,7.0898,7.0898,7.0898,7.0898,7.0898,7.1745,7.2168,7.2168,7.3014,7.3423,7.3476,7.3476,7.3476,7.3538,7.4322,7.4668,7.4745,7.5553,7.6029,7.6192,7.6192,7.6338,7.6379,7.5326,7.571,7.6715,7.6721,7.6852,7.7007,7.7103,7.7106,7.7107,7.7109,7.7109,7.7109,7.7148,7.7148,7.7148,7.7187,7.7187,7.7187,7.7187,7.7187,7.7187,7.7187,7.7187,7.7187,7.7187,7.7187,7.7187,7.7187,7.7187,7.7187,7.7187,7.7187,7.7187,7.7187,7.7187,7.7187,7.7185,7.7184,7.7183,7.7099,7.7099,7.7037,7.6902,7.6699,7.6579,7.6618,7.6415,7.6293,7.6293,7.612,7.6005,7.5991,7.5991,7.6029,7.6015,7.6029,7.6029,0.0,0.0,7.0397,7.0353,0.0,0.0,0.0,0.0,0.0,0.0,0.0,0.0,0.0,0.0,0.0,0.0,0.0,0.0,0.0,0.0,0.0,0.0,0.0,0.0,0.0,0.0,0.0,0.0,7.0898,0.0,0.0,7.0898,7.0898,7.0898,7.1475,7.1745,7.1745,7.2629,7.3053,7.3053,7.336,7.3783,7.4284,7.4284,7.463,7.5168,7.5438,7.5553,7.5606,7.6031,7.6248,7.6305,7.6457,7.6596,7.6689,7.6327,7.6455,7.6816,7.6942,7.7032,7.7096,7.7183,7.7186,7.7187,7.7187,7.7187,7.7187,7.7187,7.7187,7.7187,7.7187,7.7187,7.7187,7.7187,7.7187,7.7187,7.7187,7.7187,7.7187,7.7187,7.7187,7.7187,7.7187,7.7187,7.7187,7.7187,7.7187,7.7187,7.7186,7.7186,7.7185,7.7141,7.7039,7.7011,7.695,7.6838,7.6675,7.6516,7.6457,7.6339,7.6199,7.6147,7.6093,7.6093,7.6034,7.6015,7.6015,7.6015,7.6015,7.6015,7.6015,7.6015,7.0708,7.0737,0.0,7.0647,7.0632,0.0,7.0662,0.0,0.0,0.0,0.0,0.0,0.0,0.0,0.0,0.0,0.0,0.0,0.0,7.0898,0.0,0.0,0.0,0.0,0.0,0.0,0.0,7.0898,7.0898,0.0,0.0,0.0,7.1052,7.136,7.1898,7.236,7.2668,7.3514,7.3937,7.3937,7.4245,7.4668,7.5168,7.5168,7.5476,7.6015,7.6015,7.6015,7.6005,7.6211,7.6339,7.6436,7.6596,7.6761,7.6897,7.6816,7.6838,7.693,7.7073,7.7135,7.7142,7.7185,7.7187,7.7187,7.7187,7.7187,7.7148,7.6836,7.6953,7.7148,7.6836,7.6953,7.7187,7.7187,7.7187,7.7187,7.7187,7.7187,7.7187,7.7187,7.7187,7.7187,7.7187,7.7187,7.7187,7.7187,7.7187,7.7186,7.7183,7.7143,7.7137,7.6993,7.695,7.6887,7.6813,7.6596,7.6447,7.6293,7.6236,7.6147,7.6029,7.6015,7.6015,7.6015,7.6015,7.6015,7.6015,7.6015,7.6015,7.6015,7.6015,7.6015]}]]